GFSMA_sfc_thetae_000.txt.gz
Theta_e
335 335 334 335 335 335 334 334 334 333 333 332 332 332 331 331 332 331 331 327 329 328 331 333 333 332 330 331 332 335 337 339 340 339 337 337 337 336 336 335 334 334 334
336 335 335 335 335 335 335 334 333 333 332 333 332 332 332 332 332 332 332 332 329 328 328 332 334 334 334 332 331 335 335 337 339 340 340 338 337 336 336 337 336 336 336
335 335 335 334 335 335 334 334 333 333 332 332 331 331 332 331 331 331 332 332 331 327 327 329 333 335 335 335 335 335 337 336 336 338 339 339 338 337 337 336 336 336 336
334 334 334 334 334 333 332 331 330 329 329 328 328 329 329 330 330 330 330 331 330 330 329 328 328 331 334 336 337 337 338 336 336 336 337 338 338 337 337 337 336 336 336
332 333 331 328 327 327 327 326 326 325 324 324 323 325 326 327 328 329 330 329 329 329 329 327 327 326 328 330 335 337 339 338 336 336 336 335 336 338 337 337 337 337 337
320 321 318 317 318 318 317 316 316 317 318 319 317 319 322 323 325 326 327 328 330 330 330 329 329 328 324 325 327 331 334 338 337 336 336 336 336 336 337 337 337 337 337
313 313 313 313 313 312 312 312 312 311 311 313 311 312 313 317 320 319 326 323 324 326 329 329 330 329 328 328 328 328 329 332 334 336 336 336 336 336 336 336 336 336 337
310 310 310 310 310 310 310 309 310 308 309 310 307 307 304 309 312 314 315 315 317 320 324 328 328 328 329 329 327 327 328 329 332 333 335 335 337 338 338 337 337 336 336
306 306 306 306 306 307 305 306 305 305 303 305 307 304 302 300 306 309 310 312 314 315 316 319 320 321 323 325 325 324 324 326 328 331 332 333 335 335 337 339 339 338 337
302 302 302 302 302 303 302 302 302 303 303 301 303 304 305 304 301 300 306 308 309 310 311 314 315 315 316 318 321 320 322 324 328 330 331 332 332 333 334 336 338 338 337
300 298 299 299 299 299 300 300 300 301 301 299 299 300 301 302 302 300 297 299 303 304 306 308 310 313 314 316 319 320 319 321 324 326 329 330 331 331 331 334 336 338 337
298 297 297 297 298 297 297 297 298 300 300 298 298 299 299 297 297 295 294 297 297 300 302 305 307 311 313 314 315 315 314 313 313 315 320 325 327 328 329 331 329 328 329
295 295 295 295 295 295 295 296 296 298 298 296 297 298 298 296 296 294 294 296 296 299 301 304 305 307 306 306 308 308 306 309 310 313 318 319 319 321 322 322 323 324 325
294 294 294 294 294 294 294 294 294 295 295 295 294 295 296 295 296 295 296 296 294 295 297 296 300 301 302 304 305 306 302 305 307 309 309 309 311 316 317 317 319 320 321
292 292 293 292 293 293 292 292 292 292 293 293 293 294 294 294 295 296 295 296 293 289 290 295 294 296 298 298 302 301 300 302 306 306 306 307 308 313 313 314 314 317 319
291 291 291 291 291 291 291 291 291 291 291 291 292 292 293 293 293 292 292 292 292 291 288 292 293 294 295 298 299 298 298 301 303 302 303 305 307 305 307 310 313 315 317
290 290 290 290 290 290 290 290 290 290 289 290 291 291 291 292 291 290 291 290 290 290 288 290 292 294 292 294 295 296 298 298 299 301 303 306 303 306 307 310 310 311 314
289 289 289 289 289 289 289 288 288 289 289 289 289 289 289 289 289 289 289 288 289 290 288 287 289 290 290 292 294 293 294 295 296 298 299 301 304 305 306 307 309 308 309
288 289 288 288 287 288 287 288 288 288 289 289 289 288 288 288 287 288 288 288 289 289 289 287 287 290 291 292 291 291 292 293 294 297 298 298 301 302 304 305 306 307 307
288 288 288 287 287 287 287 287 287 288 288 288 289 288 288 287 287 287 287 287 288 288 288 287 287 288 289 290 290 289 289 292 292 294 296 297 299 300 301 303 304 304 306
287 287 287 287 287 287 286 286 287 287 287 287 288 288 288 288 288 288 288 288 287 287 287 287 286 286 286 286 286 288 287 289 291 293 294 295 297 298 298 299 300 301 303
287 287 286 286 286 285 287 287 288 287 287 287 286 287 287 287 288 289 289 290 288 287 286 286 285 284 284 285 286 286 286 285 283 293 291 291 293 293 296 298 299 301 302
286 286 286 286 285 285 286 287 288 287 286 286 286 286 286 286 288 287 289 289 289 289 288 285 284 284 284 286 286 285 285 285 285 290 290 287 292 292 295 296 297 298 300
285 285 285 285 284 284 286 286 287 286 286 286 286 286 285 286 287 287 287 287 286 286 286 286 285 286 287 287 286 286 286 287 288 290 290 285 290 289 293 291 295 297 299
285 284 284 284 283 283 285 285 286 285 285 285 286 286 286 286 287 288 287 285 284 284 286 287 287 287 286 287 287 286 284 284 282 285 288 286 287 287 289 289 292 295 295
284 284 283 284 284 283 285 286 286 285 284 284 285 286 288 287 288 288 285 284 282 282 283 284 283 283 284 285 286 286 284 281 281 281 286 284 284 285 282 291 289 290 292

GFSMA_sfc_thetae_003.txt.gz
Theta_e
336 336 336 336 336 336 335 335 335 334 334 333 333 332 332 332 333 333 334 331 334 336 335 335 336 337 337 335 333 336 337 337 338 339 339 340 338 338 338 338 337 337 337
336 336 336 336 336 336 335 333 333 331 331 332 331 331 331 332 332 333 333 334 333 334 336 335 336 336 339 338 337 337 336 337 338 338 339 340 340 338 339 339 338 337 337
336 336 335 334 333 332 332 332 330 329 328 328 327 328 329 329 330 330 331 332 333 330 333 337 336 336 336 339 340 341 339 337 337 337 337 338 339 339 339 339 338 338 337
335 335 331 329 327 327 326 324 322 322 322 322 322 324 325 326 326 327 328 330 331 330 332 334 336 336 335 335 337 340 340 339 338 337 337 337 337 338 340 340 338 338 338
326 324 319 318 317 319 317 316 315 315 315 316 317 318 317 321 323 323 324 327 329 331 331 331 330 331 333 334 334 335 336 339 338 337 337 337 337 337 338 338 338 338 338
315 316 315 314 314 315 314 314 312 314 313 313 311 312 316 316 317 318 323 319 318 318 320 324 330 330 328 332 334 335 335 334 336 337 338 337 337 337 337 337 337 337 338
311 311 312 311 311 311 310 309 309 308 308 310 307 309 309 313 312 314 313 313 315 319 317 319 322 327 331 331 331 333 334 334 334 334 334 335 335 337 338 337 336 336 337
308 307 307 307 307 307 306 305 305 304 305 306 303 303 300 304 307 308 310 311 310 314 313 317 317 317 319 319 323 326 330 331 333 332 333 332 332 331 333 338 339 338 337
303 303 303 303 303 304 303 303 303 303 301 303 304 300 297 296 300 306 305 307 306 306 310 309 311 312 313 313 314 315 320 323 326 327 328 329 331 331 331 334 335 339 339
301 300 300 301 301 301 301 301 300 302 302 299 301 300 301 300 296 294 301 302 303 303 304 306 305 306 306 309 313 313 316 319 320 323 325 325 326 328 331 333 334 335 337
300 299 299 299 299 299 299 299 299 300 301 298 297 298 298 299 299 294 291 295 298 300 302 302 303 304 305 307 310 314 315 314 316 317 318 320 323 327 327 328 329 330 334
299 297 297 297 297 297 297 297 298 299 299 298 297 296 295 294 294 293 291 292 293 297 301 301 303 304 305 306 307 309 308 307 310 312 314 316 317 319 319 319 322 322 322
296 295 296 295 295 296 296 296 296 297 296 296 296 294 295 295 296 294 293 292 292 295 296 298 297 300 299 301 298 303 302 305 309 308 311 312 312 311 312 313 313 317 321
294 294 294 294 294 294 294 294 294 295 295 294 294 294 294 295 295 295 293 291 289 289 291 291 296 295 296 297 297 302 297 305 306 305 306 306 305 307 306 307 311 313 312
293 293 293 293 293 293 292 292 292 292 293 293 293 293 293 293 295 294 294 292 288 285 285 289 290 294 295 294 297 295 294 298 301 301 302 304 305 305 304 306 308 307 307
292 292 292 291 291 291 291 291 291 292 291 291 292 292 292 292 292 293 292 292 290 287 284 289 290 291 293 294 295 294 294 298 298 299 299 301 302 302 305 305 305 306 306
291 290 290 290 290 290 290 290 290 290 289 290 290 290 290 291 290 290 290 290 289 289 285 287 289 291 290 290 291 292 294 293 294 297 297 298 300 301 303 304 304 306 307
290 289 289 289 289 289 289 288 288 288 288 288 289 289 289 290 289 289 289 288 287 287 286 284 287 287 288 290 290 290 290 292 292 295 296 297 298 299 300 301 303 303 305
289 289 289 288 288 289 288 288 288 287 287 288 288 288 288 288 287 288 287 286 286 287 287 285 284 287 288 289 288 288 288 289 291 294 295 295 296 297 299 299 300 302 302
288 288 288 288 289 288 288 288 287 286 287 287 288 288 288 288 287 286 286 286 286 286 286 285 284 285 286 287 287 285 284 286 286 289 291 293 295 296 297 298 297 298 299
288 288 288 288 289 288 288 287 287 286 286 286 287 288 288 289 289 288 286 286 286 285 284 284 283 283 283 283 282 283 282 284 285 287 287 288 290 291 292 294 295 298 299
288 288 288 288 288 287 289 289 288 286 286 286 286 287 287 288 288 289 289 289 288 285 284 283 283 281 281 281 282 282 282 281 279 286 285 285 288 288 290 292 295 296 297
288 287 287 287 286 286 289 288 288 285 285 286 286 286 286 286 287 287 288 289 288 289 288 285 281 280 280 282 283 282 282 280 280 283 285 282 287 287 290 291 293 294 295
286 286 286 286 285 285 288 287 287 285 285 286 286 286 285 285 287 287 286 286 286 285 285 285 283 282 283 284 284 282 282 282 283 285 286 281 285 284 287 289 291 293 293
286 285 285 285 284 284 287 287 286 285 284 284 285 285 285 285 288 289 285 283 282 282 286 287 286 286 286 286 285 282 280 279 279 280 283 282 283 282 284 284 287 291 291
285 285 284 284 285 283 286 287 286 285 283 283 284 285 287 286 288 288 284 281 279 280 282 282 282 282 283 283 285 283 281 278 278 276 281 279 280 281 280 283 286 286 286

GFSMA_sfc_thetae_006.txt.gz
Theta_e
330 330 330 330 332 332 331 330 330 330 329 329 328 328 328 326 326 327 327 329 334 339 341 340 340 339 339 338 339 339 339 338 338 338 338 339 339 341 340 340 339 339 338
329 330 331 331 331 330 330 329 328 325 324 323 323 322 321 322 322 323 325 325 331 336 340 342 340 340 340 340 339 340 340 340 339 338 338 338 338 339 340 340 339 339 338
330 331 330 328 327 323 321 318 316 316 315 317 316 319 319 319 320 320 321 322 324 328 334 340 342 341 340 339 339 339 339 340 338 339 338 338 338 338 338 339 339 339 339
326 321 315 311 312 312 311 309 309 309 308 308 309 310 310 311 312 315 317 318 320 322 328 334 336 338 338 338 338 338 338 339 339 338 337 338 337 337 337 337 337 338 339
312 311 309 308 308 309 308 307 306 306 305 306 306 305 306 308 307 311 311 309 309 311 313 320 326 329 333 335 335 334 336 336 336 336 337 336 337 337 337 337 337 337 338
308 307 307 306 306 305 305 302 300 301 301 302 302 303 303 304 305 304 304 305 307 308 309 310 311 316 323 329 330 329 329 329 333 334 334 334 334 334 334 336 337 337 337
304 303 303 302 301 301 300 299 298 297 298 298 297 297 298 301 301 301 303 305 303 305 304 305 307 306 308 317 319 321 321 320 325 327 330 330 332 331 331 332 331 336 338
300 299 298 298 297 298 297 296 296 296 297 298 294 294 291 293 297 299 300 300 299 301 302 303 301 300 303 302 305 314 317 319 321 322 324 325 326 328 329 329 330 331 332
297 297 296 296 295 296 295 295 294 294 294 296 295 292 288 288 292 296 297 297 296 298 297 298 299 299 300 301 304 304 310 315 317 320 321 322 323 323 324 325 327 328 329
295 295 295 295 294 295 293 293 295 294 294 292 293 295 292 291 289 288 292 294 294 295 295 297 297 298 298 297 305 308 312 311 311 313 315 316 319 319 320 321 322 324 321
294 294 294 293 292 293 292 291 291 291 293 292 291 291 290 290 290 288 286 288 292 293 295 296 296 297 296 295 296 301 306 305 308 309 311 314 316 316 317 317 317 316 317
293 292 293 292 291 291 291 291 290 290 291 291 291 290 289 287 287 287 287 287 288 290 293 294 294 293 293 293 297 301 301 303 305 306 309 310 311 312 312 311 311 312 313
290 290 290 289 289 290 290 290 289 289 289 288 288 288 290 289 290 290 288 287 286 289 289 291 291 292 293 292 293 299 299 300 301 303 306 307 305 305 305 306 308 309 310
289 289 289 289 289 289 289 288 288 288 288 287 286 287 289 289 290 289 288 287 284 285 286 286 289 290 290 291 294 298 293 297 298 300 302 302 301 301 302 302 304 305 305
290 288 288 287 287 288 288 287 286 286 286 286 286 286 287 289 289 289 289 288 285 281 282 285 285 289 289 290 292 291 290 295 297 297 298 298 298 299 299 300 300 301 302
287 287 287 286 286 286 286 286 286 286 286 286 287 286 286 287 288 288 288 287 286 284 280 285 286 286 287 289 290 290 290 294 295 296 296 296 296 297 298 298 299 299 301
286 286 286 286 286 285 286 285 284 286 285 285 284 285 286 287 286 286 287 286 285 285 281 283 285 286 286 286 287 288 290 289 290 294 295 294 295 295 296 297 297 298 300
285 285 285 285 285 286 285 284 284 284 284 283 284 284 285 287 285 286 285 284 284 284 282 280 283 284 284 286 286 286 288 290 288 291 293 293 293 294 294 295 295 297 298
284 285 285 285 285 286 285 284 285 284 283 284 284 284 284 285 284 285 284 283 284 284 284 282 282 284 285 285 285 286 286 285 287 289 290 292 292 293 294 295 295 296 297
284 284 285 285 285 286 286 286 285 283 283 284 285 285 285 284 284 284 284 284 284 284 283 282 283 283 283 285 285 282 281 282 282 285 287 289 291 291 292 293 293 294 295
285 284 284 285 285 286 287 285 285 284 283 283 284 284 285 287 290 288 286 284 284 283 283 283 281 282 281 281 279 280 279 280 281 283 283 282 284 285 286 290 291 292 294
283 283 283 284 284 285 289 290 288 284 283 282 282 283 284 287 286 289 289 289 288 285 283 282 281 279 279 279 280 279 279 278 277 282 280 280 283 283 285 288 291 293 294
282 282 282 282 282 281 288 289 289 284 283 282 282 283 283 285 285 284 287 289 289 289 287 282 279 278 279 281 280 280 280 279 277 280 281 279 283 282 284 286 290 291 292
281 281 281 281 280 282 288 288 288 283 282 282 283 283 282 282 284 285 285 285 284 283 282 282 281 282 283 283 282 281 280 279 280 281 282 277 281 279 283 285 288 288 290
280 280 281 280 280 280 287 287 286 282 282 282 283 283 284 284 287 288 285 283 282 281 284 285 287 287 285 285 284 281 278 277 275 277 280 278 278 279 280 281 284 288 290
281 281 281 280 283 280 285 287 286 283 281 281 282 283 286 285 287 288 284 282 279 278 280 281 279 279 281 280 284 281 280 276 275 274 278 276 277 278 276 281 282 284 284

GFSMA_sfc_thetae_009.txt.gz
Theta_e
330 329 328 330 330 330 329 328 326 323 321 320 319 318 318 320 321 321 321 327 332 335 337 338 341 341 341 340 340 340 340 341 340 339 340 339 339 339 340 341 341 340 339
327 330 329 327 325 321 316 313 310 310 310 311 310 310 314 315 315 316 317 320 327 330 334 333 337 340 337 337 338 339 339 340 340 339 339 339 339 338 339 339 339 340 340
329 324 313 310 312 309 308 307 306 307 306 307 306 308 306 305 307 307 310 311 314 319 322 324 328 329 335 332 335 337 336 336 336 337 337 336 337 338 338 338 338 339 339
312 311 307 305 306 307 305 304 303 302 302 302 302 301 301 304 302 303 306 303 303 307 313 320 319 323 320 323 325 327 328 332 331 331 332 333 334 334 335 337 338 337 338
307 306 304 303 303 303 301 300 299 297 297 298 298 299 299 298 301 303 300 301 303 302 303 310 316 314 314 314 318 319 319 319 322 324 326 328 329 332 331 333 331 334 336
302 302 301 299 300 299 297 296 295 296 296 295 299 297 296 298 298 296 297 301 299 300 300 300 300 300 309 311 312 314 316 315 315 316 318 321 323 326 329 329 331 330 332
299 297 297 297 297 296 294 295 294 294 295 295 293 293 295 297 294 295 296 297 297 297 298 297 297 298 299 306 308 309 311 314 316 318 318 320 322 323 324 326 327 328 328
296 296 295 294 294 294 293 293 293 293 294 294 291 290 288 290 292 294 294 295 293 295 295 296 296 296 296 297 299 304 308 312 313 314 315 316 317 318 319 322 323 324 325
295 295 294 293 293 293 292 291 291 291 291 292 292 289 286 285 288 291 291 291 291 292 293 294 295 295 296 296 296 299 301 305 308 310 312 313 313 314 317 319 320 321 321
293 294 293 292 292 292 290 290 292 290 290 289 291 293 289 288 285 283 288 290 291 292 292 293 294 295 294 293 296 298 301 302 306 308 310 311 311 313 314 315 317 316 316
292 292 292 291 290 290 289 289 288 288 289 288 288 289 287 287 286 284 283 285 289 290 291 291 291 292 292 292 292 294 299 301 304 306 308 309 309 309 311 311 312 312 312
290 290 291 289 289 289 288 288 288 287 287 287 287 287 286 285 285 285 283 284 285 287 290 291 290 290 291 291 293 296 298 299 301 303 306 307 307 307 307 307 307 308 309
288 287 288 287 287 287 288 287 286 286 286 285 285 285 286 286 287 286 285 284 283 286 287 288 288 289 290 289 290 294 295 296 298 301 303 305 303 302 302 304 305 305 306
286 287 287 286 286 287 287 286 286 285 286 285 284 284 286 286 286 287 285 284 282 283 284 284 288 287 288 288 291 293 289 295 295 297 299 300 299 300 299 300 301 301 302
288 286 285 285 285 285 285 285 284 284 284 284 284 284 284 285 286 286 286 286 283 279 280 283 283 286 287 287 288 288 288 292 294 295 296 296 296 297 297 298 298 299 299
285 285 285 284 285 284 284 284 283 284 283 283 285 283 282 284 285 285 285 285 284 282 279 283 284 285 285 286 289 288 287 291 293 294 295 295 295 295 295 295 297 296 297
284 284 284 284 284 284 284 283 283 283 283 283 282 283 283 284 284 284 285 285 284 283 280 282 284 284 284 285 285 286 287 287 288 293 294 293 293 293 293 293 294 296 296
284 284 284 284 284 284 284 283 282 282 282 281 282 282 283 285 283 284 284 283 283 283 281 279 282 283 284 285 285 285 286 288 288 290 291 291 291 291 292 292 293 294 295
283 284 284 284 284 284 284 283 283 282 281 282 282 282 283 283 282 283 283 282 283 284 283 282 282 284 284 286 284 284 285 284 285 288 289 289 290 290 291 292 291 292 293
284 284 284 284 284 284 284 284 283 282 281 282 283 283 282 282 282 283 284 283 284 283 283 282 282 283 283 284 282 280 279 281 281 283 285 287 289 289 289 289 290 290 291
284 284 283 283 283 284 285 285 285 283 281 281 281 282 283 285 288 287 285 283 283 282 282 283 282 281 279 278 277 279 279 280 280 282 282 282 282 282 283 286 287 289 290
282 282 281 282 282 284 288 289 288 284 281 281 281 282 283 285 285 288 288 288 287 284 283 282 281 278 278 278 279 279 279 278 276 281 279 279 281 280 282 283 288 289 289
280 280 280 280 280 280 288 289 289 284 281 280 281 281 282 284 284 283 286 288 288 289 288 283 279 278 277 279 281 280 277 277 277 279 280 277 280 279 281 284 287 287 288
279 279 279 279 279 281 287 288 288 283 281 281 281 281 281 282 283 284 284 283 284 284 283 282 280 280 282 283 280 279 279 279 279 280 280 275 278 277 279 281 286 287 288
279 279 279 278 277 278 286 287 286 282 281 281 282 283 283 283 286 287 283 283 281 280 283 285 286 285 284 284 283 280 277 276 275 276 278 276 276 276 278 279 281 286 288
279 279 279 278 280 278 284 286 285 282 280 281 282 282 285 284 286 287 284 281 277 278 280 281 278 278 280 280 283 280 278 274 274 273 277 275 276 276 275 280 280 282 283

GFSMA_sfc_thetae_012.txt.gz
Theta_e
327 328 328 327 323 319 315 312 309 308 307 308 307 307 308 307 308 310 311 320 325 322 323 326 328 331 335 336 336 337 338 337 336 337 337 337 337 338 339 339 340 339 340
327 322 314 315 312 311 309 305 304 303 302 303 303 304 302 302 303 303 306 307 317 316 319 321 322 326 324 327 328 330 331 330 330 327 326 330 333 334 335 337 338 338 339
313 311 309 309 307 304 303 301 300 300 300 300 298 300 299 299 300 300 302 301 303 311 313 315 318 316 315 317 321 322 322 321 321 321 321 323 324 328 330 329 333 335 337
310 307 303 302 302 300 299 298 297 297 296 296 295 296 295 297 299 297 298 298 301 300 304 310 309 309 311 314 316 317 318 318 317 317 318 319 320 323 326 328 331 333 333
304 301 299 299 299 297 296 296 294 295 294 294 296 296 293 295 297 295 292 296 298 298 297 302 304 304 307 310 311 313 313 313 314 315 318 319 320 322 324 325 326 327 329
299 298 296 297 297 295 294 293 292 293 293 293 297 295 292 295 293 291 292 295 294 294 295 293 294 296 304 306 308 310 311 311 311 314 314 315 317 318 318 320 322 324 326
296 295 295 295 295 293 292 292 292 292 292 292 291 290 292 292 290 291 292 290 293 292 293 293 294 294 295 303 303 305 306 307 308 310 311 312 314 315 316 317 318 319 320
295 295 293 293 293 292 290 290 290 290 292 291 288 288 285 288 289 291 290 291 289 291 292 293 292 293 293 293 296 301 302 304 307 308 309 310 311 313 314 315 316 318 319
294 293 292 292 291 290 289 289 288 288 288 289 289 287 283 282 286 288 288 288 289 289 290 291 292 293 293 292 293 295 299 301 304 306 308 309 310 310 312 313 313 314 315
292 292 292 290 290 290 288 288 289 288 287 285 288 291 287 286 282 281 286 288 287 288 288 288 290 291 291 291 293 296 297 299 302 305 307 307 308 309 310 311 311 311 311
290 291 290 289 288 288 287 286 286 285 286 285 286 286 285 285 285 282 280 282 286 288 289 289 288 290 289 290 290 292 297 299 302 303 305 305 307 307 308 309 309 310 310
289 288 289 287 287 287 286 286 285 285 284 285 284 284 284 283 282 281 281 282 282 285 286 288 288 288 288 288 291 294 296 297 299 300 303 304 304 305 306 306 306 306 307
287 286 286 286 285 285 286 285 284 284 284 283 283 283 284 284 284 284 282 281 280 283 284 286 286 287 289 286 288 293 294 295 296 298 300 302 301 301 302 303 304 305 305
286 285 285 285 284 285 285 284 284 284 284 283 282 282 283 283 284 283 282 281 279 280 282 282 285 285 285 286 289 292 288 292 294 296 298 298 298 297 298 299 301 301 301
287 284 284 284 284 284 284 283 282 282 282 282 282 282 282 283 283 283 283 283 281 277 278 281 282 284 284 286 287 287 286 291 293 294 295 295 295 296 297 297 298 298 298
284 284 283 283 283 283 283 282 282 283 282 282 283 281 281 282 282 283 283 283 283 281 277 282 283 284 285 286 287 287 287 291 292 293 293 293 293 294 295 295 295 296 297
283 283 283 283 283 283 283 282 282 282 282 281 281 281 281 282 282 282 283 283 282 282 279 282 284 284 284 284 285 286 287 287 287 291 292 292 292 292 293 293 293 293 294
283 283 283 283 283 283 283 282 281 281 281 280 281 281 281 284 282 282 282 282 282 282 281 279 282 283 283 284 284 284 286 286 284 288 290 290 290 290 291 291 292 292 293
282 283 283 283 283 283 283 282 282 281 281 281 281 281 281 281 280 281 281 281 282 284 283 282 280 283 283 284 284 283 282 281 282 286 288 289 289 290 290 291 291 291 291
283 282 283 283 283 282 283 282 282 281 281 281 281 281 281 281 281 281 282 283 283 281 281 281 281 281 284 283 281 279 278 280 279 283 286 287 288 288 289 289 289 288 289
282 282 282 282 281 282 283 284 284 282 281 280 280 281 282 284 287 286 284 283 282 282 282 282 280 281 280 278 277 278 277 278 281 280 279 280 281 281 282 285 285 287 287
281 281 280 280 280 282 287 289 287 283 281 280 280 281 281 284 284 288 287 288 287 283 281 280 281 278 278 278 278 278 279 276 274 280 278 278 281 279 280 281 285 287 288
280 280 279 279 278 278 287 288 288 283 280 280 280 280 281 283 284 282 285 287 287 287 287 282 278 278 277 279 280 278 277 276 276 279 279 276 279 278 280 281 285 286 287
279 279 278 278 277 279 286 287 288 281 280 280 280 280 280 281 282 283 283 282 283 282 280 280 280 281 282 281 279 279 278 278 278 278 279 274 277 276 278 279 284 285 286
278 278 278 277 276 276 285 286 285 281 280 280 281 281 282 282 285 287 284 281 279 278 282 285 285 284 284 284 283 280 276 275 273 275 277 276 275 275 277 277 279 285 286
277 277 277 276 279 276 282 286 285 281 279 280 281 282 285 284 287 287 282 279 276 276 279 279 277 278 280 279 283 279 278 274 273 273 277 275 275 276 274 278 279 280 281

GFSMA_sfc_thetae_015.txt.gz
Theta_e
325 327 321 315 313 312 310 306 303 302 301 301 301 301 300 300 301 303 304 315 316 318 320 322 325 323 323 324 326 326 326 326 325 325 325 325 326 328 332 335 336 337 338
319 313 312 310 308 307 303 300 299 298 297 298 298 298 296 296 298 297 299 300 310 311 315 318 316 316 317 320 322 321 321 321 321 321 320 321 323 325 326 327 328 329 333
311 310 309 306 303 300 298 296 296 296 295 296 294 296 294 295 297 293 295 298 300 305 310 310 311 311 313 316 317 318 317 316 317 318 318 320 321 320 321 323 325 327 330
308 306 302 300 297 296 296 294 295 294 293 292 292 294 292 294 293 291 293 295 295 296 300 305 306 306 309 311 312 314 314 313 314 314 316 317 318 320 321 323 324 326 326
304 302 299 296 295 294 294 293 292 293 291 292 293 294 291 293 291 291 290 291 293 292 294 298 301 302 304 306 309 310 310 309 309 310 312 313 315 316 317 318 319 320 321
297 296 296 294 294 293 292 291 290 291 291 290 294 293 290 293 290 288 290 290 291 290 292 291 291 293 301 303 305 306 307 307 307 308 310 311 312 313 314 315 316 317 318
295 294 294 293 293 291 290 290 290 289 290 290 288 289 290 290 289 288 289 287 288 289 291 290 291 292 292 300 300 302 303 305 306 307 308 308 310 311 312 313 314 316 316
294 293 292 291 291 290 289 288 288 288 288 290 287 286 284 286 288 289 288 289 287 288 289 290 290 290 290 290 293 299 300 302 305 306 306 307 308 310 311 312 313 314 315
293 292 291 290 289 289 287 287 287 286 285 286 287 284 281 280 284 286 286 286 286 286 287 288 290 290 290 289 292 293 297 299 302 305 307 308 308 309 309 310 311 312 312
291 291 290 289 288 288 286 286 287 286 285 284 286 288 286 284 281 280 284 286 285 286 285 286 288 288 289 289 292 295 296 298 301 304 306 306 307 307 309 309 310 310 310
289 289 289 287 287 287 286 285 284 284 285 283 284 284 283 283 283 281 279 281 285 285 285 286 286 287 287 288 288 290 296 298 300 302 304 305 306 307 307 308 308 308 308
288 287 287 286 286 285 285 285 284 283 283 283 282 282 282 281 280 279 279 280 280 282 284 285 286 286 287 287 290 294 295 296 298 300 302 303 304 304 305 305 305 306 306
286 285 285 284 284 284 285 284 283 282 282 281 281 281 282 282 282 282 280 279 279 281 282 283 285 285 287 287 286 292 293 295 296 297 300 302 301 301 301 302 303 304 304
285 284 284 284 283 284 283 283 283 282 283 281 281 281 281 282 282 281 281 279 277 278 280 279 283 283 285 285 287 293 288 293 294 295 298 298 298 297 297 298 300 300 301
286 284 283 283 283 283 283 282 282 281 281 281 281 281 280 281 282 282 282 281 279 275 276 280 280 284 284 285 287 287 286 290 293 294 295 295 295 295 295 296 297 297 298
283 283 283 282 282 283 282 282 281 282 281 281 282 280 280 281 281 281 281 281 281 279 276 281 282 283 285 286 287 287 286 290 292 293 293 293 293 293 293 294 295 295 296
283 282 282 282 282 282 282 281 281 282 281 281 280 280 280 281 281 281 281 281 281 280 278 280 283 284 283 284 284 285 287 286 287 291 292 291 291 291 292 292 293 293 294
282 282 282 282 282 282 282 281 280 281 280 280 280 280 280 283 280 280 280 280 280 281 280 278 281 282 282 283 283 283 287 286 285 287 289 289 290 291 291 291 291 291 292
282 282 282 281 282 282 281 281 281 281 280 280 280 280 280 280 280 280 280 280 281 283 283 280 279 282 282 283 283 284 281 281 282 286 288 288 289 290 290 290 290 291 291
281 281 281 281 281 281 281 281 282 281 280 281 281 280 280 280 280 280 281 282 283 281 281 280 281 281 281 282 282 279 278 280 279 282 284 286 287 287 288 288 288 288 288
281 281 281 281 280 280 282 283 283 281 280 279 279 279 281 283 286 286 284 282 281 281 281 281 279 280 278 278 276 278 277 279 280 280 279 279 280 280 281 284 285 286 286
280 280 279 279 279 281 286 288 287 282 280 279 278 280 280 283 283 287 287 287 286 283 281 281 278 276 276 276 277 278 279 276 274 280 278 278 280 279 280 280 285 286 287
278 278 278 278 277 277 286 288 288 282 279 279 279 279 280 282 283 281 284 287 286 287 285 281 276 276 276 279 280 277 277 277 276 278 279 276 278 276 279 280 284 285 286
278 277 277 277 276 278 286 287 287 280 279 279 279 279 279 280 281 283 283 283 280 280 279 280 279 280 281 280 280 279 278 278 278 279 279 273 277 276 278 279 284 285 286
277 277 276 276 275 276 284 286 285 280 279 278 279 280 281 282 285 287 283 279 278 278 281 284 285 284 284 284 283 280 276 274 273 275 278 275 275 275 277 277 279 284 286
276 276 276 276 279 275 282 285 285 281 279 280 281 282 284 283 286 286 281 278 275 276 279 279 277 278 280 279 283 280 278 274 273 272 276 274 275 276 274 278 278 279 279

GFSMA_sfc_thetae_018.txt.gz
Theta_e
323 323 313 312 310 308 305 300 299 298 297 297 297 296 294 296 296 297 298 314 313 317 320 318 319 319 320 323 322 323 322 323 322 322 322 322 323 325 327 328 329 330 331
317 313 310 307 305 303 301 297 296 294 293 294 294 294 292 295 292 292 296 297 308 312 312 314 314 314 317 318 318 318 318 318 318 319 319 320 322 322 322 323 324 326 328
312 310 306 303 301 297 295 295 294 293 292 293 291 293 292 294 290 291 293 295 296 303 307 309 309 310 312 313 315 316 316 315 314 315 315 318 318 319 321 322 324 325 327
308 305 301 299 297 294 293 292 293 292 290 290 289 291 290 293 288 289 290 292 293 292 298 303 304 305 307 308 311 312 312 312 311 311 312 313 315 316 317 319 320 321 321
304 302 299 294 293 292 291 292 290 291 289 289 290 291 289 291 288 290 288 290 289 290 291 296 299 300 302 304 307 308 309 309 308 309 310 311 312 313 314 315 316 317 319
299 297 293 292 292 291 290 289 289 289 290 288 291 290 289 291 288 287 288 289 288 288 290 289 289 291 299 301 303 305 306 306 307 308 309 309 310 311 312 314 315 315 316
294 293 292 291 291 290 288 288 288 287 288 288 287 287 288 288 288 288 288 286 287 288 289 288 288 289 290 298 300 300 303 304 305 307 307 308 309 310 311 312 313 314 314
293 292 291 290 289 288 287 286 286 286 286 287 284 284 282 284 286 287 286 287 285 286 288 288 287 289 288 289 292 299 299 302 304 305 306 307 309 310 311 312 312 312 313
291 291 290 289 288 288 286 285 285 285 284 285 286 282 279 278 282 285 285 286 284 285 285 286 287 288 288 288 291 292 297 299 301 304 306 307 308 309 309 310 311 311 312
290 290 289 288 287 287 285 286 286 284 284 283 284 287 284 283 280 279 283 284 283 285 284 284 285 286 287 288 291 294 296 297 300 303 305 306 307 308 309 309 311 310 310
288 288 288 287 286 286 285 284 283 282 283 282 282 282 281 282 281 279 278 279 283 284 284 284 283 285 286 286 287 290 295 297 300 302 304 305 306 307 308 308 308 308 307
287 287 287 285 285 285 284 284 283 282 282 282 281 281 281 279 279 278 277 279 279 281 283 284 283 284 285 285 290 293 294 296 298 300 302 303 304 304 306 306 306 306 306
285 284 284 284 283 284 284 283 282 282 281 281 280 280 281 281 281 280 279 279 278 280 280 281 283 283 286 285 286 291 293 295 296 298 300 302 301 301 302 303 304 304 304
284 284 283 283 283 283 283 282 282 282 281 281 280 280 280 281 281 280 279 278 276 277 279 278 282 282 283 283 287 292 288 292 294 295 297 298 298 298 298 299 300 300 300
285 283 283 282 282 283 282 281 281 281 280 280 280 280 280 280 281 281 281 280 278 274 275 277 278 283 284 285 286 286 286 290 293 294 294 295 295 296 296 297 297 297 296
283 282 282 282 282 282 282 281 280 281 280 281 282 280 279 280 280 280 280 280 280 278 275 280 281 282 284 285 286 286 286 290 291 292 293 293 293 294 294 294 294 294 295
282 282 282 282 282 281 281 280 280 281 280 280 280 280 280 280 280 280 280 280 279 279 277 279 282 283 282 282 283 284 285 285 286 291 292 292 292 291 292 292 292 293 294
282 282 282 281 281 281 280 279 279 280 280 279 280 279 279 282 279 280 280 279 279 280 278 277 280 281 281 282 283 283 284 287 285 287 289 289 290 290 290 291 291 292 292
281 281 281 281 280 280 280 279 280 280 280 280 279 279 279 279 278 279 279 279 280 281 281 280 279 281 282 283 282 283 281 281 282 286 287 288 289 289 290 290 290 290 290
280 280 280 280 280 280 280 280 281 281 280 280 280 279 279 279 279 279 280 280 282 280 280 279 280 280 282 281 279 277 277 279 279 282 284 286 287 287 288 288 288 288 288
280 280 280 279 279 279 281 282 283 281 279 278 279 279 280 282 286 285 283 281 281 280 280 281 279 278 277 277 275 277 277 278 279 280 279 280 280 280 281 284 285 286 286
279 279 278 278 278 280 285 288 287 281 280 279 278 279 279 282 282 287 287 287 286 284 280 278 277 276 275 276 277 277 278 276 274 280 279 278 280 279 280 280 284 285 287
278 277 277 277 276 276 285 287 288 282 280 278 278 279 279 282 283 280 284 286 287 286 285 280 276 276 276 278 279 278 277 277 276 279 279 276 279 277 279 280 284 285 286
277 276 276 276 275 277 285 286 287 280 279 278 278 278 278 279 280 283 282 283 280 279 279 280 279 279 281 281 279 279 279 278 279 278 279 273 277 276 278 279 284 285 286
276 275 275 275 274 275 284 286 285 279 278 278 279 279 279 281 284 287 283 280 278 278 281 284 285 285 284 284 283 280 276 275 273 275 278 275 275 275 277 277 279 284 285
275 275 276 275 278 275 282 285 285 280 277 279 280 280 284 283 286 287 281 279 276 276 279 280 277 277 279 279 283 279 277 274 273 272 277 275 275 276 274 278 278 279 279

GFSMA_sfc_thetae_021.txt.gz
Theta_e
329 320 316 312 309 308 306 306 304 302 302 302 303 301 304 303 301 305 308 313 316 317 317 318 317 319 321 321 321 321 320 320 320 321 322 322 323 324 324 325 326 329 330
319 314 310 308 304 303 303 302 301 300 299 299 301 301 302 302 300 303 303 306 309 311 312 313 313 314 315 316 317 318 318 317 316 317 317 318 321 321 322 324 325 327 328
314 310 306 304 301 300 301 302 301 299 298 298 298 300 300 298 299 298 301 301 300 305 306 308 308 309 310 311 313 314 314 314 314 313 314 314 315 318 318 320 321 323 323
310 306 302 300 299 300 300 299 300 299 297 297 297 299 298 300 297 297 299 298 299 299 300 302 303 304 305 307 309 311 311 311 311 311 312 313 313 315 316 317 318 319 320
305 302 300 299 299 298 298 298 297 298 296 296 296 298 297 299 297 297 296 297 297 297 298 296 298 298 300 303 306 308 308 308 309 309 310 312 312 313 313 314 315 317 317
301 300 299 298 298 297 296 296 295 296 295 294 294 294 298 300 297 297 297 295 296 295 296 296 295 295 297 299 302 304 305 306 307 308 309 310 311 311 312 313 314 315 316
298 299 297 297 296 295 294 294 295 293 293 294 293 294 296 296 297 297 296 294 295 294 295 294 294 294 293 297 298 300 302 304 305 306 307 308 309 310 311 313 314 314 315
298 297 296 295 295 294 293 293 293 293 292 293 290 291 289 292 294 294 294 294 293 293 293 293 292 292 293 293 294 298 299 301 303 305 306 307 308 309 311 312 313 313 313
296 296 295 294 294 294 292 292 292 292 290 291 292 289 287 286 287 292 292 292 292 291 292 291 291 291 291 292 293 294 296 298 301 304 306 307 308 308 310 310 311 312 312
295 294 294 293 293 293 292 291 291 291 291 289 291 290 290 289 285 284 290 290 290 289 289 290 290 290 290 291 292 293 295 297 300 303 305 306 307 308 309 310 310 311 311
293 293 293 292 292 291 290 290 290 289 290 289 289 288 288 288 288 285 282 285 288 289 289 289 289 289 290 290 291 292 295 297 300 302 304 305 306 308 308 309 309 309 309
291 291 291 291 291 290 290 289 289 289 289 288 288 287 287 285 285 284 283 284 284 286 287 288 288 289 289 290 290 292 293 295 298 300 302 304 304 305 305 306 306 307 307
290 289 290 289 289 289 289 289 289 288 288 288 287 287 287 286 286 285 284 283 282 284 285 287 287 288 288 289 289 291 292 294 295 297 300 302 301 301 301 302 304 304 305
289 289 288 288 288 288 288 288 288 288 288 288 286 286 286 287 286 286 284 283 281 282 284 284 287 287 288 288 289 291 289 292 293 295 297 298 297 297 297 298 300 300 301
288 288 288 288 288 288 287 287 287 287 287 287 287 287 286 286 286 286 286 285 282 278 280 283 283 287 287 288 288 288 288 290 292 293 294 294 294 295 296 296 297 297 297
287 287 287 287 287 287 287 286 286 286 286 287 287 286 286 286 286 286 286 285 284 282 279 283 284 286 287 287 288 288 288 290 291 292 292 292 293 293 293 294 295 295 295
287 287 287 286 286 286 285 285 285 285 285 285 286 285 284 285 285 285 285 285 284 283 281 283 285 286 285 285 286 287 288 287 288 290 291 291 291 291 292 292 293 293 293
286 286 286 285 285 285 284 284 284 285 285 284 284 284 284 284 284 284 284 283 283 284 282 280 283 284 284 286 286 286 286 286 286 287 288 289 290 290 291 291 291 292 292
285 285 285 285 284 284 284 284 284 285 285 285 284 284 283 283 282 283 283 283 284 283 284 282 282 284 285 286 285 284 283 283 284 286 288 288 289 289 290 290 290 290 290
284 284 284 284 283 283 283 284 285 286 285 285 284 284 283 283 282 283 284 284 284 283 283 283 282 283 283 284 283 281 280 283 282 284 286 286 287 288 288 289 288 288 288
284 284 283 283 282 283 283 286 287 286 285 284 284 284 284 285 286 286 285 284 284 283 284 283 282 281 281 280 279 281 280 281 283 283 283 283 284 284 285 286 286 286 287
283 283 282 282 282 282 285 288 288 286 285 284 283 283 284 284 284 286 287 287 286 284 284 282 281 279 279 279 281 280 280 278 276 283 281 281 284 283 284 284 285 286 287
282 281 281 281 280 281 285 287 288 286 284 284 283 283 283 283 285 283 285 286 287 288 286 283 280 279 279 281 281 280 280 279 278 282 281 278 282 281 283 283 285 286 286
281 281 280 280 280 281 285 286 287 285 284 284 283 283 282 283 284 284 284 285 284 283 282 282 282 282 283 284 282 281 281 281 281 282 281 276 281 280 282 283 285 286 286
280 279 279 279 279 281 284 285 286 284 283 283 283 283 283 283 285 286 284 283 281 281 283 284 285 286 284 284 283 281 279 277 276 278 281 278 279 279 280 281 283 285 286
279 279 279 280 280 280 282 285 285 283 282 282 283 283 284 284 286 287 283 281 279 279 281 282 280 280 281 281 283 281 279 275 276 275 280 277 278 278 276 281 283 283 283

GFSMA_sfc_thetae_024.txt.gz
Theta_e
333 333 327 322 314 312 315 316 313 310 308 306 307 306 307 308 307 311 313 316 316 317 317 317 317 319 319 318 319 320 320 320 319 319 320 320 322 324 325 327 327 328 328
331 321 316 310 307 308 308 310 308 306 306 305 305 305 304 307 307 308 309 309 310 311 312 312 312 312 313 314 315 316 316 317 316 316 316 317 318 318 321 322 323 324 325
319 315 311 306 304 304 306 308 306 306 305 304 303 304 304 304 305 305 307 306 306 305 306 307 307 307 308 310 311 312 313 313 313 313 314 314 315 316 317 318 319 320 321
315 310 307 303 303 304 306 305 305 305 303 302 302 304 303 303 302 303 303 303 303 303 301 301 302 303 304 305 308 310 310 311 310 311 312 312 313 315 315 315 316 317 318
310 306 303 303 305 305 305 303 303 302 301 301 300 301 302 302 302 301 302 302 301 301 301 298 298 298 299 302 305 306 308 308 308 309 310 311 312 313 314 314 315 315 317
306 303 304 305 304 303 302 302 300 300 299 299 298 299 303 305 303 302 302 299 300 299 299 299 299 298 298 299 301 303 304 306 306 307 308 309 310 312 312 313 313 314 316
302 303 304 304 304 302 301 300 299 298 298 298 298 300 301 301 301 302 302 299 299 298 298 298 297 297 297 298 299 300 302 303 304 305 307 308 309 310 311 312 313 314 316
301 303 304 303 302 300 299 298 298 298 297 297 295 296 295 297 299 299 299 298 297 298 297 296 296 296 296 296 296 298 298 300 303 305 306 307 308 310 311 312 312 313 314
302 302 303 302 301 300 298 298 298 296 296 296 295 293 292 292 292 297 297 296 296 295 295 295 295 295 294 295 295 295 296 298 301 304 306 307 308 309 310 311 312 312 313
299 301 301 300 300 299 298 296 296 296 296 294 296 294 294 292 289 289 294 294 295 293 294 294 294 294 294 294 294 294 295 296 300 302 304 306 307 308 309 310 311 311 311
299 300 299 299 298 297 296 296 295 295 295 294 294 293 292 292 292 289 287 290 293 294 294 293 293 293 293 293 293 293 294 296 299 301 303 304 306 307 308 308 309 309 309
298 298 298 298 297 296 295 295 294 294 294 294 293 292 290 289 289 288 287 288 288 291 292 292 292 292 292 292 292 293 294 295 297 299 301 302 303 304 305 306 306 306 306
297 296 296 295 295 295 294 294 294 294 294 293 292 291 291 290 290 289 288 287 287 289 290 291 292 292 291 291 291 292 293 294 295 297 299 301 300 300 301 302 303 303 304
297 296 295 295 294 293 293 293 294 294 293 293 290 291 290 290 290 289 288 286 284 286 288 289 291 291 291 291 291 292 290 292 293 295 297 298 297 297 297 298 299 300 300
295 294 294 293 293 293 292 292 293 292 292 292 291 291 290 290 290 290 289 288 285 281 283 287 287 290 290 290 290 290 289 292 293 293 294 294 294 294 295 296 296 297 297
294 293 293 292 292 292 291 292 291 291 290 291 290 290 289 290 289 289 289 288 287 285 282 286 287 288 289 289 290 289 290 291 292 292 293 292 293 293 293 294 294 295 295
293 292 292 291 291 291 290 290 290 290 289 289 290 289 288 288 288 288 288 287 286 286 283 285 287 288 287 287 288 290 290 288 290 291 291 291 291 291 292 293 293 294 294
292 291 291 290 290 289 289 289 288 289 288 288 288 288 287 287 286 287 286 285 285 286 284 283 285 286 286 288 288 287 288 287 287 288 290 290 291 291 291 292 292 292 293
290 290 290 289 288 288 288 288 288 288 289 289 288 287 287 286 285 286 286 285 286 286 286 285 284 287 288 287 287 287 286 286 286 288 289 290 290 290 291 291 291 291 291
290 289 289 288 287 287 287 287 288 289 289 288 288 287 287 285 285 285 286 286 286 285 285 284 285 285 286 287 286 284 282 285 285 286 288 288 289 289 290 290 290 289 289
289 288 288 287 287 287 286 288 289 289 288 288 288 287 287 286 287 287 286 285 285 284 284 284 284 284 284 283 282 283 283 284 285 285 285 286 287 287 287 289 288 288 288
287 287 287 286 286 285 285 287 288 288 288 287 286 286 286 286 286 287 287 287 286 284 284 284 284 281 281 282 283 283 282 282 279 286 284 283 286 285 286 287 288 288 289
287 286 286 285 285 285 285 287 288 287 287 286 286 285 285 285 286 285 286 287 287 288 288 285 282 281 281 282 283 282 282 281 280 283 283 281 284 284 286 286 287 288 288
286 286 285 285 285 285 284 286 287 287 286 286 286 285 285 285 285 285 285 285 285 285 285 284 283 283 284 285 285 283 282 282 283 284 283 279 283 282 285 286 287 288 288
285 285 284 284 284 284 283 285 286 286 285 285 285 286 285 284 285 287 285 284 283 283 285 285 286 287 287 286 285 282 281 279 278 280 283 280 281 282 282 283 286 287 288
284 285 284 284 283 283 283 285 285 285 284 284 285 285 286 285 286 287 284 282 281 281 282 284 284 283 283 283 285 283 282 278 278 276 281 279 280 280 278 283 286 286 287

GFSMA_sfc_thetae_027.txt.gz
Theta_e
330 332 332 328 323 319 319 319 317 314 310 308 308 307 306 308 307 309 313 317 316 317 317 317 316 316 316 317 317 318 318 319 318 318 318 319 319 320 321 324 324 325 326
333 331 327 320 314 312 312 313 310 308 307 306 306 306 305 306 306 307 309 309 311 311 312 312 311 311 311 312 313 313 314 315 315 315 315 316 316 317 318 319 321 321 323
331 326 317 311 308 309 311 310 308 307 307 305 304 304 304 304 305 304 306 308 307 306 306 306 306 307 307 309 310 311 311 312 313 312 313 314 314 315 316 317 317 318 319
325 321 314 309 306 309 309 307 306 306 305 304 303 304 304 304 303 302 304 303 304 303 303 301 301 302 303 306 308 310 310 310 310 310 311 312 313 313 315 316 317 317 317
322 317 310 306 307 308 308 305 304 303 302 302 301 302 303 304 304 302 302 302 302 302 302 300 298 301 300 302 305 307 308 308 308 309 310 310 311 312 313 315 315 316 316
312 309 307 308 308 307 305 304 303 302 301 300 299 301 304 304 305 303 302 302 301 301 301 301 301 300 301 301 302 303 304 306 306 307 308 309 310 311 312 313 314 315 315
310 307 307 307 308 306 304 303 302 301 300 299 301 302 303 301 301 303 304 301 301 300 299 299 298 298 297 300 300 300 302 303 304 305 307 307 309 310 311 312 313 314 315
307 306 307 307 306 304 302 302 301 300 299 299 295 299 297 298 299 300 300 299 298 299 298 298 296 296 297 296 297 299 299 300 303 304 306 307 308 310 310 311 312 313 313
306 304 306 306 305 305 302 301 301 299 298 298 296 294 294 294 293 299 298 298 297 297 297 297 296 296 296 295 296 296 297 298 300 303 305 306 307 308 309 310 311 312 312
303 302 303 305 304 303 301 299 299 298 298 295 297 295 294 293 290 289 296 297 297 294 295 296 295 295 294 295 296 296 296 296 300 302 304 305 306 307 308 309 310 310 310
302 301 302 303 302 301 299 298 297 296 296 295 294 294 293 293 293 290 287 291 294 295 295 295 294 294 294 294 293 294 295 297 299 301 303 304 305 306 307 307 307 308 308
300 301 302 301 300 299 298 297 297 296 295 294 293 292 291 290 289 289 288 288 288 291 293 294 293 293 293 293 293 295 295 296 298 300 302 303 304 304 304 305 305 305 305
297 299 300 298 298 298 297 297 296 295 294 293 293 292 292 291 291 289 288 287 287 289 290 292 293 293 293 292 292 294 294 295 296 298 300 302 301 300 300 301 302 302 303
298 301 299 298 297 296 295 295 295 294 294 293 293 292 291 291 291 290 289 287 284 286 288 288 292 292 292 291 292 294 290 294 294 296 298 298 297 297 297 298 299 299 300
300 298 297 296 295 295 294 294 293 293 292 292 292 293 291 291 291 291 290 289 286 281 282 286 287 291 290 290 291 290 289 292 294 295 295 295 295 295 295 296 296 296 297
297 296 296 295 294 293 293 293 292 292 291 292 292 290 290 290 290 290 289 289 287 285 281 286 287 288 289 289 290 289 289 292 293 294 294 293 293 293 293 294 295 295 296
296 295 294 293 293 292 292 291 291 291 290 290 291 290 289 290 288 288 288 287 286 286 282 284 287 288 287 287 288 289 290 288 288 292 292 292 292 293 293 293 294 294 295
294 294 293 292 291 291 290 290 289 290 289 289 289 289 288 288 288 287 287 286 286 286 284 282 285 285 286 287 287 287 288 289 287 290 291 292 292 292 293 293 293 293 294
293 292 292 291 290 290 289 289 289 289 289 289 289 288 288 287 286 286 286 285 286 287 286 284 283 285 286 287 286 287 286 286 287 289 290 291 291 292 292 292 292 293 293
291 291 291 290 289 288 288 288 289 289 290 290 289 289 288 287 286 285 285 285 285 284 284 283 282 283 284 286 285 283 282 284 284 286 288 289 290 290 291 291 291 291 291
290 290 289 288 288 288 287 287 289 289 289 288 288 288 288 288 288 288 286 285 285 283 283 282 282 282 283 282 281 282 281 282 282 284 283 284 285 285 285 288 288 289 290
289 288 288 288 288 286 286 287 288 287 287 287 286 287 287 288 287 288 288 288 287 284 283 282 282 281 281 281 282 281 280 279 279 284 282 281 283 283 284 285 289 290 290
288 287 287 286 286 286 285 287 288 287 286 286 286 286 285 286 287 285 286 287 287 288 288 285 282 281 280 281 281 280 281 281 279 281 281 279 283 281 284 285 288 289 290
287 286 285 285 285 286 284 286 287 286 286 286 286 286 285 285 285 285 284 284 284 285 285 284 283 283 283 284 284 284 282 281 281 282 283 277 281 280 282 284 287 288 289
285 285 285 285 285 285 284 285 286 285 284 285 286 286 285 285 287 287 284 283 283 282 286 287 286 287 288 288 286 282 279 278 277 278 281 279 279 280 280 280 282 288 288
285 285 284 285 285 283 285 285 285 284 283 284 284 285 287 286 287 287 284 282 280 280 281 282 283 284 284 283 286 283 281 278 277 276 280 278 278 278 276 280 281 282 283

GFSMA_sfc_thetae_030.txt.gz
Theta_e
322 324 327 322 315 314 313 312 308 306 301 301 300 300 299 299 299 305 308 318 317 317 317 317 316 315 314 314 315 315 315 316 317 317 316 316 317 317 318 320 321 322 323
325 325 318 314 309 307 307 305 301 300 299 299 299 298 297 297 298 300 305 308 313 312 312 311 310 310 311 311 312 312 313 314 314 314 314 314 315 316 316 317 318 319 319
325 320 312 308 305 305 305 303 301 301 299 299 297 298 297 296 297 296 300 302 305 309 306 305 306 306 307 309 311 312 312 311 312 313 312 313 313 314 315 316 317 318 318
320 313 309 304 303 305 304 301 299 299 297 297 295 295 296 296 296 296 297 297 299 300 303 302 302 303 303 306 308 310 310 310 310 311 311 312 312 313 314 315 316 317 317
318 312 306 303 302 302 301 300 297 296 295 295 295 294 296 296 296 297 295 296 296 296 296 301 300 303 302 304 305 307 308 308 309 309 309 310 311 312 313 314 315 315 316
314 307 303 302 304 302 299 298 296 296 294 293 297 297 296 297 296 295 294 297 295 295 294 294 294 294 302 302 304 305 305 307 306 307 308 309 310 311 311 313 313 314 315
306 303 303 303 303 301 298 297 296 295 293 293 293 294 294 294 295 295 296 296 294 294 293 293 291 291 292 300 300 301 303 303 305 306 307 308 309 310 311 312 312 313 314
305 303 303 302 300 298 296 295 296 294 293 292 289 290 289 291 293 294 293 293 291 292 292 292 291 291 290 290 293 299 300 301 303 305 306 307 308 309 310 311 311 312 313
303 303 303 302 300 298 296 295 294 293 292 291 290 288 286 286 286 291 291 291 290 290 289 291 291 291 290 289 293 293 297 299 301 303 305 306 307 308 309 310 310 311 311
301 301 302 301 299 299 295 294 295 292 292 290 291 292 288 287 284 283 288 289 290 289 289 289 289 290 290 289 293 295 296 298 300 303 305 306 307 307 308 309 309 309 309
299 301 302 300 299 298 293 293 292 291 290 289 289 288 287 287 287 284 282 284 287 289 289 289 288 288 289 289 288 291 296 298 300 302 304 305 306 307 308 308 308 307 307
302 300 300 299 298 296 293 292 291 290 289 289 288 288 287 285 284 283 281 282 282 285 287 288 288 287 288 288 292 295 295 296 298 300 302 304 304 305 305 305 305 305 305
299 298 297 295 294 294 293 293 291 290 289 288 288 287 287 286 286 285 283 282 281 283 284 286 287 287 289 286 287 294 295 296 297 298 301 303 302 301 301 302 303 302 303
298 298 297 296 295 292 292 292 291 290 289 288 287 287 287 287 287 286 284 282 280 281 283 282 286 285 285 286 290 294 287 293 295 297 299 300 298 298 298 299 300 300 300
299 298 295 294 292 291 291 290 289 288 287 287 287 287 286 287 286 286 285 284 281 278 279 280 281 285 285 286 288 288 287 292 294 295 296 296 295 296 296 297 297 297 298
297 295 294 293 290 289 289 289 288 287 287 287 287 286 286 286 285 285 284 284 283 280 278 281 283 282 284 287 288 288 287 292 293 294 294 294 294 294 295 295 296 296 297
295 293 291 291 289 288 288 287 287 287 286 286 286 286 286 285 284 283 283 283 282 281 279 282 283 284 282 283 285 286 287 286 287 293 293 293 293 293 294 295 295 295 296
293 291 292 290 288 288 287 286 286 286 286 286 286 285 285 287 283 283 282 281 281 281 280 280 282 283 282 283 284 284 286 289 287 290 292 292 293 293 293 294 294 294 294
292 291 290 289 287 287 286 286 286 286 286 286 285 285 284 283 282 282 281 280 281 284 282 281 280 283 282 283 283 285 286 284 285 289 290 291 291 292 293 292 293 293 293
290 290 289 288 287 286 287 287 287 286 287 287 286 285 284 283 282 281 282 281 282 281 281 280 280 280 281 283 284 281 280 282 281 284 286 288 290 290 291 291 291 290 291
289 288 287 286 286 287 287 286 287 286 285 284 284 285 284 286 289 288 285 281 281 281 280 279 280 281 280 281 279 281 279 280 281 282 282 282 283 283 283 287 287 289 289
287 287 286 287 286 286 288 288 287 286 285 283 282 283 283 287 286 289 289 289 287 283 281 280 280 281 279 280 280 279 278 277 277 283 279 280 282 281 282 283 288 289 290
286 285 285 284 284 284 287 287 287 285 283 282 282 282 282 285 285 282 286 287 286 288 287 284 280 279 279 280 279 278 279 280 280 281 280 278 281 280 282 283 287 288 289
285 283 283 284 284 285 286 286 287 283 281 281 282 281 281 281 282 284 282 279 281 281 283 283 282 281 281 282 283 284 282 280 280 280 280 276 280 279 281 281 287 287 288
283 284 284 283 283 282 286 285 284 281 280 279 281 281 282 281 286 288 283 279 280 281 285 286 286 287 288 288 286 282 278 277 276 278 280 278 278 278 279 279 281 286 287
283 283 283 282 284 279 285 285 284 281 278 279 280 281 286 284 287 288 283 282 280 279 279 280 281 282 282 281 285 281 279 276 276 275 278 277 277 277 274 278 278 280 280

GFSMA_sfc_thetae_033.txt.gz
Theta_e
322 322 324 325 318 315 312 309 304 301 299 298 298 297 296 297 303 307 310 320 320 319 318 316 315 314 313 313 314 313 314 314 315 315 315 316 316 317 317 318 319 320 321
321 322 317 314 310 308 305 302 299 299 298 297 297 296 295 295 298 304 306 309 316 314 312 311 310 310 310 311 312 313 313 313 313 314 314 314 315 315 316 317 317 318 319
322 317 312 308 306 305 303 300 300 298 297 297 295 295 295 294 294 300 302 302 304 311 307 307 306 307 307 308 310 311 311 311 312 312 313 313 313 314 314 315 316 316 318
319 313 309 305 303 303 301 299 298 296 295 294 293 293 294 295 294 295 298 299 298 299 304 303 303 304 304 306 308 309 309 310 310 310 311 311 312 313 313 314 315 315 316
315 312 307 303 302 301 299 299 295 295 293 293 294 292 294 294 295 296 293 294 294 295 295 302 301 303 302 304 306 308 308 307 308 308 309 310 311 311 312 313 314 314 315
313 308 304 302 301 300 297 296 294 293 292 292 295 295 294 295 294 293 293 295 294 294 293 293 292 292 300 301 302 304 305 306 306 307 308 308 310 310 311 312 312 313 314
310 306 303 301 301 298 296 295 294 293 291 291 291 291 293 292 294 294 294 294 293 293 292 291 290 290 291 298 298 301 303 304 304 305 306 308 308 309 310 311 311 312 313
307 305 303 301 300 297 295 294 294 292 291 290 289 289 288 290 291 292 292 292 290 291 291 291 289 289 289 289 292 299 299 301 303 305 305 307 308 309 309 310 311 311 312
307 304 302 301 298 296 295 294 293 293 291 290 288 288 286 286 285 289 289 289 288 288 288 289 290 290 289 288 291 293 297 298 301 304 305 306 307 308 309 310 310 311 311
304 303 301 299 298 296 294 293 293 292 292 289 289 291 287 286 284 283 287 287 288 288 287 287 287 288 288 288 292 296 297 298 300 303 305 306 307 308 308 309 309 310 310
304 303 302 300 299 298 293 292 293 290 290 289 289 288 286 286 285 283 282 284 285 286 287 287 286 286 287 287 287 290 297 298 300 302 304 305 306 307 308 308 308 308 307
303 303 303 301 299 296 294 293 292 291 289 288 288 287 286 285 283 282 281 281 281 284 285 286 286 285 286 286 291 296 296 297 299 301 303 304 304 305 306 306 306 305 305
301 300 300 299 298 296 294 293 291 289 288 288 287 286 286 286 285 284 282 281 281 282 283 284 285 285 287 285 286 293 294 295 296 299 301 303 302 302 302 303 303 303 303
300 299 298 298 297 295 293 291 290 289 288 287 286 286 286 286 286 285 284 281 279 279 281 281 283 283 284 284 289 293 286 293 295 296 298 299 299 298 298 299 300 301 301
300 298 298 297 296 294 293 291 288 287 286 286 286 286 286 286 285 285 284 283 280 277 278 279 280 282 283 284 287 288 285 291 294 295 295 296 296 296 296 297 297 297 298
299 297 296 295 294 292 290 289 286 286 286 286 286 285 285 285 284 284 283 283 282 279 276 279 281 281 282 286 287 287 286 291 292 293 294 294 294 295 295 296 296 296 297
297 296 295 295 293 290 289 287 286 286 285 285 285 285 285 285 283 283 282 282 281 279 278 280 281 282 281 281 283 284 285 285 286 292 293 293 293 294 294 295 295 295 296
295 295 293 292 290 289 287 285 285 285 285 285 285 286 284 286 283 282 281 280 280 280 278 278 280 280 280 281 282 282 284 286 286 290 291 292 292 292 293 293 294 294 294
294 293 292 290 289 287 287 285 285 285 285 286 286 285 284 283 282 281 280 279 280 282 280 279 279 282 281 282 282 283 283 284 285 288 289 290 290 291 292 293 293 292 292
292 291 289 289 288 288 287 287 286 287 287 287 287 285 284 283 282 281 281 280 281 279 279 279 279 279 280 282 282 281 280 282 281 283 286 287 289 290 291 290 290 290 290
290 289 288 287 287 287 288 287 288 287 286 285 285 285 284 285 289 287 284 281 280 279 278 277 278 279 280 280 278 280 279 280 280 281 281 281 282 282 283 286 286 288 289
288 287 286 287 286 288 290 290 288 286 285 283 283 282 283 286 285 288 289 289 287 280 276 275 279 279 279 278 279 279 278 277 276 282 279 281 282 280 281 282 286 288 289
288 286 286 287 286 286 289 289 288 285 283 282 281 281 281 284 285 281 285 288 287 288 288 283 280 279 278 279 279 277 279 279 279 282 280 278 280 279 281 282 287 288 288
286 286 285 284 284 286 288 287 287 282 281 280 280 280 279 280 280 283 281 280 281 281 281 282 281 281 280 282 283 283 281 280 280 280 280 276 279 279 281 281 286 287 287
284 283 284 283 282 284 287 286 284 280 279 279 281 281 281 280 285 287 283 280 279 280 285 286 287 287 287 287 286 282 278 276 275 276 279 278 278 277 278 278 280 285 286
283 283 283 281 284 279 286 285 284 280 278 279 279 280 285 284 287 287 283 281 279 278 279 279 280 281 282 280 284 280 278 275 275 275 277 276 276 276 274 276 277 278 279

GFSMA_sfc_thetae_036.txt.gz
Theta_e
327 325 323 324 323 319 311 309 304 299 297 297 296 295 295 300 305 308 311 322 322 320 318 316 315 314 314 313 314 314 314 314 315 315 315 315 316 316 317 318 318 319 320
325 322 322 322 317 313 309 303 298 298 296 296 295 294 293 296 303 305 306 312 318 315 313 312 310 309 310 311 312 312 313 313 313 313 314 314 314 315 316 316 317 317 318
321 320 319 315 310 305 301 298 298 297 296 295 293 294 293 292 300 301 302 302 306 313 309 308 307 307 307 308 310 311 311 311 312 312 312 313 313 313 314 315 316 317 317
321 317 315 311 306 302 300 299 297 295 294 293 291 292 293 293 293 299 299 299 297 300 305 304 303 304 304 307 308 310 310 309 309 310 310 311 311 312 313 314 314 315 315
318 315 312 307 303 301 299 298 295 294 292 292 293 292 293 293 292 295 295 296 295 296 294 302 303 302 302 303 305 306 307 307 307 308 309 309 310 311 312 312 313 313 314
315 313 307 304 301 299 297 295 294 292 291 291 294 294 293 294 292 291 292 294 293 293 292 292 291 293 299 300 301 303 305 305 305 306 306 307 309 310 310 311 312 312 313
314 311 306 302 300 299 296 295 293 291 290 290 291 291 292 291 292 292 292 292 292 292 291 291 289 289 290 298 298 300 302 303 303 305 306 306 308 309 310 310 311 312 312
314 310 305 302 300 297 295 294 294 292 290 289 289 289 288 290 290 290 291 292 289 290 290 289 288 288 288 288 291 299 299 300 302 304 305 306 308 308 309 310 311 311 312
314 312 306 303 299 297 296 294 293 293 290 289 288 289 286 287 285 288 288 288 287 287 287 288 288 288 288 287 291 292 298 298 300 303 305 306 307 308 309 310 310 311 311
313 308 304 304 299 297 295 294 294 292 291 289 288 289 286 286 284 284 286 287 287 287 286 286 286 287 287 287 291 294 298 299 301 303 305 306 307 308 309 309 310 310 310
309 307 305 302 299 299 297 296 292 292 291 291 290 287 286 285 284 283 282 284 286 286 286 286 286 285 286 286 286 291 298 299 301 302 304 306 307 307 308 308 308 309 308
305 305 303 302 301 299 297 296 294 293 292 290 289 286 286 284 283 282 281 281 281 284 285 286 285 284 284 284 290 294 295 297 299 301 303 304 305 305 306 306 306 306 306
301 302 303 301 300 297 297 295 294 292 291 290 289 286 285 285 285 283 282 281 280 282 283 284 284 284 286 283 285 292 294 295 296 298 301 303 302 302 302 303 304 303 304
303 303 302 301 298 297 296 295 294 291 291 289 287 285 285 285 285 284 283 281 279 279 280 281 283 282 282 283 288 292 286 293 294 296 298 299 298 298 299 300 300 301 301
302 301 300 298 298 295 295 293 292 289 290 288 286 285 285 285 285 284 284 283 280 277 277 279 279 281 283 283 285 286 284 290 293 294 294 295 295 296 297 297 298 298 298
300 300 300 297 295 295 294 293 291 289 288 287 286 284 284 284 284 283 283 283 282 279 276 279 279 280 281 285 285 285 285 290 290 292 293 293 294 294 295 296 296 297 297
299 298 296 295 294 292 291 292 290 288 287 287 284 284 284 284 284 283 282 282 280 279 277 279 279 281 280 280 282 282 284 283 284 290 292 293 293 293 294 294 294 295 295
297 296 294 293 292 292 292 290 288 287 286 285 284 284 284 287 284 283 282 281 280 279 278 277 278 279 279 281 280 280 283 285 284 288 291 291 292 292 292 293 293 294 295
294 294 293 291 290 290 289 288 287 286 286 285 286 285 286 285 284 283 281 280 280 282 280 278 279 279 279 280 280 281 281 282 285 288 289 290 290 291 291 292 293 293 292
293 292 291 290 289 289 288 287 287 287 287 287 287 287 286 285 283 283 282 281 281 280 279 278 278 277 276 280 280 279 279 281 281 283 286 287 289 290 290 291 291 290 290
290 290 289 288 288 288 289 288 288 288 287 286 286 285 285 286 288 287 284 281 280 280 279 275 277 275 277 279 278 279 278 279 280 281 281 281 281 281 282 286 287 288 288
289 288 287 287 288 290 292 291 289 287 285 284 283 283 282 285 285 289 289 289 287 279 274 273 273 278 278 279 279 278 278 277 276 281 278 281 282 280 281 282 286 288 289
288 287 286 286 287 289 291 290 289 285 283 281 280 280 280 283 283 280 284 287 287 288 288 284 280 278 278 279 279 277 278 278 279 280 280 277 280 279 281 282 286 287 288
287 287 287 287 285 286 290 289 287 282 281 279 279 279 279 279 280 283 281 279 281 281 281 281 280 280 281 282 282 282 281 279 279 280 279 275 278 277 280 280 285 287 287
287 285 285 284 284 286 288 287 284 279 279 279 280 280 280 280 285 287 282 279 279 280 284 287 287 287 288 288 286 281 277 276 274 276 279 277 277 277 278 278 280 285 286
284 284 283 282 285 280 287 287 284 280 278 279 278 280 284 283 286 287 283 280 278 278 279 279 278 280 281 280 284 280 277 274 274 274 276 273 276 276 274 275 278 277 279

GFSMA_sfc_thetae_039.txt.gz
Theta_e
326 325 324 324 323 318 313 310 303 298 296 296 295 295 297 304 306 309 312 323 323 321 319 317 316 315 314 313 314 315 315 315 315 315 315 315 315 316 317 318 318 318 319
325 325 322 322 320 317 310 306 299 296 295 295 294 293 294 302 303 306 307 313 321 317 315 313 311 310 310 311 312 312 312 313 313 313 314 314 314 315 315 316 316 317 318
323 324 322 320 318 313 307 298 296 296 295 295 292 292 292 297 301 302 303 303 307 315 311 309 308 308 307 310 311 311 311 311 311 311 312 312 312 313 314 315 315 315 316
322 320 320 317 311 304 299 297 296 294 293 293 291 291 292 292 298 299 300 299 298 300 305 306 304 305 306 306 307 309 309 308 309 309 310 311 311 311 312 313 313 314 315
321 319 317 314 306 301 298 298 295 294 292 291 292 291 291 291 293 299 296 296 295 296 294 302 303 302 302 303 304 305 306 307 307 307 308 308 310 310 311 312 312 313 314
319 317 313 308 304 300 297 296 294 292 292 291 294 293 292 293 291 292 294 295 293 293 291 292 291 292 301 301 300 302 304 305 305 306 306 307 308 310 310 311 312 312 313
318 315 312 306 303 301 298 295 293 292 290 289 291 291 291 290 290 290 290 291 292 291 290 290 288 288 289 299 300 300 302 304 304 305 305 307 308 309 310 311 311 312 312
318 314 310 306 303 298 295 294 294 291 290 289 289 289 288 289 290 289 290 292 290 290 289 289 288 288 288 287 291 300 301 302 302 304 305 307 308 309 310 310 311 312 312
317 316 312 308 303 301 297 295 294 293 290 288 288 290 286 286 286 287 287 287 287 287 287 287 288 288 287 287 290 291 298 300 302 304 306 307 308 308 310 310 311 311 311
316 316 312 307 304 301 298 298 295 293 291 289 287 288 286 287 285 284 285 286 285 286 285 285 286 286 286 286 291 295 298 299 301 304 306 307 308 309 310 310 310 311 310
314 314 311 307 304 303 303 300 295 295 292 291 289 287 286 287 284 283 282 283 285 285 285 285 285 284 285 285 286 291 297 298 301 303 305 306 307 308 309 309 309 309 309
310 309 308 306 305 304 302 300 298 296 294 293 291 287 289 287 285 284 281 281 281 283 284 284 284 283 283 284 289 294 295 297 298 300 303 304 305 305 306 306 307 307 307
306 307 306 304 304 303 301 299 297 297 294 292 289 288 288 287 285 284 282 280 280 281 282 283 283 283 285 283 284 292 293 294 296 298 301 303 302 302 302 302 303 304 305
311 308 305 303 302 299 298 297 296 295 295 291 289 287 288 287 287 284 283 281 279 279 280 282 283 282 282 282 287 291 285 292 293 295 298 298 298 297 298 299 300 301 302
307 304 304 301 299 299 298 296 294 293 292 291 289 289 288 287 287 286 284 283 281 277 277 279 281 282 282 282 285 285 283 289 293 293 294 294 295 295 296 297 298 298 299
303 303 302 301 298 296 295 294 292 291 290 290 290 287 287 286 285 285 283 282 282 280 277 279 279 280 281 284 285 285 284 290 290 292 293 293 293 294 295 296 296 297 297
300 301 300 298 295 293 292 291 291 291 290 289 288 287 286 286 285 284 282 282 281 280 277 278 279 280 279 280 282 282 283 282 283 290 291 292 293 293 294 294 295 295 296
301 299 296 294 292 292 292 291 291 290 289 288 287 286 286 286 284 284 284 284 283 280 278 277 278 278 279 280 280 279 283 284 283 288 290 291 292 292 292 293 293 294 294
297 296 294 292 291 291 290 290 289 288 288 287 286 286 286 285 285 285 284 283 281 282 280 278 278 279 279 279 278 280 280 281 283 287 289 289 290 291 291 292 293 293 293
294 292 292 291 291 290 290 289 288 288 288 288 288 288 287 287 286 285 283 283 283 281 279 278 279 278 276 278 278 278 279 280 280 282 285 287 289 289 290 291 291 290 290
291 290 289 289 289 289 289 288 288 288 287 287 286 285 285 286 288 288 285 283 280 279 279 276 276 275 275 277 278 279 278 279 279 280 280 280 280 281 282 286 287 288 288
289 289 288 289 289 291 292 292 290 288 286 285 283 283 283 284 284 287 288 289 287 279 275 272 272 276 277 277 278 278 278 277 276 279 278 280 281 280 281 281 286 288 289
288 287 288 288 289 291 293 292 289 285 284 282 281 280 281 283 283 281 284 287 286 288 288 282 279 278 278 279 279 277 278 278 277 280 279 277 279 278 280 281 286 287 288
287 287 287 287 286 289 290 289 287 283 281 281 280 280 279 280 281 283 282 280 280 281 281 281 279 280 280 281 281 282 282 280 279 279 279 274 278 277 279 280 285 287 287
287 287 286 285 285 288 290 289 284 281 279 279 279 279 280 280 284 287 282 279 279 280 284 286 287 287 287 287 286 281 276 276 275 276 278 276 275 276 278 278 280 285 287
285 285 284 284 287 284 288 287 284 280 278 279 278 280 283 283 285 286 282 280 277 277 278 278 278 278 280 279 283 279 276 273 274 273 276 271 274 276 273 275 277 277 278

GFSMA_sfc_thetae_042.txt.gz
Theta_e
326 325 325 324 324 320 316 309 303 297 296 295 295 296 302 305 307 310 312 324 325 322 320 318 317 315 314 315 316 315 315 316 316 316 316 316 316 316 317 318 318 319 319
326 325 323 322 321 318 312 308 299 296 295 294 293 294 299 302 304 306 308 313 322 319 317 314 312 312 312 313 314 313 313 314 314 314 314 314 314 315 315 316 316 316 317
325 325 323 320 320 317 309 301 296 295 294 294 292 292 294 300 302 303 304 305 308 316 313 311 311 309 309 311 311 312 311 310 310 311 312 313 313 313 314 314 314 315 316
323 323 322 321 318 312 304 298 296 294 293 293 291 291 291 295 299 300 300 300 298 300 307 307 306 307 307 307 308 308 308 308 308 309 310 310 311 311 312 312 313 313 314
323 323 321 320 314 306 300 298 294 294 292 291 291 290 290 290 295 300 297 296 296 296 294 303 305 304 303 303 304 305 306 307 307 306 307 308 309 310 311 311 312 313 313
322 321 319 316 312 303 298 296 294 292 292 291 293 292 291 292 290 294 295 296 293 294 291 292 291 291 301 302 301 302 304 305 305 305 306 307 308 309 310 311 312 312 313
320 320 319 315 311 305 300 297 293 292 290 291 291 290 291 290 289 289 290 291 291 291 290 289 288 288 289 298 300 301 303 304 304 304 305 307 308 309 310 311 312 312 313
320 319 317 313 310 305 297 296 294 291 290 290 290 289 288 289 289 289 290 290 289 290 289 288 287 287 287 287 291 299 300 302 304 304 305 306 308 309 310 311 312 312 312
320 320 315 313 308 306 301 298 296 294 291 289 289 291 286 287 286 286 287 287 287 287 286 287 287 287 286 286 289 291 298 299 302 304 306 308 308 309 310 311 312 312 312
320 319 316 313 308 307 304 301 301 303 296 290 288 288 286 288 286 284 285 285 285 286 285 285 285 285 285 286 292 296 298 299 301 304 306 308 308 309 310 310 311 312 311
320 318 316 313 308 306 304 302 301 299 299 294 293 289 287 285 284 285 283 283 284 285 285 284 284 284 284 285 286 291 296 298 300 302 305 306 307 308 309 309 310 310 309
315 316 315 311 309 305 303 303 302 301 298 296 294 291 289 287 285 285 285 284 285 283 284 284 283 283 283 283 288 293 295 296 298 300 302 304 305 306 307 307 307 307 307
310 312 313 309 306 306 305 304 301 300 299 297 295 292 290 289 287 287 286 283 282 282 283 283 283 283 285 282 284 292 292 294 295 297 300 303 302 302 302 303 304 304 305
314 313 311 310 308 306 304 302 301 300 298 296 293 292 289 288 288 287 286 284 279 280 280 282 282 282 282 282 287 292 285 291 293 295 297 298 298 298 298 299 300 301 302
312 310 309 307 306 304 301 300 300 295 294 294 291 290 289 288 288 287 287 286 284 278 280 281 280 282 282 282 284 285 283 289 292 293 294 294 295 295 296 297 297 298 299
306 305 305 303 302 300 300 299 295 293 292 291 290 289 288 287 287 287 287 285 284 282 278 280 281 283 283 284 284 285 284 290 290 292 292 293 293 294 295 295 296 297 297
302 302 301 299 298 298 297 295 292 291 290 290 290 289 288 287 286 286 285 285 283 282 281 282 280 280 279 280 281 282 282 281 282 289 291 292 292 293 294 295 295 295 296
299 299 298 295 295 294 293 292 291 291 290 289 288 288 287 289 286 286 285 285 284 284 282 279 278 278 279 281 280 279 282 284 283 287 290 291 292 292 292 293 293 294 294
299 298 295 293 292 293 293 292 291 290 290 289 288 287 286 287 286 285 284 284 284 284 281 278 278 279 279 279 278 279 279 280 282 287 289 289 290 291 291 292 293 293 293
294 293 293 292 292 291 290 289 289 288 288 288 288 288 288 287 286 285 285 284 284 281 280 279 279 278 277 279 277 278 278 279 280 282 285 287 288 289 290 291 291 290 291
293 293 291 290 290 290 290 289 289 289 288 287 287 286 286 286 287 287 286 284 283 281 279 276 276 275 276 277 278 279 278 279 279 280 280 280 280 280 282 286 287 288 288
290 290 290 290 290 291 293 293 290 288 287 285 284 284 284 285 285 286 287 288 286 281 280 276 275 276 277 278 277 277 278 277 277 279 277 279 280 280 281 281 286 288 289
289 289 289 290 290 292 295 293 290 286 284 284 283 282 282 283 283 282 284 286 286 288 287 281 279 278 278 278 278 277 278 278 277 280 279 277 279 278 280 281 286 287 288
288 288 287 288 288 291 292 290 288 284 282 282 281 281 279 279 280 282 282 280 281 281 281 281 280 280 279 280 280 280 281 279 279 279 279 275 278 277 279 280 285 286 287
286 285 285 285 285 287 290 288 284 281 280 279 280 279 280 279 283 286 282 278 280 280 283 286 286 286 286 286 285 280 276 275 274 275 278 276 275 275 277 278 280 285 287
285 285 284 285 288 285 289 289 283 280 277 279 278 279 283 282 285 286 282 280 276 276 277 278 277 278 279 278 283 278 274 272 273 273 275 273 272 276 273 275 275 277 279

GFSMA_sfc_thetae_045.txt.gz
Theta_e
334 335 336 335 335 335 330 323 314 309 306 305 306 310 313 316 320 324 326 325 327 324 321 320 319 316 316 316 316 316 316 316 316 316 316 317 317 317 318 318 318 319 319
334 335 335 333 333 332 328 321 312 307 306 304 303 305 311 314 317 320 322 322 324 322 319 317 314 313 314 315 314 314 314 313 314 314 315 315 315 315 316 316 317 317 318
334 335 334 332 332 330 325 317 308 305 303 302 302 303 308 311 313 315 317 318 318 319 317 313 312 311 312 312 312 312 311 310 311 311 312 312 312 313 313 313 314 314 315
333 334 333 331 331 328 321 314 307 304 303 303 301 301 303 308 310 311 313 312 311 311 313 310 309 309 308 307 309 308 308 308 308 308 309 310 310 311 312 312 312 313 313
331 332 332 331 330 326 318 311 305 304 302 301 300 300 300 302 307 307 309 308 307 307 306 307 309 307 304 304 305 305 306 306 306 307 307 308 309 310 311 312 312 313 313
330 330 330 330 328 324 318 308 305 302 303 302 297 298 300 300 301 306 306 304 304 304 303 305 304 303 302 302 301 302 304 305 306 306 307 307 309 309 310 312 312 313 313
329 329 328 328 326 323 318 311 304 301 299 300 299 299 299 299 299 300 304 303 301 301 300 301 299 298 298 298 299 301 302 305 306 306 306 307 308 309 311 312 313 313 313
327 328 328 326 324 321 315 308 304 300 300 299 300 299 297 297 298 297 298 300 300 299 298 297 297 296 297 298 297 299 300 302 304 305 306 307 309 310 311 312 313 313 314
327 326 326 325 322 320 314 309 305 304 299 297 298 302 295 298 295 295 295 297 297 297 298 296 295 295 295 296 296 296 298 300 302 304 307 308 310 310 311 312 313 313 313
326 325 325 323 321 319 316 310 305 305 304 298 294 293 295 298 297 293 293 294 294 294 295 294 294 293 293 295 296 297 297 298 300 303 305 307 308 309 311 311 312 312 312
327 325 324 322 319 318 318 313 306 304 305 303 299 292 292 291 290 295 293 291 291 292 293 293 293 293 292 293 294 295 295 297 299 301 304 306 307 308 309 310 311 311 311
324 324 323 321 320 317 315 311 310 308 306 305 302 297 295 293 290 292 289 290 291 291 291 291 291 292 291 292 292 293 293 295 297 300 302 304 305 306 307 308 308 308 308
320 321 322 321 319 316 316 313 310 308 306 305 302 297 296 294 292 290 289 286 287 287 289 290 290 291 290 290 291 292 291 293 295 297 301 303 302 301 302 303 304 305 305
322 323 321 321 319 316 313 312 310 309 307 305 299 295 294 291 291 290 290 289 285 285 285 288 287 289 290 290 290 291 291 292 293 296 298 298 297 297 298 299 301 302 302
321 320 319 318 316 313 311 310 309 307 304 302 296 294 292 291 291 291 289 290 291 284 284 284 285 288 288 288 288 291 290 290 293 294 294 294 295 295 296 297 297 298 299
317 315 314 314 311 308 307 306 304 302 299 296 293 291 290 289 289 290 289 287 287 287 284 285 285 286 286 287 288 289 289 290 291 292 293 293 293 294 294 295 296 297 298
311 310 309 307 305 304 304 301 298 296 293 291 290 290 289 289 288 287 288 287 286 286 284 285 284 284 284 285 286 288 289 288 289 290 292 292 292 293 294 294 295 296 296
306 305 303 302 301 300 298 295 293 292 291 290 290 289 288 289 288 288 287 286 285 285 284 283 285 283 283 286 286 287 286 287 288 289 291 291 292 292 292 293 293 294 294
302 301 300 298 295 294 293 293 292 291 290 290 290 289 288 288 287 286 286 286 286 287 285 283 282 283 284 285 285 286 286 287 286 288 289 290 290 291 291 292 293 293 293
295 295 294 294 293 293 292 291 291 289 289 289 289 289 288 288 287 286 286 287 287 285 284 283 283 283 284 285 284 283 283 286 285 285 287 288 289 290 290 291 291 290 291
293 293 292 291 291 291 291 290 290 289 288 288 288 287 286 287 287 287 286 286 285 285 284 283 283 283 283 283 283 284 283 283 284 285 284 285 285 285 286 287 288 288 288
291 291 291 291 292 293 294 294 291 288 287 286 285 285 285 287 286 287 287 288 288 285 284 284 283 282 283 283 283 282 282 281 279 286 283 283 285 284 285 286 287 288 289
291 291 291 291 292 293 295 293 291 286 285 284 284 284 284 285 285 284 285 286 286 287 287 286 283 283 282 283 284 282 282 281 280 283 283 281 284 282 285 285 287 287 288
288 288 289 289 290 291 293 291 289 284 283 283 283 283 283 283 283 284 284 284 285 284 285 284 285 284 284 285 284 283 283 282 282 283 283 278 282 281 284 284 286 287 287
286 285 286 286 286 288 289 287 284 283 282 282 282 282 283 282 284 285 285 283 283 283 284 285 285 286 286 286 285 283 281 279 277 279 282 279 280 281 281 282 283 286 287
285 286 285 285 289 287 288 287 284 282 280 281 282 282 283 283 285 286 285 284 280 281 281 282 282 281 281 281 283 282 280 277 276 276 281 278 279 279 277 282 283 283 283

GFSMA_sfc_thetae_048.txt.gz
Theta_e
336 338 338 336 334 336 336 335 331 323 319 316 315 316 316 317 320 324 327 326 329 325 323 321 320 318 317 318 317 317 317 316 316 316 317 317 317 318 318 319 319 319 319
336 336 337 337 336 335 335 333 329 322 318 315 312 313 314 315 317 320 322 324 326 325 321 319 316 315 316 316 315 315 314 313 314 314 315 315 315 316 316 316 316 316 317
335 335 335 336 337 336 333 332 327 321 316 313 312 311 313 314 315 317 319 320 320 321 320 316 314 313 314 314 314 313 311 309 311 311 312 312 313 313 313 314 314 315 315
336 335 335 335 337 336 332 330 324 318 315 312 311 310 310 312 313 314 316 317 317 315 315 314 313 311 311 310 311 309 308 308 308 308 309 310 310 311 312 313 313 313 314
336 335 334 335 336 335 331 328 324 320 315 312 311 309 308 309 311 311 313 314 314 313 312 311 312 311 307 307 308 306 306 306 306 307 307 309 309 310 311 312 313 313 314
337 336 334 334 335 334 331 327 322 318 316 314 307 306 307 306 308 310 310 311 310 311 310 308 307 306 304 304 303 303 304 305 306 306 306 308 308 310 311 312 313 314 314
337 336 334 333 333 332 331 327 322 316 311 312 307 306 305 305 305 306 309 309 308 308 307 307 306 304 302 302 302 301 302 305 306 307 306 307 308 309 311 312 313 314 314
336 336 334 333 332 331 331 329 323 315 314 309 309 310 305 303 302 303 305 306 307 306 305 304 304 303 302 302 301 299 299 301 303 305 306 308 309 310 312 313 313 314 314
336 336 335 334 333 332 330 329 324 317 313 308 311 313 306 306 302 303 302 303 304 304 304 303 302 301 301 301 298 298 299 300 302 305 306 308 309 310 312 312 313 314 314
334 335 334 334 333 332 328 328 324 320 319 309 307 305 305 305 302 295 299 300 302 302 303 302 300 299 298 299 298 299 298 298 300 302 304 306 308 309 310 311 312 313 313
332 331 331 331 331 330 328 327 322 319 320 316 308 304 301 300 300 301 299 295 298 299 300 300 299 298 297 298 299 298 296 296 299 301 303 305 307 308 309 310 311 311 312
330 329 328 329 330 329 327 326 323 319 318 317 310 307 305 304 301 299 299 296 295 297 297 297 296 296 296 296 296 295 294 294 296 299 302 304 306 306 307 307 307 308 308
329 326 327 326 326 327 327 326 323 318 317 315 313 309 306 302 298 298 297 291 292 288 290 291 294 294 293 295 295 294 293 293 295 297 300 303 303 301 301 302 304 304 306
330 330 326 326 326 326 325 324 322 319 316 312 312 311 304 298 296 295 295 293 290 289 289 290 290 291 292 294 292 292 293 292 294 295 298 299 298 298 298 299 300 301 302
327 329 328 324 324 324 321 319 316 316 314 314 314 310 303 295 294 294 294 296 297 288 290 286 287 289 289 290 290 290 290 292 294 295 295 295 295 296 296 297 298 298 299
323 324 323 323 321 318 316 314 313 313 311 310 308 301 295 292 292 292 292 290 291 290 286 286 286 287 288 288 290 291 289 292 293 294 294 294 294 294 295 295 296 297 298
318 318 318 318 316 313 311 309 307 306 305 299 296 293 291 292 289 289 289 289 289 288 287 285 286 286 286 287 287 288 290 290 291 292 293 293 293 293 294 294 295 296 296
311 312 311 310 309 307 306 304 299 298 294 291 291 291 289 290 289 290 290 287 287 287 287 286 285 284 285 286 288 288 289 289 289 291 292 292 293 293 293 293 294 294 295
306 307 305 303 302 301 298 296 294 292 291 291 291 290 289 290 288 287 288 286 286 286 286 286 285 286 287 288 288 288 288 289 289 290 291 291 291 292 292 293 293 293 293
300 297 299 297 296 295 294 293 292 291 291 290 290 290 289 289 288 286 286 285 286 287 288 286 285 286 287 287 287 285 285 288 287 288 289 290 290 290 291 291 291 291 291
294 293 293 292 293 293 292 291 291 290 290 289 289 288 287 288 289 288 288 288 288 286 286 286 285 285 286 286 285 286 284 285 286 287 286 287 288 288 289 290 290 290 290
293 294 293 293 293 293 295 294 291 289 288 287 285 285 286 288 289 290 290 290 289 287 286 286 285 284 284 285 286 285 284 282 281 287 285 285 288 287 288 288 290 290 290
292 292 293 293 293 293 295 294 291 287 286 285 285 286 286 287 286 285 286 287 287 287 288 287 285 285 284 285 285 283 283 283 282 285 285 283 286 285 287 288 289 289 290
286 289 288 289 289 291 293 291 289 285 285 285 285 285 285 285 285 285 285 285 285 286 286 286 286 286 286 286 286 286 285 284 285 286 286 281 285 284 286 287 289 289 289
286 286 286 286 286 286 289 287 285 284 284 284 285 286 285 284 284 285 285 285 285 285 286 286 286 286 286 287 286 284 282 282 280 282 285 282 283 283 285 285 286 288 288
285 287 286 287 288 287 288 287 286 285 284 283 284 284 283 284 285 286 286 285 283 283 283 284 284 284 284 284 284 284 283 280 279 279 285 281 282 281 279 284 285 286 286

GFSMA_sfc_thetae_051.txt.gz
Theta_e
335 337 335 334 332 335 335 336 334 329 325 322 320 320 318 318 319 323 328 327 331 328 325 323 321 320 319 319 318 318 317 318 318 318 318 318 318 319 319 319 320 320 320
335 336 336 336 334 333 334 333 332 329 323 320 318 317 318 317 317 320 324 325 328 327 323 322 320 318 318 318 317 317 315 315 315 316 316 316 316 316 316 317 317 317 318
335 335 335 336 336 335 333 332 331 328 323 319 316 315 316 316 316 317 320 323 322 323 324 321 318 317 317 316 316 315 312 311 311 312 312 312 313 314 314 315 315 315 316
336 335 334 334 336 336 335 332 330 326 321 318 315 315 314 315 314 314 317 318 320 318 319 319 316 315 315 314 314 312 309 309 308 308 308 309 310 311 312 313 314 314 314
338 336 334 335 334 336 332 332 329 324 321 318 316 315 313 314 313 312 314 316 317 316 315 318 317 316 313 311 312 309 308 307 306 306 307 308 309 310 311 312 313 314 314
340 337 336 335 334 334 333 332 329 326 323 319 314 312 312 311 313 312 312 312 313 313 313 310 309 309 310 308 309 307 306 305 306 306 307 308 308 310 311 312 313 313 315
340 339 337 335 335 333 333 332 329 325 321 320 314 310 311 310 308 309 311 311 311 311 311 309 307 306 305 306 306 305 304 305 306 306 308 308 309 310 311 312 314 314 315
341 339 338 336 334 332 332 331 329 324 320 318 311 311 307 306 306 307 307 308 309 308 307 307 306 306 304 302 304 302 303 302 303 305 306 307 309 310 312 314 314 314 315
341 340 338 337 335 333 331 331 330 324 317 315 314 313 309 307 304 305 304 305 306 306 305 305 304 304 303 303 302 301 300 301 303 305 306 307 308 309 311 313 313 314 314
335 336 335 336 335 334 332 331 331 327 320 314 311 312 316 309 305 298 303 302 304 304 304 304 302 302 301 301 303 302 302 300 300 302 303 305 307 308 310 311 312 313 313
336 334 333 333 333 332 331 331 330 328 321 319 310 311 309 306 304 304 297 297 300 301 303 302 301 300 299 299 300 300 300 299 299 300 302 304 306 308 310 311 310 311 311
334 335 331 330 330 329 329 329 330 327 322 321 317 314 308 306 302 301 301 299 296 297 299 301 300 298 298 297 299 301 298 297 297 298 301 303 305 306 307 307 307 307 308
330 332 330 328 327 328 328 328 326 325 322 320 320 313 313 311 312 306 303 295 293 291 295 295 296 296 295 294 295 297 295 294 294 297 300 303 303 303 302 303 304 304 305
327 330 331 328 327 326 326 326 324 323 321 319 318 318 313 310 303 301 298 293 290 288 290 290 291 293 292 293 294 295 294 295 294 295 298 300 299 299 299 300 300 301 302
322 326 329 328 325 325 324 324 322 320 319 317 317 316 312 306 302 299 298 298 299 292 287 288 287 290 290 290 292 290 290 292 294 296 297 297 297 297 297 298 298 299 299
319 320 323 324 323 322 322 319 317 316 315 313 312 311 304 297 296 296 293 293 294 292 289 287 286 288 289 289 291 292 291 293 294 296 296 296 295 296 296 296 297 297 298
315 316 317 319 318 318 317 314 312 311 310 306 304 299 293 293 291 292 291 292 291 291 290 285 287 287 287 288 289 289 289 289 290 294 294 294 295 295 295 295 296 296 296
311 311 310 312 313 311 309 308 303 303 299 295 294 293 291 292 290 291 291 290 290 291 289 286 286 285 285 286 287 287 289 290 290 292 293 293 294 294 294 294 294 295 295
303 304 304 304 302 302 300 297 295 293 292 292 292 290 290 290 289 290 289 288 287 288 286 286 285 286 286 287 287 288 288 289 289 291 293 293 292 292 293 293 294 294 294
296 297 297 297 297 296 295 295 293 292 291 291 291 291 291 290 289 287 287 286 286 286 286 287 286 287 287 288 287 285 285 287 286 288 289 290 291 292 292 293 293 292 292
294 294 293 294 294 294 293 292 292 291 290 289 288 288 288 290 291 290 288 287 287 287 287 286 285 286 285 285 285 285 284 284 285 286 285 286 286 287 287 290 291 291 292
294 294 294 294 293 294 295 294 291 288 288 287 285 286 287 289 291 292 291 291 289 287 286 286 286 284 284 284 284 284 283 281 279 286 283 283 286 285 286 287 291 291 292
289 289 289 289 290 292 294 293 291 286 285 285 285 286 286 287 287 286 287 287 288 288 288 287 284 284 283 284 283 282 282 281 281 283 283 281 285 284 286 287 290 291 291
287 287 287 287 287 289 292 291 289 285 285 285 286 286 285 285 285 286 285 285 285 286 286 286 285 285 285 285 284 284 283 283 283 284 285 280 283 283 285 286 290 290 290
286 286 286 286 285 286 289 288 287 286 285 285 286 286 285 284 284 285 285 285 284 284 287 287 286 286 287 287 287 283 281 280 279 281 283 281 281 282 282 283 284 289 290
286 287 286 288 289 287 288 288 287 285 284 283 284 283 284 284 286 286 286 284 282 282 282 283 282 284 285 284 286 283 281 278 279 278 282 278 279 280 277 281 282 283 283

GFSMA_sfc_thetae_054.txt.gz
Theta_e
329 329 327 326 328 329 328 331 329 326 318 316 315 314 313 312 311 319 321 329 332 329 327 325 323 322 321 321 320 319 319 319 320 319 319 319 319 319 319 319 319 320 320
329 330 329 327 325 326 328 330 330 323 318 315 312 312 311 310 310 316 320 324 329 329 326 324 323 322 321 320 320 317 317 316 317 317 317 317 316 317 317 317 317 317 318
329 329 329 328 328 327 326 326 325 323 317 314 310 309 309 309 309 310 319 319 323 325 326 324 322 321 321 320 319 317 314 314 313 313 313 313 313 314 314 315 315 315 316
330 328 328 328 329 329 326 325 323 321 316 311 309 307 307 309 308 308 312 317 316 316 322 325 321 319 319 320 319 316 313 311 310 310 310 309 310 311 312 313 314 314 315
332 330 327 327 328 327 327 326 323 320 314 311 309 308 306 307 307 308 308 310 313 312 311 320 320 320 319 317 317 316 313 310 308 308 308 309 309 309 310 311 312 313 315
333 331 329 327 327 326 326 325 322 320 315 313 311 309 305 305 306 305 305 309 308 309 309 308 307 308 317 315 315 314 313 310 309 308 308 308 308 309 310 311 312 313 314
334 331 331 329 328 327 327 327 323 319 315 313 307 304 303 303 302 304 305 305 306 307 305 304 303 302 305 314 313 312 311 310 309 308 308 308 308 309 310 311 312 313 315
336 333 331 331 329 327 325 326 325 321 315 314 305 301 298 300 301 302 302 304 304 305 305 303 302 301 300 300 302 310 309 309 309 307 307 308 309 309 311 313 313 314 315
334 336 335 332 327 327 325 325 326 321 317 312 309 305 302 300 298 300 300 301 302 301 302 302 301 301 299 299 304 305 306 306 306 307 308 308 308 309 310 311 312 313 314
333 333 332 332 334 332 329 327 325 323 317 312 309 310 309 305 299 294 297 298 300 301 301 300 300 300 299 298 302 302 304 304 306 307 307 307 307 308 309 310 312 313 313
331 331 331 331 330 332 330 329 326 326 323 317 312 307 308 302 298 297 292 295 297 299 299 301 300 299 298 297 297 302 304 305 305 305 306 305 306 307 308 309 310 311 311
324 328 328 329 329 329 329 328 329 325 325 321 315 311 308 308 302 297 298 296 296 297 299 299 298 297 295 296 299 303 304 303 303 303 303 303 304 305 306 307 307 308 308
321 324 325 326 327 328 328 328 326 326 324 320 318 312 311 310 310 306 305 298 295 292 295 293 294 295 295 295 298 301 301 300 298 298 300 302 303 303 303 304 305 306 306
313 320 323 323 324 325 324 325 325 325 324 322 319 318 312 311 310 307 305 300 293 289 290 291 292 293 293 294 297 298 295 297 296 297 298 300 300 301 301 301 302 302 302
314 314 315 318 322 324 324 323 323 322 322 319 318 316 315 307 301 302 302 301 300 293 290 288 288 290 291 292 295 291 291 294 295 296 298 299 300 300 299 299 299 299 300
311 311 312 313 316 319 320 320 319 318 317 314 314 312 307 300 298 298 297 296 297 296 288 288 287 288 290 291 293 292 291 293 294 296 298 299 299 298 297 297 298 298 298
307 308 309 309 310 314 314 314 313 312 311 307 305 303 297 296 294 293 294 293 293 293 290 286 287 287 287 288 290 290 290 290 291 295 296 297 296 296 296 296 296 297 297
300 302 304 303 303 302 301 302 302 301 300 296 295 294 292 293 291 293 293 291 291 291 290 286 286 285 286 287 288 288 289 291 290 292 294 295 294 295 295 295 295 295 295
296 296 297 297 296 296 296 295 295 294 294 293 293 293 291 291 290 290 289 288 288 288 288 287 285 286 287 287 286 287 287 288 289 291 293 293 293 293 293 294 294 295 295
294 294 294 294 294 294 294 293 293 292 292 291 291 291 291 290 289 287 287 286 287 286 287 286 286 286 287 286 284 284 284 285 284 287 288 290 291 292 292 293 293 293 293
294 294 294 294 294 294 293 292 291 290 289 288 289 289 289 291 291 290 288 287 287 286 286 284 283 283 284 284 283 284 281 282 281 282 281 281 282 282 284 289 290 291 291
290 291 291 291 292 293 295 293 290 287 287 286 285 286 287 290 292 293 292 291 289 286 285 285 283 281 280 281 281 281 279 278 275 282 280 280 282 282 282 283 289 291 292
289 288 288 289 290 291 294 293 290 286 285 285 285 286 286 287 287 286 288 288 288 289 288 285 281 281 280 281 279 278 278 277 276 280 280 279 281 281 282 285 290 291 291
287 287 286 287 288 290 292 291 289 285 285 285 285 285 285 284 285 285 283 283 282 283 284 285 282 282 282 282 281 278 277 278 280 280 281 276 279 280 282 282 289 290 290
286 285 286 284 283 284 289 289 286 283 282 282 284 283 282 281 285 286 284 282 281 281 287 287 286 287 287 287 286 280 275 273 274 277 279 277 277 277 280 281 282 288 289
285 286 285 279 287 282 289 289 285 281 279 280 279 280 285 284 286 287 282 279 278 278 278 279 279 281 282 281 286 281 276 269 270 274 278 273 274 275 274 277 278 280 281

GFSMA_sfc_thetae_057.txt.gz
Theta_e
324 326 326 325 326 327 328 328 326 323 318 315 313 312 312 312 311 322 325 330 333 331 329 328 326 325 324 323 322 321 321 321 321 320 321 321 320 320 320 321 321 321 321
328 326 324 324 325 326 327 329 328 326 320 315 313 311 310 309 308 320 320 326 331 331 328 327 326 325 324 323 322 320 320 320 319 319 319 318 318 318 318 318 318 318 319
327 328 326 324 324 324 327 325 327 324 317 315 311 309 308 308 307 318 319 321 325 327 329 326 326 324 324 323 323 319 318 317 317 316 316 316 316 316 316 316 316 316 317
327 326 326 326 327 325 324 322 322 320 315 312 308 307 306 307 307 309 317 318 318 319 325 327 326 323 324 323 323 320 317 316 314 314 313 313 313 313 314 314 314 314 314
329 327 326 326 326 326 324 323 321 320 314 310 308 307 305 305 306 307 310 315 315 315 314 323 325 323 324 322 322 321 317 315 313 313 312 312 311 312 312 312 313 313 314
331 328 327 326 326 324 324 323 321 318 315 312 310 308 305 304 305 305 304 312 315 313 311 312 314 314 321 322 321 321 317 315 312 311 311 311 311 311 311 311 312 312 313
332 329 329 327 325 325 325 324 322 319 314 311 307 304 302 302 302 304 304 304 308 311 310 310 309 306 311 321 320 319 317 316 313 312 311 311 311 311 311 312 312 313 313
332 331 328 327 325 324 322 323 323 318 318 313 307 301 298 299 301 301 302 304 304 306 308 308 306 303 303 306 307 318 316 315 314 313 311 311 311 311 312 312 313 313 313
332 333 331 329 328 324 324 322 323 321 319 314 310 305 298 297 297 299 301 302 303 303 305 305 304 303 301 301 306 311 315 313 312 313 311 311 311 312 312 312 312 312 313
331 331 331 330 327 327 326 325 323 321 316 314 311 310 308 304 298 296 297 299 301 302 303 302 302 301 301 300 304 307 311 309 309 310 312 312 311 311 311 311 311 312 312
330 330 330 327 326 325 326 325 325 324 323 322 314 310 308 306 303 298 295 297 299 301 303 304 301 300 298 299 300 304 308 307 307 309 311 311 310 309 309 310 311 311 310
318 324 327 328 327 325 327 327 326 324 324 323 320 316 311 309 308 299 297 297 299 302 302 301 300 299 298 298 301 305 306 306 307 308 308 308 307 307 308 308 309 308 308
310 313 321 325 322 323 324 325 324 325 323 322 321 315 315 312 312 308 304 299 298 297 296 295 295 296 297 298 300 304 305 305 304 304 303 304 305 305 305 306 306 307 307
309 311 312 313 318 321 321 323 324 324 324 321 319 318 315 313 311 310 306 303 295 292 292 293 293 294 295 297 301 302 300 301 300 300 301 302 303 303 303 304 305 305 304
310 309 309 310 311 317 318 318 318 321 321 321 319 319 317 313 310 310 307 306 305 300 291 290 291 292 293 296 299 294 294 300 300 299 300 300 301 301 302 303 302 302 301
305 305 306 306 308 311 312 314 316 317 316 316 313 314 310 304 302 302 300 299 299 302 296 289 289 289 292 294 296 292 293 296 298 299 299 299 299 301 302 300 300 299 299
298 299 301 301 301 301 301 304 306 307 309 306 302 301 296 297 295 297 296 295 295 296 292 287 288 288 288 290 292 291 292 291 292 296 297 299 300 300 299 297 297 298 298
294 295 295 296 295 297 296 297 298 298 298 296 295 295 294 294 293 294 294 293 293 292 291 287 286 285 285 287 289 288 290 291 291 294 297 298 297 296 296 296 296 295 295
293 293 294 294 294 295 294 294 294 294 293 293 294 293 293 293 292 291 290 289 289 289 288 287 285 286 286 287 287 288 288 289 290 292 294 294 294 294 294 294 294 294 295
294 294 294 294 294 293 293 293 292 291 291 291 291 291 291 290 289 288 287 287 288 287 287 287 286 286 286 287 287 285 284 287 285 287 288 290 291 291 292 292 292 292 292
293 293 293 293 293 293 292 290 290 289 289 288 289 290 291 292 292 291 289 288 288 287 286 285 285 285 285 284 284 284 282 280 280 281 280 281 282 282 283 288 289 290 291
290 290 291 291 292 293 294 293 289 288 287 287 286 287 288 289 291 294 293 292 290 287 285 285 284 283 282 280 280 280 278 278 275 280 279 279 281 281 282 282 288 290 291
287 287 289 290 291 292 294 293 290 286 285 285 285 285 285 286 286 286 288 288 288 289 288 284 281 280 279 280 278 277 278 277 276 279 279 278 280 279 281 284 289 290 291
286 286 286 287 289 290 291 291 289 281 281 282 282 283 282 282 284 284 283 283 282 282 283 284 281 280 280 280 280 278 276 276 278 279 279 272 278 278 280 280 288 289 289
285 282 281 278 278 281 289 288 284 280 279 279 280 281 280 280 287 288 281 280 280 280 286 287 287 287 287 287 285 279 274 272 273 277 279 276 276 276 278 278 280 287 288
285 284 279 276 287 281 289 288 282 278 276 278 277 279 285 284 287 287 280 278 277 277 278 279 278 280 281 280 285 280 276 267 268 270 277 272 273 274 273 276 277 280 279

GFSMA_sfc_thetae_060.txt.gz
Theta_e
322 325 325 326 325 326 328 326 324 323 318 314 314 315 312 311 313 323 325 330 334 334 332 330 328 326 325 324 323 322 323 322 322 322 322 322 322 322 322 322 322 322 322
324 325 325 325 325 326 327 327 327 325 322 316 313 311 310 310 308 320 323 325 332 333 332 330 328 327 326 325 324 322 322 322 321 321 321 320 320 320 320 320 320 320 320
325 325 324 324 324 324 325 326 326 325 323 320 313 312 310 308 307 317 320 322 326 329 331 330 328 327 326 325 325 322 321 321 321 320 319 318 318 318 318 318 318 318 318
326 326 325 324 324 322 324 323 325 323 321 318 315 310 308 307 306 310 317 320 320 322 327 330 328 327 326 325 325 323 321 319 319 318 317 317 317 317 317 316 316 316 316
327 327 327 327 325 324 322 322 320 320 318 314 311 308 306 305 306 306 314 316 317 319 317 324 327 327 327 325 325 325 321 318 317 316 315 315 314 314 315 315 315 315 316
329 326 325 325 325 324 323 320 320 318 317 317 314 310 306 304 304 304 304 316 316 316 314 314 319 319 324 326 324 325 323 319 316 315 314 314 313 313 314 314 314 315 315
331 328 326 325 324 323 324 323 321 318 318 312 311 306 303 303 302 303 303 305 313 314 312 312 313 311 315 324 325 324 323 320 317 314 313 314 313 313 313 313 314 314 315
332 331 327 326 324 323 322 321 320 317 317 313 310 304 305 304 301 303 302 303 304 312 312 311 310 308 307 310 313 323 322 321 319 315 314 313 313 313 313 314 314 315 315
330 329 330 328 325 323 323 320 320 318 320 312 310 312 299 300 298 299 300 302 303 303 308 311 309 308 304 305 311 315 319 320 318 317 316 313 313 313 314 314 314 314 314
327 329 328 328 328 325 323 323 322 320 318 319 311 313 308 304 299 299 297 297 299 301 302 304 307 307 306 304 306 309 314 317 316 315 315 313 314 313 314 313 313 313 313
316 324 327 326 324 326 325 324 322 319 320 321 315 310 312 309 306 302 304 299 302 303 306 305 304 304 304 304 302 306 313 313 314 313 312 312 313 313 312 312 312 313 312
311 312 316 322 324 323 322 322 322 321 321 321 322 319 316 310 310 306 301 301 299 303 305 305 304 302 303 302 303 306 310 311 310 309 308 311 313 312 310 310 310 311 310
307 308 310 311 314 319 321 321 320 318 318 318 318 320 319 316 316 312 309 308 299 298 300 297 297 298 300 300 301 304 307 308 308 309 310 312 308 306 306 306 308 310 310
306 307 307 308 310 314 316 317 317 317 318 317 317 319 318 316 315 313 311 308 297 295 293 296 294 296 298 299 302 304 304 307 307 308 308 307 306 306 305 305 306 307 308
305 305 305 305 306 308 311 316 316 317 314 314 316 317 317 317 312 311 310 307 305 299 293 292 292 293 294 298 302 300 301 305 305 305 305 305 305 304 304 303 304 305 305
298 300 301 301 301 300 302 304 305 305 309 309 309 310 307 303 301 300 299 300 301 299 296 291 290 290 293 296 299 295 296 301 304 304 303 302 302 302 302 302 304 303 303
294 295 296 295 295 295 296 297 298 298 300 300 299 298 296 297 296 297 297 297 297 297 294 289 289 289 289 291 293 292 294 293 294 299 301 301 301 300 301 302 301 300 300
293 293 293 293 293 293 293 293 293 294 294 295 295 295 293 295 294 294 294 293 294 292 291 289 286 286 286 288 289 289 291 292 291 293 296 297 299 300 298 298 297 298 297
292 292 293 292 292 293 293 294 293 292 292 292 292 292 292 292 291 290 290 289 289 290 289 288 285 286 286 287 287 288 288 289 291 293 295 295 296 296 296 295 295 295 295
292 293 293 293 293 292 291 291 291 291 291 291 291 291 290 290 289 288 288 287 288 288 288 287 286 286 287 287 287 286 286 288 287 288 290 290 291 291 292 293 293 293 293
292 292 292 292 292 292 291 287 289 289 289 289 289 290 292 293 294 292 289 288 288 287 286 286 285 285 285 285 284 285 284 282 280 281 280 281 281 281 282 287 288 290 291
290 291 291 292 292 293 295 293 289 287 287 287 286 286 287 288 288 294 294 293 290 286 285 285 284 283 281 279 279 280 277 276 274 279 279 279 280 279 280 281 288 290 291
288 288 289 291 290 292 294 292 289 285 284 283 283 281 284 286 286 285 287 287 287 289 289 283 281 279 278 279 275 276 277 275 275 278 278 276 279 279 280 283 288 290 291
286 287 285 284 283 287 290 289 287 276 275 275 277 279 279 279 282 282 281 280 280 280 282 283 280 279 279 280 280 277 275 276 278 279 278 271 277 278 279 279 287 288 290
280 277 277 277 278 281 289 288 282 278 278 277 279 280 280 280 287 288 281 279 279 279 284 287 286 286 287 287 284 278 274 271 272 276 278 276 275 276 277 278 280 286 288
279 278 278 275 286 280 289 287 281 278 276 278 277 278 285 284 287 286 280 278 277 277 278 279 278 279 279 279 284 280 275 267 267 269 277 272 273 274 271 276 277 279 279

GFSMA_sfc_thetae_063.txt.gz
Theta_e
320 322 323 324 325 325 326 326 325 323 320 316 315 315 316 313 312 321 324 329 335 337 334 334 331 328 326 325 323 323 323 322 322 322 323 323 323 323 323 323 323 323 323
322 322 323 324 324 324 325 326 325 323 322 319 315 313 313 313 311 317 322 324 332 335 335 333 331 329 327 326 325 323 323 322 321 322 321 321 321 321 321 321 321 321 321
323 323 323 323 324 323 324 324 324 324 322 321 317 314 311 310 308 309 319 321 324 330 333 332 331 330 328 327 326 324 323 323 322 321 320 320 319 319 319 319 319 319 319
326 323 323 323 324 322 322 322 323 322 322 321 319 316 311 308 307 306 315 319 321 323 328 333 333 330 329 328 327 326 323 322 321 321 319 319 318 318 318 317 317 317 317
329 326 324 324 323 322 321 322 320 321 319 320 318 318 313 308 307 307 309 315 318 321 319 325 329 329 330 328 328 327 325 322 321 319 319 318 317 317 317 317 316 316 316
328 326 326 325 324 323 320 318 320 317 320 320 319 317 311 309 304 304 304 313 316 318 317 316 318 321 326 329 327 327 327 323 320 318 317 316 316 316 315 315 315 315 316
329 326 325 324 324 323 323 322 319 317 316 312 310 308 306 304 304 304 304 306 312 317 317 316 315 316 318 326 327 327 326 326 322 319 317 316 315 315 315 315 315 315 316
332 330 327 326 324 322 321 321 319 317 316 312 311 304 311 311 302 305 303 304 304 311 314 316 314 313 313 315 317 325 326 325 324 320 317 315 315 315 315 315 315 316 316
329 329 329 328 326 322 322 321 319 318 319 312 312 317 306 304 301 302 300 302 303 301 308 311 312 312 311 311 314 318 322 324 324 323 319 316 315 315 315 315 316 316 315
316 322 325 325 325 324 321 321 320 319 317 317 309 312 312 308 306 306 300 298 302 300 302 305 310 311 310 309 311 314 317 321 321 322 321 319 316 315 315 315 315 314 313
312 313 315 321 322 323 323 322 320 317 318 317 313 313 312 312 306 303 307 308 301 301 303 304 305 308 309 309 307 310 316 318 319 320 319 318 316 316 314 313 313 314 313
308 309 311 311 315 322 322 320 320 318 317 317 317 317 315 312 308 307 304 306 304 305 303 305 305 303 304 305 307 308 312 314 315 316 318 314 313 314 313 313 313 313 312
305 305 306 307 309 312 316 317 317 316 315 317 316 318 315 317 315 313 310 308 303 300 300 300 298 299 301 302 303 306 310 312 313 314 314 314 314 311 312 311 311 309 309
303 303 304 305 306 308 315 317 315 314 314 314 314 312 316 315 315 312 312 308 301 297 295 298 293 296 296 298 301 306 305 310 310 312 314 315 313 310 309 308 308 308 309
301 301 301 301 301 301 304 309 310 310 312 312 311 311 311 309 309 309 310 309 307 299 296 295 291 291 293 298 301 303 303 308 310 310 310 310 309 308 308 307 306 306 306
295 296 296 296 296 297 298 299 299 300 304 302 301 303 301 300 300 299 300 301 302 302 297 294 289 291 292 297 301 298 300 305 308 309 308 307 307 305 304 304 304 304 305
293 293 293 293 293 293 294 294 295 295 296 297 298 297 296 296 296 296 297 297 297 296 294 291 289 289 290 292 292 294 295 294 296 301 303 303 303 302 302 302 302 304 302
292 292 292 292 292 292 292 291 291 292 291 291 294 294 293 295 293 294 293 293 293 292 291 290 287 286 287 289 290 291 292 294 292 294 296 299 299 299 300 301 300 299 299
291 292 292 291 290 291 290 291 291 292 292 292 292 291 291 292 290 290 290 290 289 290 289 288 286 287 287 288 288 289 289 289 292 293 295 297 298 298 298 298 298 297 296
292 291 292 292 292 289 289 289 289 290 291 291 292 292 291 290 289 287 286 287 288 287 288 287 286 286 287 287 288 287 286 289 288 290 291 291 291 291 292 293 293 293 294
292 293 293 293 293 292 291 288 289 289 289 288 288 289 290 294 295 293 289 287 288 287 287 286 285 285 286 285 285 286 284 281 281 281 281 281 281 281 281 287 288 290 291
290 291 291 292 292 293 294 291 288 286 286 285 283 283 286 287 288 292 291 292 290 286 284 279 278 280 279 278 278 279 276 275 274 279 278 279 280 279 280 280 287 289 291
289 288 288 288 288 290 292 291 288 282 279 277 277 278 281 283 283 281 285 287 286 289 288 280 278 277 277 278 274 274 277 274 274 278 278 276 278 278 279 282 288 289 291
286 284 281 281 281 286 289 289 286 275 274 274 276 278 278 279 282 282 280 280 280 280 281 282 279 279 279 279 279 276 274 275 278 278 278 271 276 277 279 279 286 288 290
279 276 276 276 277 280 288 287 281 277 277 277 278 278 280 280 287 287 280 279 278 279 283 286 286 286 287 287 284 278 274 271 272 276 278 275 275 275 277 277 279 286 288
275 276 277 274 285 280 288 287 282 279 276 278 277 279 285 284 287 286 279 278 276 277 278 278 278 278 279 279 284 279 275 266 267 269 276 271 272 273 271 276 276 278 279

GFSMA_sfc_thetae_066.txt.gz
Theta_e
320 320 321 321 323 324 325 324 325 324 321 319 316 315 314 313 311 317 322 327 334 338 336 335 334 330 327 326 325 323 323 323 322 322 323 323 323 323 323 323 323 323 324
321 320 321 322 322 323 323 324 324 323 322 320 319 316 312 311 311 310 318 322 331 335 337 335 334 333 330 328 327 324 324 323 322 322 323 323 322 322 322 322 322 321 322
323 321 321 322 323 323 323 322 323 323 321 321 320 320 316 312 310 309 311 319 323 330 334 335 334 333 331 329 328 327 324 323 323 322 322 322 321 321 321 320 321 321 320
326 322 321 321 323 322 322 321 321 320 321 320 320 320 318 313 310 308 308 315 319 323 328 333 335 334 332 331 330 328 326 323 323 322 322 321 320 320 320 319 319 318 319
328 325 323 323 322 321 320 320 319 320 318 318 319 320 318 315 313 311 306 309 315 320 321 325 330 331 332 332 330 329 328 325 323 322 321 320 320 319 319 319 318 318 317
329 325 325 323 322 320 319 318 319 318 319 319 319 319 315 314 312 308 310 307 312 316 319 319 320 324 327 331 330 330 329 327 324 322 321 320 319 318 318 318 318 318 318
327 325 325 326 325 322 323 321 318 316 315 314 311 311 309 309 307 308 306 305 307 313 315 317 317 316 318 328 330 330 328 328 327 323 320 319 318 318 317 318 317 317 317
330 329 325 324 323 322 321 320 319 316 315 312 315 309 313 312 305 305 304 304 304 305 312 314 314 313 313 314 319 327 329 327 328 327 323 320 318 318 317 317 317 318 317
325 327 327 327 326 323 322 320 318 317 317 312 312 316 310 307 305 308 305 304 302 301 303 309 311 313 311 313 316 320 324 327 326 327 326 321 318 318 317 317 317 318 318
310 314 317 321 323 323 322 321 320 318 316 317 309 312 310 310 308 308 306 304 302 301 302 304 310 312 313 313 314 315 318 323 325 324 326 324 320 318 318 318 317 318 316
309 310 311 311 318 321 323 322 319 317 315 316 312 309 310 310 308 307 308 309 304 303 301 304 303 308 308 309 310 310 316 319 322 324 325 324 323 321 318 318 316 315 315
306 306 307 307 309 311 318 322 323 320 316 316 316 317 315 312 309 306 304 305 306 308 302 303 303 305 302 303 307 310 313 316 320 322 323 323 321 315 317 318 317 316 314
303 303 304 304 306 308 316 316 317 318 319 318 317 317 318 317 316 313 310 309 306 303 300 298 298 296 298 297 300 308 310 313 317 321 323 323 317 315 316 316 317 317 316
300 301 301 302 301 303 306 314 318 317 318 316 315 315 315 315 314 313 311 308 304 299 297 297 292 292 293 295 299 304 303 309 313 317 319 319 316 314 313 314 314 314 312
298 297 297 297 297 298 301 305 306 308 309 307 307 308 309 306 304 305 306 308 306 301 298 294 293 290 291 295 298 299 300 305 309 314 314 314 313 313 313 312 311 310 308
293 294 294 294 294 295 296 297 297 298 301 301 302 301 299 300 299 297 299 301 301 300 298 294 292 291 292 296 299 298 300 303 306 310 311 311 308 308 307 306 306 306 306
292 292 292 292 292 292 292 293 293 294 298 297 297 297 296 297 295 296 297 297 296 296 294 292 289 289 290 292 292 294 295 295 296 302 304 305 305 304 303 304 304 304 304
291 291 291 291 291 291 290 290 290 290 290 290 291 291 293 294 293 293 293 293 293 292 292 290 287 286 286 289 290 291 292 293 293 296 298 299 299 300 300 301 301 302 301
290 290 290 290 289 289 289 289 289 290 292 292 292 291 291 290 289 290 290 289 289 289 289 289 286 287 286 288 288 289 290 290 292 294 295 297 298 299 299 299 299 299 299
292 293 293 293 291 288 288 289 291 290 290 290 291 292 292 290 288 287 286 284 285 284 288 287 287 287 287 288 288 287 287 289 288 290 291 292 292 292 292 293 294 294 294
292 293 293 293 293 292 290 289 289 289 288 287 287 288 289 292 295 293 287 285 284 283 283 286 285 285 284 284 284 285 284 283 283 282 282 282 281 281 282 286 287 290 291
291 291 291 292 292 292 292 291 288 284 282 280 280 280 284 285 286 290 290 290 289 282 280 276 274 278 277 277 278 278 275 275 274 278 278 279 280 280 280 280 286 289 290
288 286 285 286 285 287 291 289 286 278 276 274 274 276 281 283 283 281 285 286 286 288 287 279 278 277 277 278 274 274 276 273 274 277 278 276 278 277 279 281 287 289 290
283 281 281 281 282 286 289 288 284 272 272 273 275 278 279 280 283 281 280 279 279 279 281 282 279 279 279 279 279 276 274 275 277 278 278 270 276 277 278 279 285 288 289
279 276 277 276 277 280 288 286 281 277 277 277 278 279 280 280 287 287 280 279 278 279 283 286 286 286 286 286 284 278 274 271 272 275 277 275 274 275 277 277 279 286 289
278 276 278 274 285 279 288 288 282 279 276 279 277 279 285 284 287 287 279 278 276 276 278 278 277 278 278 279 284 279 274 266 267 269 275 271 272 273 271 275 276 278 279

GFSMA_sfc_thetae_069.txt.gz
Theta_e
330 331 331 331 331 334 335 335 335 334 334 332 330 326 324 324 323 322 326 327 332 338 339 337 336 334 331 328 326 324 323 323 322 322 322 322 323 323 324 324 324 324 325
331 328 327 328 329 331 332 332 332 332 332 332 331 330 328 325 322 321 322 326 329 333 337 338 336 335 334 331 329 326 324 324 323 323 323 323 322 322 322 322 322 322 322
332 330 329 328 330 331 330 331 331 331 331 331 330 331 330 329 327 324 321 321 324 326 332 337 337 335 335 333 331 329 326 325 324 323 323 323 322 322 322 321 321 321 321
334 332 330 330 330 330 330 330 330 329 329 329 329 329 329 330 329 327 323 320 321 323 327 332 336 336 335 334 332 331 329 326 324 323 323 322 322 322 321 321 320 320 320
335 333 332 332 331 330 329 328 328 328 327 328 327 328 328 328 328 327 326 324 322 321 324 326 329 332 334 335 333 332 330 329 326 324 323 322 322 321 321 321 320 320 319
336 335 334 333 331 330 329 328 327 327 327 327 325 324 327 327 327 326 325 325 322 321 322 323 325 327 328 332 333 332 331 330 328 326 324 323 322 321 321 321 320 320 319
333 333 333 333 331 328 330 329 328 325 325 325 322 324 323 324 323 323 324 322 320 318 319 320 322 324 325 328 331 332 331 330 330 328 325 324 322 321 320 320 320 319 320
335 334 332 331 330 329 328 328 327 326 325 323 324 319 318 321 320 319 318 317 317 315 315 317 319 320 322 323 325 328 331 330 330 330 328 324 323 321 320 319 319 319 319
320 327 330 332 332 329 328 329 327 325 324 323 322 322 314 313 313 318 316 315 314 313 312 313 316 318 319 320 320 321 324 328 329 329 329 328 324 322 321 320 319 319 319
315 316 317 319 324 327 328 327 326 324 323 322 318 318 320 317 313 311 316 314 313 312 312 312 312 315 317 317 317 317 318 322 326 328 328 328 328 323 321 320 320 319 319
312 312 313 314 316 320 322 322 325 323 322 323 320 319 318 317 315 311 309 312 313 316 316 314 312 311 313 314 315 315 315 318 321 325 328 328 326 326 322 321 319 319 320
310 308 309 311 313 314 316 319 321 323 322 321 322 320 318 316 314 311 308 309 310 313 314 314 312 310 308 308 307 309 311 313 316 320 325 327 326 326 325 323 320 320 319
307 305 306 307 308 309 313 317 320 321 321 320 320 320 320 319 318 315 313 311 310 309 310 307 303 302 302 304 305 304 307 310 312 316 320 324 324 323 320 322 321 320 318
302 302 303 303 303 305 308 313 316 316 317 316 315 316 317 315 315 315 313 309 305 304 303 304 300 300 301 302 303 304 306 307 309 312 315 317 319 321 319 319 318 316 315
300 299 300 300 300 301 303 306 308 310 308 308 307 308 308 306 305 305 307 310 308 301 300 303 298 297 299 301 303 303 303 305 307 308 310 313 312 314 315 315 314 313 312
297 297 297 297 298 298 300 301 302 303 304 303 304 303 302 302 302 302 304 305 305 303 301 298 295 293 296 298 299 299 299 301 304 310 311 310 308 307 307 309 309 308 306
295 295 295 295 295 295 297 298 298 300 300 299 299 299 297 298 298 299 300 299 298 298 298 293 292 292 293 295 296 296 296 296 296 303 305 306 306 305 305 304 304 304 303
294 294 294 293 293 294 294 295 295 295 295 295 295 295 295 295 295 295 295 293 293 294 295 294 290 290 290 292 293 294 293 294 294 298 301 301 301 302 301 302 301 301 302
293 294 293 292 292 292 293 293 294 294 294 294 294 293 292 293 292 292 291 291 292 293 294 293 290 292 291 292 292 293 292 292 293 295 296 296 297 298 299 299 299 300 300
294 294 294 293 291 291 292 292 292 292 292 291 292 293 292 291 291 290 290 290 290 292 292 292 291 290 290 290 289 288 290 290 288 288 289 291 292 292 293 294 294 293 294
293 294 294 293 293 292 291 291 290 290 290 289 288 289 290 293 293 293 291 290 289 288 289 289 288 289 287 287 286 287 287 286 287 285 286 287 288 288 289 288 288 288 290
292 292 292 293 292 292 293 292 288 286 285 285 284 285 287 286 287 290 289 289 290 286 285 286 285 284 283 284 285 284 284 284 283 285 285 286 286 286 287 287 286 288 290
289 288 289 289 289 290 290 289 286 283 282 282 282 285 285 286 285 284 286 286 287 288 287 285 283 283 282 283 283 283 283 283 283 284 284 283 284 283 286 286 287 288 290
286 286 285 286 287 289 288 287 285 282 281 281 283 284 285 285 286 284 284 283 283 284 286 285 285 284 285 285 285 284 283 283 283 284 284 280 283 283 285 286 285 288 289
284 283 283 283 284 287 287 286 282 281 281 281 282 284 285 285 287 287 283 281 280 281 284 285 285 285 285 285 286 285 283 282 280 281 283 281 282 281 283 283 285 287 289
282 283 282 282 286 284 288 287 283 282 281 282 282 282 285 286 287 286 283 281 279 281 282 282 281 281 281 282 284 284 283 280 280 280 282 281 281 281 280 283 284 285 286

GFSMA_sfc_thetae_072.txt.gz
Theta_e
336 335 333 332 332 333 335 336 335 333 332 332 332 332 331 330 329 328 328 328 330 335 339 339 337 337 335 331 329 327 324 323 323 323 322 323 323 323 323 324 324 324 324
338 336 335 330 331 332 335 336 336 335 335 334 333 333 333 333 332 331 329 328 329 331 335 338 338 337 336 335 332 329 326 325 324 324 323 324 323 323 323 323 322 322 322
340 337 336 335 332 335 334 335 335 335 335 335 335 335 335 335 335 334 333 330 329 326 329 333 337 338 336 336 334 331 329 327 326 324 324 324 323 323 323 323 322 322 322
341 339 337 337 338 336 336 335 335 334 334 334 334 335 335 335 335 335 335 333 331 329 329 329 333 336 337 336 336 334 331 329 327 325 324 323 323 323 323 322 322 322 321
342 340 338 338 339 338 337 336 335 335 334 334 334 334 334 335 335 334 334 334 334 331 331 329 329 331 335 336 335 335 334 332 329 327 325 324 323 323 323 322 322 321 321
342 340 339 339 339 337 337 337 336 337 335 334 331 330 333 334 334 333 333 333 333 332 330 330 330 329 327 332 334 334 334 333 331 329 327 325 324 323 323 323 322 321 321
339 338 338 339 339 337 337 337 336 334 333 334 330 330 332 332 331 331 331 331 330 328 327 326 327 327 327 328 330 333 333 333 332 331 329 327 326 325 323 322 322 322 321
340 340 340 339 339 337 337 336 335 332 332 334 328 326 321 322 326 327 328 327 327 326 323 323 324 324 324 325 324 327 330 332 332 332 331 329 327 326 325 323 322 322 321
325 329 332 333 334 334 332 333 333 329 326 330 328 326 320 315 320 324 324 324 323 323 321 320 320 321 321 322 321 321 322 324 328 331 331 330 330 328 326 324 322 321 321
319 319 320 322 325 329 329 330 332 330 328 325 325 324 326 323 317 315 321 323 321 322 323 323 320 319 319 320 319 317 318 318 321 325 329 330 330 330 328 325 323 321 321
316 316 317 319 320 322 324 324 324 324 326 325 324 323 323 322 320 315 311 316 322 321 321 321 320 319 317 316 316 315 312 314 318 321 324 326 328 330 329 326 324 322 321
316 313 313 315 316 317 319 320 320 322 322 323 325 323 322 318 318 315 311 313 314 316 317 319 316 313 312 311 310 307 308 310 314 317 321 324 325 327 329 327 325 323 322
313 312 311 312 312 313 315 318 319 320 322 322 323 322 322 320 320 316 314 313 312 314 314 311 310 309 308 310 309 305 308 308 310 313 317 320 321 321 323 323 325 324 321
309 307 308 308 308 309 311 315 318 320 319 317 317 317 317 314 316 317 316 312 308 308 310 312 307 306 307 306 306 305 308 306 308 310 312 314 315 316 318 320 323 323 321
304 305 305 305 306 306 308 311 314 315 314 311 310 310 309 308 309 310 311 313 309 304 305 307 305 302 302 304 301 304 303 304 307 310 310 311 311 312 314 318 319 318 315
302 303 303 303 303 304 305 307 309 310 310 309 307 307 308 308 308 308 308 308 308 306 303 303 298 297 298 301 300 301 301 300 302 306 310 308 308 308 309 310 312 312 310
301 300 300 301 301 301 303 305 305 305 305 304 304 304 302 304 304 304 305 304 304 302 302 296 296 295 297 299 299 300 299 298 299 302 304 305 306 306 306 306 306 306 306
300 299 299 299 299 299 300 301 300 301 301 300 300 300 299 300 299 300 300 298 297 297 298 298 294 294 294 297 297 297 297 297 297 298 300 301 302 302 302 303 303 303 303
298 298 298 297 297 297 298 299 299 299 299 298 298 297 296 297 296 296 296 297 298 298 299 299 295 296 295 295 295 296 295 296 296 293 295 295 297 298 299 300 300 300 300
297 297 297 296 295 295 296 296 296 296 295 295 295 295 294 294 295 294 294 294 295 297 297 297 294 292 293 293 292 292 295 295 292 292 291 290 291 292 293 294 294 294 295
295 296 295 295 295 295 294 294 294 295 295 293 293 293 293 293 293 293 294 293 292 292 293 293 293 293 291 291 289 290 289 290 291 290 290 291 291 292 292 290 289 288 290
294 295 294 294 294 293 293 292 293 292 291 290 289 289 290 288 289 290 290 290 290 289 288 288 288 287 287 287 288 286 286 285 286 289 287 288 289 288 289 290 288 288 289
292 292 293 293 293 292 291 289 288 287 287 287 287 288 288 288 288 287 286 287 288 288 287 287 286 285 285 285 285 285 285 285 285 287 285 285 287 285 288 288 287 288 289
290 291 290 290 290 289 288 287 286 287 286 286 287 287 288 288 289 287 286 285 285 287 288 287 287 287 288 288 287 286 286 285 286 286 286 283 286 285 288 289 286 287 288
289 288 288 289 289 288 288 286 285 285 285 284 286 287 288 287 288 286 285 284 283 284 285 285 285 285 285 285 286 287 285 283 282 283 285 283 285 284 286 286 287 287 289
287 288 287 288 288 288 288 286 285 285 284 284 285 285 286 287 287 286 286 284 282 284 284 284 284 283 283 284 284 285 285 282 282 283 284 282 283 283 283 287 287 287 288

GFSMA_sfc_thetae_075.txt.gz
Theta_e
334 334 332 330 330 330 332 333 334 332 331 330 331 331 330 330 330 330 330 329 331 333 336 339 338 338 337 334 330 328 326 324 324 323 323 323 323 323 323 324 324 323 324
337 335 335 331 329 331 334 335 335 335 334 334 333 333 333 333 333 333 332 332 330 332 333 336 338 338 337 337 336 331 329 326 325 324 324 324 324 323 323 323 323 323 322
340 337 336 336 332 334 334 334 335 335 335 335 334 335 335 335 335 334 335 335 333 328 331 332 335 337 337 337 336 335 332 330 328 326 325 324 324 324 323 323 322 322 322
340 340 338 338 339 337 337 336 336 335 335 335 334 335 335 336 335 335 336 336 335 332 330 332 332 333 336 337 337 336 335 333 330 328 327 325 324 324 324 323 323 322 322
342 340 339 338 339 339 338 337 336 336 335 334 333 335 335 335 335 334 334 335 335 335 334 332 329 330 332 335 336 336 336 335 333 330 329 327 325 324 323 323 323 323 322
343 342 340 339 339 338 337 338 336 337 336 335 333 332 334 334 335 334 333 332 332 334 334 332 332 328 326 330 332 334 335 335 334 333 330 329 327 326 325 324 323 323 322
342 341 340 339 340 338 338 338 337 335 334 336 331 331 332 334 332 331 331 330 330 331 330 327 328 328 328 329 331 331 332 334 333 333 332 331 329 327 326 325 324 323 323
341 339 338 338 338 337 336 336 335 332 332 334 327 326 321 323 325 328 329 328 327 328 325 325 323 324 325 325 324 324 325 328 331 333 332 331 331 330 329 328 326 324 323
330 331 331 331 333 334 332 332 331 330 327 330 332 326 319 315 320 325 325 325 325 325 324 324 322 322 321 322 323 321 319 319 322 326 328 330 330 331 332 330 328 326 324
320 320 321 322 324 328 329 330 330 330 329 325 329 329 329 325 318 314 322 323 323 321 323 323 322 321 319 319 319 312 313 314 319 322 324 325 328 329 330 331 330 327 324
317 317 317 318 319 321 322 323 324 324 324 322 321 323 324 324 322 316 313 316 322 322 322 320 320 318 316 315 312 309 310 312 316 319 322 324 326 327 329 328 329 326 324
317 315 315 316 317 317 318 320 321 320 320 320 322 322 320 320 317 315 313 315 315 315 316 318 315 312 311 311 308 308 309 311 313 315 318 320 321 323 325 326 328 328 324
314 314 312 312 312 313 313 316 318 320 319 321 322 321 321 321 322 316 314 313 312 314 314 311 310 309 309 309 307 306 308 308 310 313 316 317 317 316 317 321 324 324 325
310 309 309 309 309 309 310 312 315 318 319 317 315 314 315 312 314 315 314 313 309 310 312 310 306 306 306 304 303 306 305 305 307 311 313 311 313 313 314 319 321 321 325
306 305 306 306 307 307 308 309 312 314 314 313 311 311 309 308 308 310 311 313 311 305 305 305 305 302 302 304 301 302 302 304 306 310 311 310 310 311 313 314 319 320 318
304 304 304 304 304 305 306 307 309 310 310 310 309 308 308 308 308 309 309 309 308 307 303 303 299 298 299 301 300 301 300 300 302 306 307 308 308 307 308 312 314 314 314
302 302 302 302 302 302 303 305 305 306 306 306 305 304 303 305 305 305 305 305 304 303 300 296 297 296 298 299 299 300 300 299 299 302 304 304 305 306 306 307 307 309 311
301 301 300 300 300 300 301 302 302 303 302 301 302 302 300 301 301 301 301 299 298 298 299 299 295 295 294 296 297 297 297 298 298 297 299 300 301 303 303 304 304 305 305
300 300 299 299 298 299 299 300 300 300 300 299 299 298 297 298 297 297 297 297 298 298 299 297 294 295 295 295 294 296 295 295 296 293 294 295 297 298 300 301 301 301 301
298 298 298 298 297 297 298 298 298 298 297 297 296 296 296 295 295 295 294 294 295 296 297 296 293 292 292 293 292 291 292 293 291 292 292 291 291 292 294 294 294 294 295
297 297 296 296 296 296 296 296 296 297 295 294 293 292 292 292 293 292 293 292 291 291 292 292 292 291 289 288 286 288 286 287 289 288 287 288 288 289 290 291 290 290 291
295 295 295 294 294 294 294 294 295 294 292 291 290 290 289 289 289 290 290 290 290 288 287 287 287 284 285 285 286 284 284 282 283 287 284 284 286 285 286 286 289 289 290
293 293 294 293 293 292 292 291 291 289 288 288 288 288 288 288 288 287 287 288 289 289 288 287 284 284 283 284 284 284 283 283 282 284 283 281 284 282 285 287 288 289 290
291 292 293 292 291 289 289 288 288 287 286 287 287 288 288 288 288 287 286 285 284 286 287 287 286 286 286 286 286 285 283 283 284 284 283 279 284 282 285 285 288 289 289
290 290 290 290 289 288 288 287 286 286 285 285 286 287 287 287 288 287 286 283 283 283 285 286 285 285 285 285 286 284 283 281 280 281 283 280 282 281 283 283 284 287 288
287 289 289 289 289 288 288 287 285 285 284 284 284 285 286 287 287 287 285 283 281 282 283 283 283 283 283 283 284 283 282 278 280 280 282 280 281 280 278 283 283 284 284

GFSMA_sfc_thetae_078.txt.gz
Theta_e
327 326 323 324 324 323 323 326 327 326 324 323 323 323 323 323 321 322 321 328 332 334 334 336 338 338 338 337 333 330 327 325 324 323 323 323 323 323 324 324 325 323 325
329 327 327 324 322 323 324 327 327 327 327 327 327 327 326 325 326 326 325 324 331 333 334 334 336 338 338 338 339 336 332 329 327 325 324 323 323 323 323 323 323 323 322
332 329 328 326 323 325 326 326 327 328 327 329 327 328 328 327 327 327 328 327 327 328 332 333 334 336 337 338 338 337 335 332 330 328 327 325 325 324 323 323 322 322 322
335 333 331 331 332 328 329 328 328 328 327 327 327 328 329 331 329 328 329 329 329 327 328 332 335 335 335 336 338 337 336 335 333 330 329 327 326 324 324 324 323 323 322
336 334 333 332 333 332 331 330 329 329 328 330 330 330 330 328 329 330 328 328 328 329 328 330 329 330 333 333 334 337 337 337 335 333 331 329 327 326 325 324 324 323 323
339 337 334 333 332 331 330 330 330 332 331 331 331 329 328 328 328 327 327 328 326 326 327 325 324 324 327 331 332 333 334 335 336 334 333 331 330 328 326 325 325 324 323
339 337 337 336 335 333 333 332 330 328 327 328 326 325 325 327 327 327 327 324 322 324 321 320 320 319 320 328 330 330 329 331 332 332 332 332 332 330 329 327 326 325 324
336 336 334 334 335 334 333 333 332 330 330 329 325 323 315 317 320 321 322 321 320 319 319 317 316 316 316 316 319 320 322 324 325 326 329 330 331 331 331 330 329 327 326
325 325 327 329 329 331 330 330 329 328 326 327 328 323 315 310 314 317 318 318 317 317 315 317 317 315 314 314 311 311 315 317 321 324 325 325 327 329 330 331 332 330 327
316 317 317 317 317 319 322 325 328 325 322 320 321 324 322 320 311 309 314 316 316 316 317 318 317 315 312 311 309 311 312 315 319 322 324 325 325 327 328 328 329 331 329
313 313 314 314 314 315 316 317 317 317 318 316 315 317 318 318 316 312 307 311 316 316 316 315 312 309 308 306 304 308 311 313 316 319 321 321 323 325 326 327 327 327 328
312 312 312 311 312 312 312 313 314 315 314 315 317 317 317 316 315 314 313 314 312 313 313 310 309 307 307 305 306 308 309 310 313 316 319 319 319 318 320 321 322 325 327
310 307 308 307 307 308 309 309 311 312 314 314 316 315 316 317 317 316 312 310 311 312 310 306 303 303 304 302 301 306 306 307 310 314 316 315 315 315 316 318 321 322 324
304 304 304 305 305 306 306 307 308 310 314 313 312 311 311 310 312 314 313 311 307 307 306 301 301 302 301 300 301 304 302 305 308 313 314 313 312 312 314 317 321 321 322
302 301 302 302 302 303 304 305 305 307 309 312 310 310 307 308 308 309 309 310 309 302 300 297 297 297 297 299 301 301 300 304 306 308 310 309 308 309 313 315 316 318 320
300 300 300 300 300 301 301 302 303 305 306 307 306 305 304 306 306 306 305 304 305 302 299 296 296 293 296 300 300 299 298 300 303 305 306 306 307 308 308 310 313 314 314
298 298 298 298 298 298 299 299 300 301 302 304 303 301 302 303 302 301 302 302 301 300 297 293 295 294 295 296 297 298 298 294 295 300 302 303 305 305 306 306 308 309 311
298 297 297 297 297 297 297 297 298 298 299 298 298 299 298 300 297 298 296 294 293 294 296 295 294 292 292 294 295 295 296 296 293 295 298 300 301 302 303 303 304 305 305
296 297 296 295 295 296 296 296 296 296 295 294 294 294 293 294 292 291 292 295 295 296 296 294 292 294 293 292 288 290 291 290 292 295 294 295 296 298 299 299 300 300 301
295 295 295 295 294 294 295 295 296 294 293 295 294 293 292 291 292 290 291 289 291 290 291 294 291 291 290 289 287 284 284 286 286 289 291 291 292 293 294 294 294 294 295
294 294 295 295 295 296 295 294 296 295 294 291 290 290 290 291 293 292 288 286 286 285 285 284 284 284 282 282 281 282 280 281 282 283 282 282 283 283 286 290 290 291 292
293 294 294 294 294 294 294 295 295 292 290 288 286 286 286 288 289 290 291 291 288 283 282 279 277 279 279 279 280 280 277 278 276 281 279 279 281 280 281 282 289 290 290
293 293 293 293 293 291 293 293 292 286 285 285 284 285 286 287 287 285 287 289 289 289 288 282 279 279 279 280 280 279 279 277 277 280 279 277 280 280 282 285 289 290 289
291 291 292 292 289 288 291 290 289 283 283 282 284 285 285 285 286 285 283 281 281 283 284 285 281 280 281 281 281 281 279 279 280 280 280 274 279 279 281 282 289 289 291
289 289 288 286 284 285 289 288 286 283 282 282 284 285 285 284 289 287 283 281 279 281 286 286 285 285 285 285 284 280 277 276 275 278 279 278 278 277 280 281 282 289 289
287 288 286 284 288 284 289 287 285 283 281 281 281 283 287 286 287 287 283 280 278 279 280 280 279 281 282 282 285 280 277 270 272 274 278 274 275 276 272 279 280 281 282

GFSMA_sfc_thetae_081.txt.gz
Theta_e
324 323 325 328 327 327 326 327 327 326 323 322 322 322 321 321 320 319 319 329 333 336 334 334 336 338 338 339 336 332 330 328 325 324 323 323 323 323 324 325 325 324 324
325 324 322 321 319 319 320 323 325 325 324 324 324 324 323 322 323 323 322 322 331 333 336 335 335 336 338 339 339 337 334 331 329 327 325 324 324 324 323 324 323 323 323
328 326 325 324 320 321 322 323 325 325 325 326 325 326 327 326 325 325 325 324 325 329 333 336 336 336 336 338 338 338 337 335 332 330 328 327 325 325 324 323 323 322 323
332 328 327 328 326 323 325 325 325 325 325 325 325 326 328 329 329 327 327 327 326 328 328 334 337 337 336 335 336 337 337 336 335 333 331 329 327 326 324 324 324 323 323
334 332 331 331 331 330 328 327 327 326 326 327 329 329 329 329 327 328 326 326 326 328 326 329 330 330 332 332 333 335 335 335 335 334 333 331 329 328 326 325 325 324 323
335 334 332 331 330 329 329 328 328 329 330 330 330 328 327 327 327 326 326 327 326 325 326 326 325 323 326 330 331 332 332 332 333 333 332 332 332 330 328 327 326 324 324
338 336 336 334 335 333 332 332 331 330 328 327 327 324 324 325 325 325 326 325 324 322 318 317 316 316 318 324 325 325 326 327 327 327 329 331 331 332 331 330 328 326 325
333 333 333 334 334 333 332 332 331 329 329 329 325 323 317 316 318 318 319 321 320 319 316 316 315 314 314 315 314 318 319 322 325 326 326 326 327 329 330 331 330 329 328
322 322 324 327 328 329 328 329 329 327 325 326 328 323 316 309 312 316 317 317 316 315 315 315 315 315 311 308 309 310 315 318 321 324 325 325 325 326 327 328 329 331 330
315 316 316 316 315 316 316 318 319 320 318 317 318 321 319 319 314 311 313 314 315 316 314 314 312 310 308 307 309 312 313 315 319 321 323 323 323 325 327 328 328 328 328
313 313 312 312 312 313 313 314 315 315 315 313 313 312 312 313 314 312 307 309 313 313 311 309 309 308 307 306 305 308 311 313 315 317 320 321 322 322 322 322 323 325 327
310 310 310 309 309 309 309 309 310 311 312 312 312 311 311 311 310 310 308 309 308 311 308 308 307 306 305 303 306 307 308 310 313 316 318 319 318 317 317 319 321 322 323
308 305 306 305 305 306 307 307 307 308 310 311 311 312 316 314 314 314 311 309 311 311 306 303 301 302 301 299 302 303 306 307 311 316 319 318 315 314 315 318 321 322 323
303 303 303 303 303 304 304 304 305 307 310 310 311 311 311 308 310 312 314 311 307 308 305 300 299 297 299 300 302 303 302 305 309 312 313 311 310 311 316 316 317 318 321
301 301 301 301 301 301 302 302 302 304 305 307 307 309 309 308 308 309 308 310 308 303 303 298 296 296 296 298 300 300 299 304 306 308 308 308 308 308 310 313 315 316 319
300 299 299 298 298 299 299 299 301 302 303 303 304 306 305 305 304 305 304 305 304 304 300 297 295 295 298 299 299 299 297 299 302 304 304 305 306 307 307 308 310 313 315
298 297 297 297 297 296 297 297 298 299 300 301 303 302 301 301 301 299 299 300 300 301 299 295 295 295 293 292 295 297 297 293 295 299 301 303 304 305 305 304 306 308 309
297 296 296 295 295 296 295 295 296 297 297 296 298 299 298 299 296 297 297 296 295 293 297 295 294 292 292 294 295 292 294 294 290 295 297 298 300 302 302 302 303 303 304
295 295 295 294 294 295 294 294 295 294 293 293 294 295 294 292 290 290 290 292 292 295 294 294 291 293 293 291 288 288 289 288 290 293 293 295 295 297 298 298 298 299 300
294 294 294 294 293 293 294 294 294 292 292 292 292 290 290 290 290 288 288 287 289 289 289 293 292 291 289 287 285 282 282 283 283 286 288 291 292 293 294 294 294 294 295
293 293 293 293 294 295 295 295 296 294 293 291 291 290 291 292 293 292 287 285 286 285 284 283 283 283 281 281 280 280 279 279 280 280 280 280 281 281 285 289 290 291 292
291 292 292 293 294 294 295 296 296 293 291 288 286 286 287 289 289 291 292 291 288 283 281 279 277 279 278 279 279 279 276 277 275 280 278 279 280 279 281 281 291 291 290
290 291 293 293 292 292 294 295 294 289 287 284 283 284 285 287 286 285 288 289 290 290 288 282 279 278 279 280 279 278 278 277 276 279 278 277 279 279 281 284 290 291 291
288 290 292 292 290 289 293 293 291 283 282 283 284 285 285 285 286 284 282 281 282 282 283 284 281 281 281 281 281 280 278 278 279 279 279 274 278 279 280 281 289 290 290
287 289 289 288 285 285 291 290 285 282 282 282 284 285 285 285 289 288 283 281 279 281 286 287 286 285 285 285 284 280 277 275 275 277 279 277 277 276 278 280 281 289 289
285 288 287 287 287 283 290 289 285 281 280 281 283 284 289 286 288 288 282 279 278 279 280 280 279 282 282 282 285 280 278 269 271 272 278 273 274 274 271 278 279 280 280

GFSMA_sfc_thetae_084.txt.gz
Theta_e
329 328 327 327 326 327 326 326 326 326 326 326 322 320 320 319 319 318 318 327 334 338 337 335 335 337 339 339 338 334 331 329 327 325 324 323 323 323 324 324 323 324 324
324 323 321 324 325 322 325 321 325 324 321 321 322 321 321 321 321 321 320 320 330 334 338 336 336 336 337 339 339 337 336 333 330 329 327 325 324 324 324 324 323 323 323
325 324 322 320 318 318 318 320 322 323 323 324 324 325 325 325 324 323 323 323 323 328 333 336 337 338 337 337 338 337 337 336 335 332 330 328 327 326 325 324 324 323 323
329 325 324 325 323 319 321 321 323 323 323 324 323 325 325 329 329 328 327 327 327 327 329 334 337 336 335 335 335 335 335 335 334 334 332 331 329 327 326 325 325 324 323
332 329 327 328 329 327 323 325 325 325 324 326 328 329 329 329 328 328 326 326 325 327 327 327 330 330 330 331 333 333 334 333 333 332 333 333 332 330 328 327 326 325 324
333 332 331 330 329 328 328 327 327 327 329 328 330 329 329 329 326 325 325 326 325 324 325 327 322 322 328 330 331 330 330 329 328 328 329 331 332 332 331 329 328 327 325
335 332 333 333 333 331 331 331 331 330 327 329 327 324 322 324 323 324 323 322 324 323 321 317 315 317 321 324 324 324 325 326 327 327 326 327 328 330 331 332 330 328 327
335 333 331 331 332 332 332 332 331 329 328 329 323 321 313 316 316 316 317 318 318 317 317 316 315 316 314 312 314 318 320 322 324 325 324 325 326 327 327 329 331 331 329
327 326 326 327 326 327 325 324 325 325 322 321 322 319 312 309 311 315 314 315 314 315 315 315 314 311 309 309 311 313 316 318 321 323 323 323 323 324 327 328 328 329 330
318 317 316 315 317 316 315 316 317 318 318 316 316 319 316 319 313 308 312 313 313 315 314 312 310 308 306 309 311 313 314 315 317 319 321 322 322 324 325 325 325 326 327
313 313 313 312 312 313 312 313 313 313 314 313 312 310 309 309 310 309 309 308 310 308 307 308 308 306 306 307 307 308 311 313 316 318 319 322 322 321 320 321 321 322 323
310 309 310 309 308 308 307 307 308 308 310 310 311 310 309 308 308 307 310 309 306 306 306 307 306 305 303 303 306 307 309 311 314 318 319 320 318 317 317 318 321 322 322
307 306 306 305 304 305 305 305 305 305 307 308 309 309 310 311 311 309 308 307 310 308 303 302 302 302 301 299 301 303 307 309 312 315 316 316 313 314 318 319 319 319 320
306 305 304 304 303 303 302 303 303 304 305 306 307 307 307 307 310 311 310 310 305 307 305 299 298 298 299 298 301 302 300 306 309 310 312 310 309 310 313 315 317 319 320
303 302 302 301 301 300 300 301 300 302 303 304 304 304 305 308 308 308 309 307 309 302 304 298 297 297 295 297 299 297 297 304 306 307 307 307 308 308 309 310 312 314 317
300 300 300 300 299 299 298 298 298 300 301 302 302 301 302 305 305 304 305 305 305 305 300 299 295 296 298 299 299 296 296 298 302 304 304 305 306 306 305 306 308 310 312
299 299 298 297 297 296 296 295 296 297 298 299 299 299 301 302 301 298 298 301 300 301 300 295 295 295 294 294 294 297 294 292 291 300 301 302 303 305 304 303 304 306 308
298 297 296 295 295 295 294 294 295 295 296 295 297 300 299 298 297 298 297 296 296 296 298 294 293 292 293 294 294 290 292 292 288 295 296 297 299 300 301 301 301 302 303
295 295 294 294 294 294 293 293 294 293 292 292 293 296 295 294 293 293 293 294 293 295 296 294 291 293 293 291 287 287 286 285 288 291 293 294 295 296 296 297 297 297 299
293 293 293 293 293 292 293 293 292 291 290 290 291 290 291 290 290 289 288 288 290 290 291 294 292 291 290 286 284 282 282 282 281 285 287 289 291 293 294 293 293 293 294
292 292 292 292 292 293 294 294 295 294 293 291 291 291 291 292 293 291 287 285 287 286 286 283 283 284 282 281 280 281 280 279 280 280 279 280 280 280 283 286 290 292 292
290 291 291 291 291 294 296 297 296 293 291 290 288 287 288 288 290 292 292 291 288 284 283 282 278 281 279 280 280 280 277 278 276 280 278 278 279 280 281 283 291 292 291
289 289 290 293 293 293 295 296 297 291 288 287 284 283 284 286 286 285 289 290 291 291 287 282 280 279 279 280 280 279 278 277 276 279 278 276 279 279 280 283 290 291 292
287 288 289 291 291 291 294 295 293 287 286 285 281 283 283 283 284 284 282 282 281 283 284 284 282 281 281 281 281 281 279 278 279 279 278 273 277 278 279 280 289 291 290
286 286 287 289 288 288 293 293 287 282 282 282 282 283 285 285 288 288 283 281 280 282 287 287 286 286 287 287 284 280 278 276 276 277 279 277 276 276 277 279 281 288 289
285 284 287 288 288 286 291 291 285 281 280 281 282 284 289 286 289 288 282 280 279 279 281 280 280 282 281 283 285 280 278 271 273 274 278 273 274 273 271 277 278 279 280

GFSMA_sfc_thetae_087.txt.gz
Theta_e
328 327 326 325 325 325 325 324 325 325 324 324 325 321 320 319 318 318 317 323 333 337 337 337 336 337 339 340 339 337 334 331 329 327 325 323 323 323 323 324 323 324 324
328 327 326 325 324 324 325 324 322 325 324 320 320 319 319 319 319 320 320 320 326 334 337 336 337 338 338 338 338 337 336 335 334 331 329 327 325 324 324 324 324 323 323
327 326 322 320 323 322 319 318 319 321 321 322 322 323 324 324 324 323 324 325 325 327 332 336 337 338 337 336 336 336 335 334 334 335 332 330 328 327 325 325 324 323 323
325 323 322 321 320 318 318 318 320 321 321 322 322 324 324 327 328 329 327 327 327 327 328 332 337 336 333 334 333 334 335 333 334 334 333 333 331 329 328 327 326 325 324
328 326 325 325 326 321 320 322 323 323 323 324 325 328 328 328 329 328 325 326 326 325 325 327 330 330 331 331 333 334 332 330 329 330 331 332 332 332 330 329 328 327 325
331 329 328 327 328 327 326 325 325 326 326 327 329 329 329 328 328 326 324 325 324 324 323 324 323 324 329 332 331 330 328 328 327 327 327 328 329 331 332 332 330 328 327
332 331 330 329 329 328 328 330 329 329 328 328 324 320 320 322 321 321 318 317 319 323 322 319 318 322 324 326 325 325 325 325 325 326 325 326 326 327 328 330 332 331 329
333 332 331 330 329 330 332 331 329 328 326 325 319 318 312 315 315 315 315 314 315 316 315 316 316 315 313 314 315 319 321 322 323 324 323 323 324 325 326 328 328 329 331
331 330 330 329 328 327 327 324 322 321 319 319 319 318 312 307 309 315 314 312 313 312 314 314 312 310 309 310 311 313 317 319 320 321 322 323 322 323 326 326 327 327 328
323 324 322 322 319 318 316 315 316 317 317 315 314 316 314 317 311 306 311 311 312 312 311 311 308 307 308 309 310 312 313 316 318 319 320 320 322 323 323 323 323 323 324
319 319 318 316 315 314 312 312 311 310 311 311 312 309 308 308 308 310 308 306 308 305 305 306 306 304 307 307 306 309 311 315 317 319 319 321 321 321 321 319 320 322 323
315 315 314 312 310 309 308 308 308 307 308 308 308 308 308 306 305 304 305 305 304 305 306 306 305 303 303 304 306 307 310 312 315 317 320 319 317 318 321 320 321 321 320
309 308 307 306 305 305 305 305 304 304 304 305 307 307 307 308 311 309 307 305 305 303 303 301 302 302 302 301 302 303 306 309 312 315 316 315 313 313 316 318 319 319 320
308 306 304 303 303 303 303 302 302 302 303 304 304 306 306 305 306 308 309 309 306 305 302 299 298 300 300 301 302 302 299 306 308 309 310 310 310 309 311 313 313 316 318
304 301 301 301 301 301 301 301 300 300 302 302 303 304 303 304 305 306 308 308 307 302 303 298 296 297 298 299 300 298 296 304 305 306 306 307 307 307 307 309 310 311 314
301 300 300 300 300 299 299 297 297 298 299 300 301 301 301 301 301 302 304 305 305 305 302 299 295 296 298 299 299 297 296 297 301 303 304 304 305 306 305 305 306 307 310
300 300 299 298 297 296 295 295 296 296 296 297 298 298 298 298 299 301 300 301 301 302 300 295 295 295 294 295 296 296 293 291 291 299 300 301 302 302 303 302 302 304 307
299 298 297 296 295 295 294 294 294 294 294 295 295 297 298 299 297 296 298 298 297 297 299 294 293 292 293 294 294 291 292 289 287 295 297 297 298 299 299 299 299 300 302
297 296 295 294 294 294 293 293 293 293 292 292 292 293 295 296 294 294 294 295 295 296 297 295 291 293 293 291 288 287 285 285 287 290 293 294 295 296 296 295 295 296 298
295 295 293 293 293 292 292 292 292 290 290 290 290 290 292 292 292 291 290 290 291 292 293 294 292 291 290 287 284 284 283 282 281 284 286 288 290 293 293 293 293 293 294
292 292 291 291 291 292 293 292 293 293 293 292 292 291 292 293 293 292 289 287 287 287 288 289 288 287 284 282 282 281 280 279 280 280 279 280 280 281 283 287 290 293 293
290 290 290 290 290 293 296 297 297 294 292 291 289 288 289 289 292 293 292 291 288 286 285 283 281 284 280 280 280 280 279 278 277 280 278 279 280 280 281 283 292 293 292
288 289 289 289 290 291 296 297 298 292 290 288 287 286 284 286 285 284 290 290 291 291 287 283 281 280 280 281 280 280 279 278 277 279 278 277 279 279 280 283 291 291 292
287 287 288 289 289 290 294 296 295 288 287 286 285 284 282 282 283 282 281 283 282 283 283 284 282 282 282 282 282 281 279 279 279 280 279 274 278 278 279 280 290 290 291
286 286 286 286 286 288 294 294 291 286 286 285 285 283 283 283 288 288 282 281 280 282 287 288 287 288 288 287 284 281 279 277 277 278 279 278 277 276 278 279 280 288 289
286 284 286 289 290 288 291 293 289 283 280 281 280 282 289 286 290 289 282 280 279 280 281 281 281 282 282 284 286 280 279 272 272 274 279 274 275 275 273 278 278 279 279

GFSMA_sfc_thetae_090.txt.gz
Theta_e
327 327 326 325 324 323 323 322 323 323 323 323 323 323 321 318 318 318 317 322 326 336 338 338 337 338 339 339 337 337 336 334 332 330 327 325 323 323 323 324 324 324 324
328 328 326 325 324 323 323 323 322 322 323 321 320 320 318 318 319 319 320 320 326 330 335 337 337 338 339 337 336 335 335 334 335 335 332 329 327 325 325 325 324 324 323
329 329 327 325 325 324 324 321 319 320 321 322 321 323 323 323 323 323 325 324 326 326 330 335 337 338 337 335 335 335 335 335 335 335 335 333 330 328 327 326 326 324 323
328 327 325 322 321 320 319 316 317 319 320 321 321 323 324 325 328 328 328 328 327 327 329 331 335 337 334 333 333 335 333 331 330 331 333 332 333 331 330 328 327 326 325
326 326 323 322 322 318 318 318 319 321 322 323 324 325 327 326 329 328 326 326 325 325 324 327 329 331 333 333 334 333 330 329 328 328 329 329 330 332 332 331 330 328 327
327 325 324 324 325 323 322 321 321 324 325 326 327 327 325 324 323 322 321 322 322 323 323 322 322 325 329 333 331 330 328 326 326 326 326 326 327 328 329 330 332 330 329
330 327 327 326 327 327 326 326 326 324 327 325 323 319 317 319 318 316 315 315 317 319 319 318 319 320 321 326 326 325 325 325 324 324 322 324 324 325 327 328 329 331 331
332 331 330 328 328 326 327 330 330 324 322 322 317 314 310 313 313 314 313 313 312 314 313 314 314 314 314 315 316 319 321 323 324 324 323 323 323 323 324 326 328 329 328
333 331 330 329 328 327 327 324 323 322 318 316 317 317 312 306 308 313 311 310 310 310 311 311 310 310 310 311 312 313 316 318 320 321 321 321 322 323 324 324 324 326 326
325 327 328 327 324 322 322 320 318 317 316 314 313 314 312 316 310 305 309 309 308 309 308 307 306 308 308 309 310 313 314 316 319 320 321 320 322 322 322 323 322 322 323
322 322 321 320 319 318 317 316 313 311 311 310 310 308 307 306 306 310 305 304 305 304 304 304 305 306 307 307 306 309 313 315 317 319 322 322 321 321 323 318 320 321 321
316 317 316 315 313 311 309 308 308 308 309 308 307 307 307 305 303 302 305 306 303 303 303 305 305 304 305 304 306 308 310 312 315 316 317 318 317 317 319 321 321 321 321
311 308 308 308 306 305 305 305 304 303 304 304 304 305 306 307 308 309 307 304 303 302 300 300 302 302 302 302 303 303 307 310 311 312 314 314 313 313 314 316 317 318 319
311 307 306 305 304 303 303 302 302 301 302 303 302 303 305 305 305 307 307 306 302 304 302 300 299 299 300 301 302 302 301 307 308 309 310 310 309 308 309 311 312 314 316
308 305 303 302 301 301 301 301 300 300 301 302 302 302 305 303 303 303 304 306 305 301 302 298 297 298 299 299 300 298 297 304 305 306 306 306 307 307 306 307 308 309 313
303 303 301 300 300 299 299 298 297 298 298 298 300 300 300 300 300 300 300 302 305 304 301 299 296 297 297 299 300 297 297 296 302 303 304 305 305 305 305 304 304 306 309
300 300 300 299 298 297 296 296 295 295 296 296 297 297 297 297 297 297 298 300 301 302 300 295 295 295 295 296 296 295 294 290 290 299 300 301 301 302 302 301 301 303 305
298 298 298 297 296 295 295 295 295 295 295 295 295 296 297 299 297 297 297 297 298 298 298 296 293 292 293 295 294 292 291 288 287 295 297 298 298 299 298 297 298 299 301
296 296 296 294 295 294 293 293 293 292 292 291 291 292 293 296 295 295 294 294 295 296 296 296 292 293 293 291 289 288 286 285 286 290 291 294 296 296 295 295 295 296 298
294 293 294 294 292 293 292 292 292 290 290 290 290 290 292 293 293 292 291 291 292 293 293 294 292 291 290 288 286 286 283 283 282 284 285 288 290 291 293 293 294 294 295
292 292 292 292 291 292 293 291 292 291 293 293 292 291 292 293 294 293 290 289 289 290 290 290 290 288 286 285 283 282 281 281 281 280 280 281 281 282 284 288 291 293 293
290 290 290 290 290 292 296 297 296 293 293 292 290 289 289 289 291 293 292 291 289 287 286 283 286 286 282 281 281 281 278 278 278 280 279 280 281 281 281 283 293 293 294
288 288 289 289 289 290 296 297 297 293 291 289 288 287 286 287 285 284 290 289 289 290 288 284 284 282 282 282 281 279 280 278 278 280 279 277 280 280 281 283 292 292 292
287 287 287 288 288 289 295 296 296 289 287 287 287 286 284 281 282 282 281 280 281 282 283 284 282 281 282 282 282 282 280 279 280 280 279 276 278 278 280 281 290 290 291
286 286 286 286 286 286 293 295 292 288 287 286 286 285 284 281 286 288 281 280 280 282 287 289 289 289 288 288 285 282 280 279 278 278 279 278 277 277 278 280 281 289 289
286 286 285 286 289 286 292 294 291 286 285 284 283 282 288 284 289 290 280 279 278 280 281 281 281 282 284 286 287 281 280 275 276 276 279 276 276 275 274 278 279 279 280

GFSMA_sfc_thetae_093.txt.gz
Theta_e
333 334 333 333 333 333 333 331 332 333 333 333 332 331 331 329 329 329 329 324 326 330 337 339 339 339 339 339 335 335 336 336 335 333 330 327 325 324 324 324 324 324 324
334 333 334 333 332 332 332 332 331 332 332 332 329 329 330 329 330 331 332 332 327 329 332 337 338 339 339 337 335 336 335 334 335 335 335 332 329 327 326 326 325 324 323
334 334 334 334 333 333 331 331 330 328 329 329 329 331 332 332 333 333 334 333 332 327 330 334 338 339 339 335 335 336 335 333 332 333 335 335 333 330 329 328 327 326 324
335 335 334 334 334 332 331 329 325 325 327 328 330 332 332 333 334 333 334 332 334 334 332 331 334 336 338 335 335 336 332 330 329 330 330 332 332 333 332 330 329 328 326
336 334 333 333 331 326 327 325 324 327 328 331 331 334 335 334 334 333 332 332 333 333 334 330 328 330 335 335 336 334 330 328 327 327 328 328 328 329 331 333 332 330 328
335 333 332 331 329 325 324 324 325 327 329 331 330 331 334 333 330 329 328 328 328 328 330 331 332 331 330 335 333 331 328 326 326 325 324 325 325 327 328 329 330 332 331
333 332 331 329 329 329 328 327 329 329 331 333 331 328 328 328 326 325 324 323 325 326 328 329 330 330 328 327 328 326 325 325 324 324 324 324 323 323 325 326 329 329 331
333 332 331 330 330 330 331 332 331 331 331 330 326 323 320 321 323 321 322 320 320 323 322 323 324 322 321 318 320 321 322 323 323 322 322 322 323 322 325 326 326 327 328
332 333 331 331 332 331 330 329 328 329 328 326 325 326 317 315 318 321 319 318 318 319 319 318 317 317 315 314 314 315 317 318 320 321 321 321 321 323 324 324 324 324 325
330 331 330 330 327 325 325 322 321 323 325 324 323 321 323 322 314 311 317 317 315 315 316 315 315 314 312 312 312 313 315 318 319 321 323 324 323 322 323 321 320 322 322
325 327 328 325 322 320 318 318 316 316 318 318 318 318 317 317 317 315 309 313 314 312 312 312 313 312 309 308 309 311 314 316 317 317 319 320 321 321 322 323 321 321 322
319 319 320 321 320 316 315 313 312 313 314 314 314 315 314 313 311 311 309 309 310 312 311 311 311 310 309 308 307 308 311 313 315 317 318 318 316 317 318 319 319 320 319
314 313 313 313 311 311 311 310 309 309 309 310 310 311 313 313 313 313 310 308 307 311 308 308 308 307 305 306 307 305 308 310 311 312 314 314 312 311 313 315 315 317 318
315 313 311 309 309 308 307 307 307 307 308 309 309 309 311 312 312 311 310 307 304 306 307 308 303 305 304 304 304 303 304 307 308 308 309 310 309 308 309 310 311 313 315
314 310 307 306 306 306 305 305 304 304 305 306 307 308 309 310 309 309 310 308 304 299 303 304 301 302 303 301 301 300 300 304 306 306 306 307 307 307 306 306 307 309 311
308 306 304 303 303 302 302 303 303 303 303 304 305 305 306 307 306 306 307 307 307 303 301 303 300 300 300 300 300 299 299 298 302 303 303 304 304 304 303 303 304 305 307
304 303 302 302 301 299 299 300 300 300 301 301 301 302 303 303 303 303 304 304 305 305 302 297 297 297 297 298 297 296 294 294 297 300 301 301 301 301 300 299 300 302 304
303 302 301 300 299 299 299 299 298 298 299 299 299 301 301 300 301 301 301 300 301 301 300 299 295 294 295 296 295 293 291 289 292 297 298 298 298 298 297 297 297 299 301
300 300 299 299 298 297 297 297 297 297 297 297 297 297 298 299 299 298 297 297 298 298 298 298 295 295 294 293 291 290 288 288 288 290 292 294 297 296 295 295 296 296 298
298 297 297 297 296 296 296 295 295 295 295 295 295 296 296 296 296 296 294 294 294 295 296 297 294 293 292 290 289 288 286 286 287 286 287 289 291 292 293 294 294 294 295
297 296 295 295 295 295 295 296 296 295 295 295 295 294 294 294 294 295 293 292 291 292 293 293 292 290 288 287 287 286 288 287 286 285 285 286 287 288 289 292 293 293 294
295 295 295 295 295 295 298 298 297 296 296 295 292 292 292 291 293 293 293 292 291 290 290 289 289 289 287 286 287 287 286 284 284 285 284 285 286 286 287 290 293 293 294
293 293 293 294 294 295 297 298 298 296 295 294 292 290 288 289 289 290 291 289 289 290 290 290 290 289 288 288 287 284 283 283 283 284 284 282 285 284 286 288 292 292 293
292 292 293 293 293 293 296 296 296 293 292 291 290 289 288 285 286 287 286 285 285 286 286 286 287 288 287 287 287 286 285 283 283 283 284 282 283 283 285 287 290 291 292
291 291 291 291 291 292 295 296 294 292 291 290 288 287 286 285 286 289 284 283 284 285 289 290 289 289 289 288 286 285 283 283 282 282 283 283 282 282 283 285 285 289 289
289 289 290 290 292 292 294 295 294 290 289 288 286 286 289 286 289 290 284 283 282 284 285 285 284 285 286 288 287 285 285 283 282 281 283 282 281 281 282 283 284 284 285

GFSMA_sfc_thetae_096.txt.gz
Theta_e
331 332 332 333 333 334 333 332 334 334 333 334 334 334 334 334 334 336 336 327 327 331 334 339 340 340 340 339 336 336 337 336 336 336 334 331 328 326 325 325 325 324 324
334 335 335 335 335 335 334 334 335 335 335 335 334 334 335 335 335 336 337 337 329 330 333 336 339 340 340 337 337 335 335 334 334 334 335 336 332 330 328 327 326 325 323
338 335 337 337 336 335 334 335 334 334 333 334 334 334 335 336 336 335 335 335 336 328 330 335 337 340 340 337 337 336 335 332 330 330 332 334 335 333 331 330 329 327 326
339 338 338 338 337 336 335 333 332 329 331 333 333 335 336 336 335 335 334 333 334 334 332 333 334 336 337 338 337 336 332 329 328 329 329 330 331 331 333 333 331 330 328
340 337 337 339 338 336 334 333 330 329 330 333 335 336 336 335 334 334 333 333 334 334 334 333 329 329 333 337 337 335 330 327 327 326 326 327 327 328 330 331 332 332 330
341 338 337 338 337 335 331 331 329 331 333 335 332 331 333 333 332 331 331 330 330 332 332 333 334 333 331 335 335 332 328 326 325 325 324 324 324 325 326 328 329 330 332
338 337 337 337 336 333 331 331 331 332 332 335 331 329 329 330 330 330 330 328 328 330 331 332 333 334 331 328 330 327 325 325 325 324 324 324 324 323 324 325 327 329 330
337 335 335 335 334 333 333 333 334 333 332 335 329 328 321 322 326 327 328 326 326 327 328 329 330 330 330 327 323 322 323 322 322 322 322 322 322 323 323 326 325 326 327
337 336 334 333 334 336 334 333 331 330 330 332 330 326 318 314 320 323 324 325 324 325 326 326 325 324 322 320 319 316 317 319 320 321 323 323 323 323 324 323 323 323 323
334 332 333 331 330 330 329 328 327 328 331 327 330 328 329 324 314 311 320 323 322 321 322 323 323 321 320 317 313 314 316 318 319 321 321 322 323 323 323 325 323 322 322
328 329 330 328 325 323 323 321 321 321 321 320 319 319 318 319 319 315 309 313 319 319 320 319 319 319 316 314 314 313 313 316 317 317 318 319 318 319 321 322 323 321 321
323 324 325 325 324 322 320 320 321 317 315 317 317 317 315 313 313 312 311 311 311 314 316 317 316 316 316 314 309 309 311 312 315 316 317 317 315 315 316 318 318 319 319
320 322 323 324 323 320 318 318 316 315 315 314 314 314 315 315 315 314 312 310 309 311 313 314 314 312 310 310 310 306 309 311 312 313 315 314 311 310 311 314 315 316 317
324 322 321 321 317 317 316 316 314 313 312 312 312 312 312 314 315 314 312 308 306 308 310 310 311 311 309 308 305 303 306 307 308 309 310 309 308 308 308 309 311 312 314
323 321 319 316 311 310 311 312 310 310 311 311 312 312 312 313 313 313 313 311 307 302 303 309 309 306 305 304 302 302 302 304 306 307 306 307 307 306 306 306 306 308 309
319 316 313 312 309 309 309 308 308 308 308 308 309 309 310 311 312 311 311 310 308 305 300 308 307 306 304 302 300 301 299 299 303 303 303 304 304 303 303 302 303 304 306
312 310 308 307 306 305 305 305 305 305 305 305 305 306 307 308 307 306 306 307 306 306 303 305 301 300 300 300 298 297 296 295 298 300 301 301 301 300 299 299 299 301 303
310 307 306 305 304 303 303 303 302 303 303 302 303 304 305 305 306 305 305 304 304 305 302 300 298 296 297 298 297 293 291 291 296 298 298 298 298 297 297 297 297 298 300
308 307 305 304 303 302 302 303 302 302 302 303 303 303 304 304 304 304 303 301 302 301 302 300 299 298 296 295 292 292 289 288 289 290 292 295 297 295 295 295 296 296 298
306 305 304 303 302 302 301 301 301 301 301 301 301 302 301 301 302 301 300 299 298 298 298 298 298 295 294 292 291 289 287 287 287 288 289 290 291 291 293 294 294 294 296
305 304 302 302 301 301 300 300 301 301 301 300 300 299 300 298 295 297 298 299 297 295 296 295 294 292 290 288 288 289 288 288 290 290 288 289 289 290 291 293 294 294 295
302 301 301 301 301 299 298 299 301 300 300 299 298 298 297 295 295 294 293 292 294 295 294 293 293 291 290 289 287 287 291 290 288 289 286 286 288 287 290 292 293 294 295
301 300 300 300 300 300 299 299 299 300 299 299 298 296 294 292 292 294 293 290 290 290 291 293 292 291 290 289 291 291 290 288 287 287 286 285 287 286 289 291 292 292 293
299 299 299 299 299 299 299 299 298 299 298 297 296 296 293 290 289 291 290 289 288 289 289 289 291 295 294 294 293 292 290 288 286 286 286 285 285 285 287 290 290 292 292
299 299 299 298 298 298 297 297 297 297 297 296 295 294 292 289 288 289 288 287 287 288 290 290 290 289 289 289 289 288 286 285 284 284 286 286 285 284 286 287 288 290 289
295 297 296 297 297 298 296 297 296 296 295 294 293 290 290 288 289 291 288 287 285 287 287 288 289 289 290 289 287 288 288 286 285 284 286 285 284 284 284 286 286 287 288

GFSMA_sfc_thetae_099.txt.gz
Theta_e
332 333 332 333 333 332 331 330 329 329 328 330 332 332 332 333 333 333 334 329 330 332 334 336 339 341 341 340 337 336 336 336 336 336 336 335 333 330 327 327 327 326 324
331 331 331 331 332 333 332 332 331 332 332 332 332 333 333 333 334 334 335 333 332 333 334 337 339 340 340 336 337 335 335 335 334 332 333 335 336 333 331 329 328 327 326
333 333 334 335 334 334 332 333 332 333 332 333 333 333 334 334 335 334 334 335 334 330 334 336 337 339 340 337 337 337 334 332 330 330 330 331 332 333 333 333 331 330 328
336 335 337 336 336 335 334 332 331 330 329 331 332 333 334 335 334 332 333 333 335 333 333 335 336 334 336 337 337 335 333 330 328 328 327 328 328 329 330 331 332 332 331
338 338 338 338 337 335 334 333 330 328 327 330 332 333 333 334 332 331 331 332 332 333 332 332 332 331 332 335 337 336 332 328 327 325 325 325 325 325 326 329 330 331 332
340 339 338 337 337 336 333 332 330 328 330 330 330 330 332 332 333 331 329 328 329 331 332 333 333 329 332 333 336 334 330 327 326 324 324 324 325 324 324 325 327 329 330
340 339 338 337 337 335 333 331 330 329 331 333 330 329 330 330 329 329 329 327 327 329 329 330 331 333 328 328 331 330 327 326 325 323 323 323 323 324 324 324 328 327 329
339 339 338 337 336 335 334 332 331 332 334 333 327 328 320 322 325 325 326 325 324 327 326 327 329 329 329 324 322 323 323 322 322 322 322 323 323 323 325 325 325 325 325
339 339 337 336 336 335 331 335 335 332 330 332 331 325 318 314 319 323 324 323 322 324 324 325 325 325 323 318 319 317 318 320 321 322 325 325 324 324 324 325 325 324 323
335 336 336 335 334 333 329 329 329 330 330 326 329 328 327 322 313 311 320 321 321 320 321 322 322 321 321 319 314 314 317 319 319 320 321 321 322 323 323 323 324 324 323
333 334 334 333 330 326 324 323 322 321 321 318 318 317 318 318 318 314 310 315 318 319 320 319 320 320 317 316 315 312 314 316 318 319 321 320 320 320 320 321 320 321 322
329 329 330 329 327 324 323 322 322 322 320 319 318 316 314 313 312 312 310 311 312 315 317 317 317 317 316 314 309 310 312 313 315 316 318 318 316 314 315 316 319 319 319
322 324 326 325 324 324 324 324 322 320 317 316 315 314 315 315 316 314 312 310 309 312 313 315 315 313 311 311 309 307 310 311 312 313 315 315 311 310 311 312 314 315 316
323 326 326 326 325 324 323 322 320 318 317 316 315 315 314 314 315 314 313 310 307 308 310 310 311 311 310 307 305 304 307 308 308 309 310 310 309 308 307 308 309 311 312
325 324 325 324 322 321 320 318 316 313 312 313 313 313 312 313 314 314 313 312 308 302 303 308 307 306 305 305 302 303 303 305 306 307 307 306 306 305 305 305 305 306 308
323 322 321 317 314 313 313 312 310 310 310 310 310 311 311 312 311 312 311 310 309 306 302 307 306 306 304 302 301 301 299 300 303 304 304 303 303 302 302 301 302 303 304
318 316 314 313 311 310 309 307 307 307 307 307 307 308 308 310 309 309 309 308 307 307 302 305 303 301 302 300 298 297 296 296 299 301 301 301 301 299 299 299 299 300 302
315 312 310 309 309 308 306 305 303 304 304 304 304 304 305 306 306 306 306 305 305 305 303 300 300 297 298 299 297 293 291 292 295 298 298 299 298 297 296 296 297 297 299
311 307 307 306 306 305 304 304 303 303 303 303 304 303 304 305 304 305 303 301 302 301 302 301 298 299 297 295 293 292 290 289 290 292 293 296 296 295 295 295 296 296 297
310 308 306 305 304 304 304 304 303 302 301 302 302 302 303 303 303 303 302 300 300 299 299 298 298 296 295 293 292 289 288 288 287 288 290 291 291 291 293 295 295 295 296
308 308 306 304 304 303 303 303 302 302 302 301 302 301 302 300 297 299 299 299 298 297 297 296 295 293 290 288 289 290 288 287 288 290 288 287 287 288 290 293 293 295 295
306 305 304 303 303 301 301 302 303 302 302 301 300 299 298 295 296 296 295 293 294 296 294 293 293 291 290 290 289 287 288 287 288 287 285 284 286 286 288 290 293 294 295
304 303 303 302 302 302 300 300 300 301 300 300 299 298 296 296 296 294 294 293 292 291 291 293 292 292 290 290 288 288 289 288 286 285 284 282 284 284 287 291 292 293 294
303 302 302 301 301 301 300 300 300 299 298 298 298 297 296 293 293 293 293 289 288 289 290 289 291 294 295 293 292 291 289 286 284 284 284 282 283 283 285 287 291 292 292
302 301 301 300 300 300 299 300 299 298 297 297 297 297 296 293 292 293 290 286 286 288 290 290 290 290 291 292 291 287 284 283 282 282 283 283 282 282 283 284 286 290 290
300 300 299 300 300 299 298 299 298 297 296 296 296 295 295 292 292 292 288 287 284 285 286 287 287 288 289 288 288 286 285 283 283 281 283 282 281 281 280 284 285 285 286

GFSMA_sfc_thetae_102.txt.gz
Theta_e
328 331 331 331 329 327 326 325 324 322 322 322 324 325 325 325 325 326 323 328 332 336 336 337 338 339 340 339 338 337 335 335 335 335 333 334 335 333 331 329 328 327 325
326 326 326 326 325 325 324 324 323 324 323 325 325 326 326 326 326 327 327 325 332 334 337 338 339 340 340 336 337 337 336 335 333 331 331 331 334 334 334 332 331 329 327
325 325 324 325 326 327 326 326 325 326 326 327 325 327 327 327 330 329 330 330 329 330 335 338 339 338 338 337 338 337 335 333 330 329 328 329 330 330 331 332 332 332 331
328 328 330 330 329 328 327 326 325 325 324 324 325 326 326 328 328 327 326 327 328 330 330 335 337 336 335 334 338 337 334 330 328 327 326 326 326 326 327 329 331 332 332
331 331 332 332 330 329 327 327 324 323 322 322 326 327 329 329 328 326 323 324 324 324 325 330 331 330 331 334 337 337 332 329 327 325 324 326 326 325 326 326 327 328 331
334 334 334 333 332 330 328 327 325 324 323 323 328 327 327 326 324 323 321 322 323 324 325 325 325 326 329 333 338 335 331 327 326 325 324 325 325 325 325 324 328 329 330
337 334 333 333 333 331 329 327 325 323 322 328 326 325 323 323 321 321 321 318 321 323 322 323 325 325 324 328 333 332 329 327 325 323 323 323 324 324 325 327 326 326 326
336 336 335 333 333 331 330 328 325 324 326 328 322 320 314 316 318 319 319 318 317 320 321 322 322 324 323 321 321 323 324 323 322 322 324 324 324 325 325 326 326 325 324
334 334 333 333 331 331 329 328 329 327 324 325 325 320 312 308 312 318 317 316 315 315 318 319 320 320 317 317 316 316 319 320 321 323 322 323 323 324 324 323 323 324 324
332 332 331 331 330 329 328 327 328 324 324 322 324 323 319 317 309 305 314 316 316 315 314 315 316 317 314 311 313 315 317 319 319 319 320 321 321 321 321 321 322 322 322
330 331 330 329 328 327 325 324 323 322 321 317 316 315 313 313 315 311 306 309 314 315 315 313 313 312 311 310 309 311 314 317 320 321 322 321 320 318 318 318 319 319 319
325 326 328 327 326 325 324 322 321 319 320 318 316 314 312 311 310 309 308 308 308 310 313 312 311 310 310 307 308 310 312 313 315 316 318 318 315 314 314 315 316 317 317
323 324 326 325 324 323 323 323 322 320 320 318 316 314 313 312 313 312 310 307 306 307 308 309 309 307 307 307 305 308 310 311 311 313 316 315 312 311 311 311 312 312 313
324 324 325 324 324 324 323 322 322 320 316 314 313 312 312 312 312 312 309 306 302 304 305 305 305 305 305 305 305 306 306 308 309 310 311 311 309 307 307 307 307 308 310
326 326 325 325 324 324 323 321 319 317 314 312 311 311 309 310 310 310 309 308 304 299 299 302 301 301 301 301 301 302 302 305 307 307 307 306 306 305 304 304 304 304 306
324 322 323 323 323 323 321 318 316 312 311 310 309 308 308 309 308 308 307 307 306 303 299 302 301 300 301 301 301 299 299 301 303 304 304 303 303 301 301 301 301 302 303
320 319 318 316 314 313 313 313 310 308 307 305 306 306 307 307 306 306 305 306 306 306 301 300 298 298 300 297 297 296 296 296 299 301 301 301 300 299 298 298 298 298 300
315 314 312 312 312 310 308 306 305 306 304 304 303 304 304 305 304 304 303 302 301 301 301 300 299 296 297 298 296 293 292 293 296 299 299 299 298 297 297 297 297 297 298
309 308 308 307 306 305 305 305 305 305 302 302 302 301 301 302 301 301 300 299 298 299 299 299 297 297 296 295 293 292 290 289 290 294 294 296 297 295 295 296 297 296 297
307 304 305 305 304 303 304 304 303 302 301 301 302 301 301 301 300 299 298 297 297 295 295 295 295 295 294 293 292 290 288 288 288 288 291 291 291 291 293 295 295 296 296
305 303 303 303 303 302 303 302 302 302 301 301 301 301 300 299 299 300 298 298 297 294 293 293 292 293 290 288 289 290 289 288 288 288 287 284 284 284 286 292 293 294 296
302 302 300 300 301 301 303 303 302 300 300 299 297 297 295 296 296 298 297 296 296 295 293 292 291 290 290 289 290 288 287 286 285 284 282 281 282 282 284 287 293 294 294
298 298 298 299 298 298 302 303 303 298 297 296 295 295 293 294 295 292 295 295 294 294 293 293 291 291 288 290 288 287 287 287 284 281 281 279 281 280 284 289 292 293 294
297 297 297 297 297 298 301 302 301 295 294 294 294 294 292 290 291 291 289 286 285 286 287 288 288 289 290 292 291 290 288 282 281 281 281 276 279 280 282 284 291 291 292
296 296 296 296 295 295 300 301 299 294 294 293 295 294 293 289 293 296 289 285 283 285 290 290 291 292 294 295 290 285 280 279 277 279 280 280 279 279 280 281 284 290 290
294 293 295 295 297 294 300 300 299 295 292 293 294 294 298 291 295 295 287 286 281 281 284 284 284 286 288 289 291 284 281 278 276 275 280 278 277 277 274 280 281 282 283

GFSMA_sfc_thetae_105.txt.gz
Theta_e
333 331 330 332 329 329 327 326 325 323 321 320 322 323 322 322 323 324 323 329 335 338 338 338 338 339 340 340 339 338 336 335 335 333 332 333 334 334 332 331 330 328 327
331 330 330 330 329 327 327 325 322 320 320 320 321 325 325 323 324 323 322 324 332 335 339 339 339 340 339 337 338 338 336 335 332 330 329 330 331 333 333 333 333 332 330
329 328 329 328 327 324 322 321 320 322 322 323 323 324 325 325 326 328 328 327 329 330 335 339 339 338 337 337 338 338 336 333 330 329 328 328 328 328 328 329 330 332 332
325 325 325 324 324 324 324 323 323 322 322 323 323 325 325 326 326 327 324 327 329 328 330 334 337 336 335 335 337 338 335 331 329 327 326 326 326 326 326 326 326 328 330
325 328 327 328 327 325 324 324 323 322 321 320 323 325 326 328 329 325 322 323 323 323 323 329 330 329 331 333 336 338 334 330 328 326 325 325 325 325 326 325 327 327 329
328 331 330 330 328 327 325 325 322 322 320 320 324 325 326 327 324 321 319 321 322 323 322 322 324 325 329 334 338 337 332 328 326 325 323 323 324 324 325 327 327 327 327
332 331 332 331 330 328 326 326 324 322 320 324 323 324 324 324 320 319 318 318 320 321 321 323 323 322 323 328 334 334 330 328 326 323 322 323 323 325 325 326 326 326 325
334 333 332 330 330 329 327 326 323 323 322 325 320 317 314 315 317 318 317 316 317 318 319 321 322 321 318 318 321 323 325 324 323 322 324 324 324 324 324 324 324 325 325
334 335 333 332 331 330 328 327 325 324 323 322 323 320 312 309 313 317 316 314 314 316 317 318 318 317 315 314 315 315 319 320 322 323 322 323 322 322 322 323 323 323 323
332 332 332 331 330 328 326 326 327 325 324 320 321 321 319 315 308 309 315 315 315 315 314 315 315 314 312 310 313 315 317 319 319 320 321 322 321 320 320 320 321 321 320
328 328 328 328 328 326 325 324 323 322 322 321 319 316 314 313 315 309 306 310 314 314 312 312 312 310 312 310 307 311 314 317 320 321 321 321 320 318 318 318 318 319 319
324 326 326 326 326 325 324 322 322 320 320 318 314 314 312 310 308 309 307 307 309 309 312 313 310 309 308 306 309 311 313 314 315 317 319 318 316 315 314 315 315 316 315
322 323 325 324 324 324 324 322 320 319 319 317 316 315 314 311 312 312 310 307 306 307 309 307 307 305 306 303 305 308 310 310 311 314 316 315 312 311 310 311 311 311 312
322 323 323 324 324 323 323 323 322 321 319 317 316 314 313 312 312 310 309 308 304 304 303 302 302 302 303 303 305 307 305 308 309 310 312 311 308 307 306 306 307 307 308
324 323 323 324 324 324 324 323 322 320 317 315 313 312 310 311 310 310 309 308 304 299 300 301 299 300 299 299 301 300 301 306 307 308 307 306 305 304 303 303 303 303 304
321 322 324 324 324 324 324 322 320 319 316 313 312 311 308 308 308 308 308 307 306 302 298 301 299 298 299 300 301 298 299 302 304 305 304 303 302 301 300 300 299 300 301
322 321 322 322 322 322 323 321 320 315 314 312 310 310 307 307 306 306 305 305 304 303 299 297 298 297 298 296 296 295 296 296 299 302 302 301 300 299 298 298 298 298 298
316 317 317 316 316 315 315 316 312 312 312 310 307 307 305 306 305 306 304 302 302 302 301 298 298 296 298 298 296 294 293 294 297 299 300 299 298 297 296 296 297 297 297
309 309 310 311 310 309 308 308 308 307 307 307 305 304 304 303 303 302 301 300 299 300 299 298 295 297 296 295 293 292 290 290 292 296 296 296 297 295 294 295 296 297 297
306 305 304 305 306 305 305 304 304 305 305 305 305 304 303 304 302 300 299 298 297 295 295 295 295 296 294 293 293 291 289 289 288 289 292 292 292 291 293 295 295 295 297
303 303 302 302 302 302 303 303 304 303 303 303 304 304 304 303 303 302 299 296 296 294 292 290 291 294 291 289 289 290 289 289 289 289 287 286 285 283 286 290 292 294 295
300 300 300 300 299 300 303 304 303 301 301 301 300 300 300 300 300 302 301 301 298 294 291 292 291 292 291 291 290 288 288 286 285 286 282 281 281 281 283 286 293 294 294
297 297 297 297 297 298 302 304 303 300 299 299 298 297 296 296 297 296 299 298 297 299 298 293 292 292 291 291 289 287 287 287 287 283 280 279 280 280 283 288 292 292 292
296 296 296 296 296 297 301 303 303 295 296 296 296 296 295 294 293 292 291 288 288 288 290 290 290 293 293 291 291 290 288 285 282 281 280 276 278 279 281 283 291 291 292
295 294 295 295 294 295 300 301 300 294 293 293 295 295 294 293 295 296 290 285 284 284 290 291 290 292 294 296 293 287 282 279 277 279 280 279 278 278 279 281 283 290 290
298 297 296 295 296 294 298 301 300 296 295 294 295 295 297 293 296 297 290 286 283 282 284 284 285 287 289 292 295 286 283 277 275 275 279 277 276 276 274 279 280 281 282

GFSMA_sfc_thetae_108.txt.gz
Theta_e
334 333 334 335 334 329 329 327 325 322 320 319 319 320 320 320 321 323 323 329 335 340 341 340 339 339 339 340 340 339 337 335 335 332 330 331 333 334 333 333 333 332 331
333 333 331 331 331 328 327 326 323 322 320 319 318 320 321 321 321 322 322 323 332 336 340 339 338 339 338 338 338 339 337 335 333 329 328 329 329 329 330 330 331 332 333
333 331 331 330 328 326 326 324 322 320 318 318 318 321 323 323 323 322 323 322 327 329 334 338 339 338 337 336 337 339 337 335 331 329 327 326 327 327 327 327 327 328 330
333 331 330 330 328 325 324 321 320 318 320 320 320 322 324 324 324 325 325 324 325 326 329 334 336 336 335 334 336 339 337 333 330 327 326 325 326 326 327 326 327 329 329
331 329 328 327 325 324 323 322 321 321 320 320 321 323 323 324 326 325 322 323 324 323 322 329 329 329 331 332 335 338 337 331 328 326 325 324 325 325 326 327 328 328 327
329 327 325 325 326 324 323 323 321 321 320 320 321 322 323 325 323 321 321 321 321 322 321 322 322 324 329 334 335 338 335 330 327 325 323 324 324 324 326 326 327 327 327
327 327 327 327 327 325 324 323 323 320 319 319 320 321 322 321 320 320 319 319 320 320 321 322 321 320 321 328 334 335 332 329 327 324 323 323 324 324 325 325 325 325 326
329 331 330 329 328 327 325 324 322 321 320 321 320 317 314 316 316 317 315 318 317 319 320 322 320 318 316 317 321 326 328 327 325 323 324 324 324 324 323 324 324 323 323
330 331 331 331 329 328 326 325 322 322 320 322 323 319 312 310 312 315 315 314 315 316 316 318 319 317 314 313 314 315 319 320 322 324 325 323 323 322 321 322 322 322 323
331 331 331 330 329 328 326 325 325 323 323 320 321 322 320 314 308 308 313 313 313 315 316 317 316 313 313 310 313 315 317 319 319 321 322 323 323 320 320 320 320 321 321
327 329 329 328 327 325 324 324 323 323 323 321 320 318 317 316 316 309 307 310 314 314 315 315 314 312 311 309 307 312 314 317 320 321 322 321 320 318 318 318 318 318 317
324 325 326 326 326 325 324 323 323 323 322 322 324 318 314 311 310 309 306 306 310 311 311 311 310 310 309 306 309 312 313 314 315 317 320 320 317 315 315 314 315 314 315
322 322 324 324 324 324 324 323 321 320 320 319 318 317 314 313 313 312 309 307 306 307 309 307 307 307 305 303 305 307 310 310 312 314 317 316 313 311 310 310 311 311 311
323 323 323 324 323 323 322 322 322 321 320 319 318 316 316 316 314 312 310 307 303 304 305 303 304 302 302 301 304 307 304 308 309 311 313 311 309 307 306 307 307 307 307
323 324 324 323 323 323 322 322 322 321 320 319 318 317 313 312 311 311 310 309 305 299 300 300 299 299 299 300 302 300 299 306 308 308 307 306 305 304 303 303 302 302 303
322 322 321 321 320 322 323 322 322 322 319 317 316 314 313 310 309 309 309 308 305 302 298 300 299 299 300 300 302 298 299 302 304 305 305 304 302 301 300 300 300 300 300
321 321 321 322 322 322 323 322 322 320 318 318 315 313 311 308 308 306 305 305 304 303 300 297 298 297 296 296 296 295 296 296 299 303 303 302 300 299 298 298 298 299 299
314 316 317 317 317 318 318 319 319 317 316 316 315 313 312 309 306 306 306 304 302 302 300 297 296 296 297 295 296 295 294 294 296 300 301 300 299 298 297 297 297 297 298
308 308 308 309 311 313 312 312 312 311 311 313 312 311 311 308 306 305 303 303 302 301 300 297 294 296 296 296 294 293 291 290 293 297 298 297 299 296 294 295 296 296 297
304 304 304 304 305 306 306 307 307 307 307 307 307 307 307 306 306 304 302 301 299 298 295 295 293 295 294 294 293 292 289 289 289 290 293 292 294 292 293 295 294 295 296
300 301 301 301 301 301 303 302 303 304 304 304 304 305 305 304 304 304 302 300 298 296 293 292 291 294 292 290 290 290 290 290 288 289 287 287 286 285 285 289 292 294 295
298 298 298 298 298 300 302 304 303 300 302 302 302 302 302 301 303 305 304 302 301 297 295 293 289 291 291 290 291 289 287 287 287 287 286 284 282 281 282 284 292 293 293
295 296 296 296 296 296 301 303 303 299 297 298 299 299 298 298 300 300 304 303 301 302 300 296 290 291 290 292 290 288 288 287 287 284 283 280 280 280 282 287 292 292 292
294 294 294 295 294 296 300 302 302 297 295 295 296 297 297 296 296 296 295 293 293 295 296 295 293 292 293 294 293 291 289 287 283 283 281 278 279 279 280 282 291 291 291
292 293 294 296 295 295 298 300 300 296 293 293 296 296 296 295 297 299 293 290 289 288 291 294 293 295 297 297 293 288 285 285 282 280 280 279 277 278 279 280 283 291 289
294 296 296 297 299 298 300 300 300 298 296 295 295 295 298 296 297 299 292 290 287 285 286 285 287 289 292 293 296 289 286 285 278 277 280 278 276 276 273 279 280 281 281

GFSMA_sfc_thetae_111.txt.gz
Theta_e
333 333 333 335 334 334 332 330 325 323 320 318 318 317 318 318 318 320 323 327 335 340 341 341 340 339 339 340 340 340 339 336 334 331 329 330 331 332 332 331 331 332 332
334 333 333 332 333 332 329 329 324 322 320 318 318 318 319 319 319 321 321 322 331 336 340 340 339 339 339 338 337 339 339 336 334 329 328 328 328 328 328 328 328 328 329
334 333 331 331 331 330 328 327 323 321 319 319 316 317 319 321 321 321 322 321 323 329 333 338 339 339 339 337 337 337 339 336 332 329 327 326 326 327 327 327 327 330 330
334 333 331 331 329 328 326 325 322 320 317 316 316 318 320 322 322 323 323 323 322 324 329 335 337 337 336 335 335 336 339 335 330 328 326 325 325 325 326 327 328 328 328
334 332 331 330 328 326 324 323 320 319 318 318 319 320 321 322 323 325 322 323 323 324 323 327 329 329 330 332 334 336 338 333 329 327 325 324 324 324 325 327 327 327 327
332 331 330 329 327 326 323 320 319 320 319 319 321 321 321 322 323 321 320 322 322 322 322 323 322 323 329 333 334 335 338 333 329 327 325 323 324 324 325 325 325 325 326
331 329 328 327 326 326 325 323 321 319 319 318 317 318 320 320 319 319 318 319 320 320 320 321 320 319 321 327 335 338 335 332 329 326 324 323 324 325 324 324 324 324 324
328 326 327 326 325 325 323 323 322 320 319 319 318 315 314 316 316 317 315 317 317 318 320 320 318 317 316 317 321 327 330 330 328 325 324 325 325 324 323 323 323 323 323
328 328 328 328 326 326 324 323 323 321 317 319 321 318 311 311 313 315 314 314 315 315 316 318 318 316 315 313 314 316 320 321 322 324 326 325 325 324 322 321 321 321 322
328 329 329 329 327 327 324 324 324 321 322 319 320 321 318 314 311 308 312 313 313 314 315 317 317 316 314 313 314 315 317 318 320 321 323 324 325 323 321 320 320 320 319
326 327 328 328 328 328 326 324 323 322 322 320 319 317 317 316 315 309 310 311 313 313 317 317 316 313 312 311 310 313 315 317 320 321 322 322 321 319 318 318 318 317 317
323 325 325 324 324 324 322 322 322 322 322 321 321 319 318 315 313 312 308 308 310 311 312 313 313 311 310 309 310 313 313 314 315 317 320 322 319 317 315 315 315 315 314
321 322 324 324 323 323 323 323 321 321 321 321 322 321 320 320 316 313 310 308 308 308 308 308 309 307 307 305 307 308 311 311 312 314 317 319 314 312 311 311 311 311 311
322 323 323 323 323 323 322 322 321 320 319 320 319 317 318 316 314 315 313 309 305 305 305 305 303 304 304 304 305 308 305 309 309 311 314 312 310 307 306 306 306 306 305
323 322 323 322 322 322 322 321 321 321 320 320 320 320 318 318 316 315 313 311 309 302 303 303 302 301 300 301 303 301 300 306 308 309 308 307 305 304 303 302 302 302 302
322 322 322 322 321 321 321 322 322 321 320 320 320 319 318 316 314 312 311 310 309 308 303 302 301 300 300 300 302 299 300 303 305 307 306 304 303 301 300 300 300 301 301
320 320 321 321 320 320 321 321 321 321 320 320 319 317 316 316 313 310 310 310 308 306 303 299 299 299 299 298 297 296 298 297 298 304 305 303 301 299 298 298 298 299 300
311 311 312 315 316 317 317 318 318 318 319 318 318 316 315 313 313 311 309 308 307 306 303 299 297 297 298 297 294 293 294 295 295 301 303 302 301 299 297 296 297 297 298
305 306 306 306 307 309 309 311 312 312 312 313 314 314 314 312 309 308 307 307 305 303 301 299 296 297 297 297 295 293 290 290 294 298 301 299 300 299 295 295 296 296 296
300 301 302 302 302 303 303 304 304 305 306 308 308 309 310 309 308 306 305 304 301 300 299 298 296 295 295 295 294 292 290 289 289 291 296 294 295 295 293 295 294 294 295
298 298 298 298 299 299 301 300 301 301 301 303 304 305 306 305 304 306 304 303 301 300 298 296 294 294 292 291 291 292 291 289 290 290 287 288 286 286 287 289 291 294 294
296 296 296 296 296 298 301 303 303 299 299 299 300 300 301 302 303 306 306 305 303 300 297 295 294 294 294 292 291 288 289 288 287 288 286 284 283 283 283 284 291 293 293
293 293 294 294 294 295 300 302 302 298 296 296 296 298 299 299 301 301 304 305 304 304 303 299 296 296 293 293 290 287 288 288 288 284 284 282 281 281 282 286 292 292 291
291 291 292 293 293 295 300 301 301 296 294 294 294 295 296 297 297 298 298 297 298 298 301 298 298 296 296 294 294 291 290 287 284 284 283 280 280 280 281 283 290 292 291
290 290 291 291 291 293 300 301 300 298 297 296 295 296 296 295 297 300 295 293 292 292 294 297 297 297 298 298 294 290 286 286 283 283 281 281 279 278 279 280 283 291 290
291 292 292 292 294 292 297 300 299 297 296 297 297 296 298 298 299 299 296 293 288 291 289 287 289 291 294 294 297 292 289 287 284 282 282 280 277 278 274 279 280 281 282

GFSMA_sfc_thetae_114.txt.gz
Theta_e
334 332 331 331 331 333 332 331 327 324 320 318 317 316 316 316 316 318 321 326 333 339 341 341 341 340 339 340 339 340 340 338 336 332 329 329 329 329 329 329 329 329 329
334 332 332 333 330 331 330 330 326 322 320 318 316 317 317 317 317 317 319 322 329 335 338 340 341 339 339 339 338 339 340 337 335 331 329 328 327 327 327 327 328 330 330
333 333 333 333 333 333 330 327 326 321 319 318 316 316 316 317 319 319 320 321 322 327 332 336 339 340 339 339 337 337 339 337 334 330 328 327 326 325 326 327 328 328 328
335 333 332 332 333 332 330 328 325 321 318 317 316 316 316 318 320 320 321 321 321 322 327 334 338 339 338 337 337 336 336 338 333 330 328 326 325 325 325 326 327 328 328
335 333 332 332 331 330 329 327 324 322 318 317 317 318 318 319 321 323 322 322 322 322 322 327 330 330 331 332 335 336 336 337 332 329 327 325 324 324 325 326 326 326 326
334 334 333 331 330 328 326 325 323 320 319 318 320 319 320 321 322 322 322 322 322 322 322 322 323 323 328 332 334 334 335 337 332 329 327 324 324 324 325 325 324 324 324
332 331 331 330 329 327 325 324 322 321 318 317 316 316 318 320 320 320 319 319 320 320 320 320 321 321 320 326 331 337 337 335 332 328 325 324 324 325 325 324 324 324 324
331 330 329 326 327 326 325 323 322 319 319 318 315 314 312 316 317 318 316 318 318 318 319 319 319 318 316 317 321 329 334 333 331 328 326 325 326 325 325 323 323 322 323
330 328 326 326 325 326 324 324 322 321 317 317 320 318 311 311 313 314 314 315 316 316 316 318 318 316 316 316 317 320 322 324 325 326 326 327 327 326 324 322 321 321 320
329 325 324 323 324 325 324 324 324 322 320 317 319 321 318 315 311 310 313 314 313 315 315 316 319 317 316 314 315 315 318 319 321 323 325 325 325 325 322 320 320 319 319
327 327 325 324 324 326 325 325 322 321 321 319 319 316 316 315 313 310 309 311 312 313 316 317 319 316 314 313 312 314 317 318 321 322 323 323 322 322 320 318 317 317 316
325 327 327 328 328 327 326 324 322 321 321 321 320 318 318 315 313 312 309 311 312 313 314 316 315 313 312 311 311 313 315 316 317 319 320 322 322 320 317 315 315 314 313
322 323 324 323 323 323 322 322 321 321 320 320 321 321 321 320 319 316 314 314 309 311 309 311 313 312 310 308 309 310 313 314 314 316 318 320 318 314 312 311 311 310 309
322 323 323 323 323 322 322 322 321 320 320 320 319 318 316 316 315 315 314 312 309 306 307 308 306 308 307 306 307 309 308 311 312 314 316 317 313 310 308 307 305 304 305
322 322 322 322 322 322 322 321 320 320 320 320 320 320 318 319 317 317 317 315 313 307 304 306 305 304 305 305 306 305 302 309 311 312 312 311 309 306 305 303 301 302 302
321 322 321 321 321 321 321 320 320 321 320 321 320 319 319 320 319 317 316 314 313 311 305 309 305 302 303 303 304 302 301 306 309 310 309 307 306 304 302 300 300 300 301
316 317 318 320 320 319 319 319 319 319 320 320 320 319 319 319 316 314 313 312 311 310 307 304 301 300 300 301 300 299 299 299 300 308 307 306 304 302 300 299 298 298 299
307 307 307 308 309 311 313 313 313 314 315 315 317 317 316 316 315 316 313 311 311 310 308 306 298 297 299 299 299 296 296 296 296 302 306 305 303 301 300 297 297 297 296
301 302 303 302 303 303 304 305 305 306 307 309 310 311 312 313 312 312 310 309 308 306 306 302 297 298 297 297 295 295 293 292 293 298 303 303 303 302 299 296 296 295 295
298 298 298 299 299 300 300 300 301 300 301 302 304 305 307 308 308 309 307 307 306 303 301 300 297 296 296 295 295 293 292 291 290 293 298 298 299 301 298 296 295 294 295
296 296 296 297 297 298 299 299 299 298 298 298 299 301 302 302 304 306 306 305 303 302 300 299 296 295 293 292 294 294 294 292 290 291 289 290 290 287 288 293 292 294 294
293 294 294 294 294 296 300 303 301 297 296 296 296 297 297 299 300 304 305 306 305 302 299 298 297 296 295 293 293 292 292 289 288 291 288 286 286 284 284 285 290 294 293
290 291 291 292 292 293 300 301 302 296 294 293 293 294 295 297 298 297 301 304 305 305 305 301 299 298 297 294 294 290 290 289 289 286 287 285 283 282 283 285 293 294 292
288 288 289 290 290 292 298 300 300 294 293 293 293 294 296 296 296 297 297 297 299 301 303 302 301 301 299 297 296 294 292 288 285 285 286 284 281 281 282 283 292 293 291
287 288 289 289 288 290 296 297 297 293 292 291 293 294 297 296 298 300 297 294 294 296 298 301 301 300 300 299 297 290 287 287 284 284 283 283 279 279 279 281 284 292 292
287 287 288 289 291 290 294 295 294 293 291 293 294 295 298 298 300 300 297 296 292 294 292 290 291 294 297 297 298 293 288 288 285 283 283 283 279 277 274 279 281 283 284

GFSMA_sfc_thetae_117.txt.gz
Theta_e
342 341 341 339 341 341 338 338 338 337 332 327 326 324 324 324 325 326 328 326 331 336 340 342 342 341 340 340 340 340 341 340 338 335 330 329 328 327 328 328 329 330 330
340 339 338 336 339 340 338 337 336 334 330 328 325 324 325 326 326 327 327 329 328 333 337 338 340 342 340 339 339 339 340 340 337 334 330 329 327 326 327 327 329 329 329
337 337 337 338 337 339 336 334 336 333 329 327 325 324 325 326 326 327 328 328 329 327 331 337 338 340 341 340 339 338 338 340 337 333 330 328 326 326 326 327 328 328 328
336 335 335 337 338 334 336 331 330 331 326 325 323 325 325 326 326 327 329 328 329 329 328 332 337 339 340 340 339 338 337 340 337 333 330 328 326 325 325 327 327 327 327
338 336 335 336 337 334 335 332 327 329 326 325 322 324 326 325 325 325 327 329 330 329 329 328 329 332 335 336 336 336 336 338 337 332 330 327 325 325 324 325 325 324 324
336 336 337 335 335 335 332 331 327 326 326 325 324 323 326 326 327 327 328 329 329 329 329 329 330 330 328 332 333 335 336 337 336 333 330 327 326 325 326 326 325 324 324
334 336 336 334 333 331 330 329 326 324 323 326 324 324 324 325 326 327 328 328 327 327 329 328 330 331 331 328 331 334 335 336 336 333 329 327 326 326 327 326 325 323 322
333 333 333 332 331 330 328 326 325 322 323 323 323 320 317 321 324 325 326 324 325 325 326 327 327 328 329 329 329 330 337 338 336 333 329 327 327 328 328 326 324 322 321
332 331 331 331 330 329 328 327 326 324 321 322 324 323 317 315 318 321 320 321 321 321 323 325 326 326 326 326 326 325 326 332 334 333 331 328 329 329 328 326 324 321 320
331 330 330 330 329 330 327 327 326 325 323 320 321 322 323 321 316 315 319 320 319 319 322 323 325 324 324 322 319 319 320 323 327 330 330 329 328 328 327 326 323 320 318
330 328 327 326 326 327 326 325 323 323 323 321 322 320 321 321 318 314 315 317 316 320 321 323 324 322 319 321 316 316 319 321 324 327 328 328 327 327 327 324 320 318 316
328 327 327 326 325 325 324 326 324 323 324 323 323 322 321 318 317 314 313 317 318 321 319 319 321 320 318 318 315 314 317 319 322 323 325 326 325 325 324 321 317 314 313
324 325 327 325 324 324 324 324 323 322 323 322 321 321 321 320 320 318 317 316 315 316 315 317 318 319 316 315 313 312 314 316 318 320 322 323 322 322 318 316 313 311 310
324 326 325 324 324 324 324 323 323 322 321 322 323 323 322 321 320 318 318 315 315 315 314 314 312 313 311 312 310 311 311 314 315 317 319 320 319 315 313 311 308 306 305
323 323 323 323 323 323 322 322 321 321 321 321 322 323 322 321 319 319 319 318 315 311 312 313 309 309 310 310 309 310 308 311 313 314 315 316 312 310 308 306 304 303 303
321 321 322 322 322 322 322 321 320 320 320 320 320 320 321 321 321 320 318 318 317 314 310 312 310 306 309 307 308 307 304 306 310 312 313 310 309 307 306 304 302 301 301
311 312 312 313 315 317 318 320 320 319 319 319 320 320 319 320 319 318 316 316 314 313 310 311 305 303 304 304 303 303 303 303 304 310 310 309 307 306 304 302 301 300 299
304 305 306 306 306 307 308 309 310 310 311 311 312 312 313 314 315 316 315 313 312 313 310 309 302 299 302 304 303 301 300 300 300 303 308 308 306 305 303 302 300 299 298
301 301 302 302 302 302 303 303 303 304 304 305 306 307 308 309 308 310 311 311 311 309 309 308 304 300 299 300 297 297 297 297 298 300 304 307 306 305 303 301 299 298 296
299 299 299 299 300 300 301 301 302 302 302 302 303 303 304 304 304 306 307 307 308 307 306 305 300 297 297 297 298 295 293 294 294 296 300 302 304 304 304 301 298 297 295
296 297 297 297 297 299 301 301 301 300 300 300 300 300 301 301 300 302 303 304 304 304 303 302 300 296 295 293 296 297 297 296 294 294 294 297 299 298 299 299 296 295 295
294 295 294 295 295 296 300 301 301 298 298 297 297 298 299 298 300 301 302 303 304 302 301 300 300 298 298 297 298 295 298 292 291 294 291 291 294 291 290 291 292 293 295
292 292 293 293 293 294 298 299 299 297 296 296 296 296 297 298 298 298 299 301 302 303 305 303 300 300 300 299 299 293 295 292 292 291 292 291 289 289 289 289 292 294 295
290 290 291 292 292 293 296 296 295 295 295 295 296 296 296 297 298 298 299 298 299 300 302 304 303 303 302 303 299 299 296 293 287 288 291 290 288 288 287 289 292 294 294
289 290 290 290 290 291 294 293 292 291 291 291 291 292 294 295 297 298 297 296 296 297 299 300 302 302 303 302 300 293 289 289 287 285 286 288 284 287 286 288 290 294 293
288 288 287 288 290 288 290 291 291 290 288 288 290 290 292 293 295 295 294 294 292 295 296 295 293 295 299 299 300 296 292 289 286 285 286 286 282 284 284 285 288 290 292